<?xml version="1.0" encoding="UTF-8" standalone="no" ?>
<gpx xmlns="http://www.topografix.com/GPX/1/1" xmlns:xsi="http://www.w3.org/2001/XMLSchema-instance" xsi:schemaLocation="http://www.topografix.com/GPX/1/1 http://www.topografix.com/GPX/1/1/gpx.xsd" version="1.1" creator="VisuGPX - https://www.visugpx.com">
  <metadata>
    <name>rando VTT</name>
    <desc><![CDATA[Guidel]]></desc>
  </metadata>
  <trk>
    <name><![CDATA[rando VTT]]></name>
    <trkseg>
      <trkpt lat="47.78809" lon="-3.48713">
        <ele>36</ele>
        <time>2011-06-19T06:36:34.000Z</time>
      </trkpt>
      <trkpt lat="47.78805" lon="-3.48712">
        <ele>36</ele>
        <time>2011-06-19T06:36:36.000Z</time>
      </trkpt>
      <trkpt lat="47.78797" lon="-3.48703">
        <ele>36</ele>
        <time>2011-06-19T06:36:40.000Z</time>
      </trkpt>
      <trkpt lat="47.78796" lon="-3.48698">
        <ele>36</ele>
        <time>2011-06-19T06:36:41.000Z</time>
      </trkpt>
      <trkpt lat="47.78798" lon="-3.48673">
        <ele>37</ele>
        <time>2011-06-19T06:36:46.000Z</time>
      </trkpt>
      <trkpt lat="47.78804" lon="-3.48648">
        <ele>36</ele>
        <time>2011-06-19T06:36:51.000Z</time>
      </trkpt>
      <trkpt lat="47.78802" lon="-3.48636">
        <ele>35</ele>
        <time>2011-06-19T06:36:54.000Z</time>
      </trkpt>
      <trkpt lat="47.78778" lon="-3.48625">
        <ele>34</ele>
        <time>2011-06-19T06:37:00.000Z</time>
      </trkpt>
      <trkpt lat="47.78763" lon="-3.48619">
        <ele>33</ele>
        <time>2011-06-19T06:37:05.000Z</time>
      </trkpt>
      <trkpt lat="47.78761" lon="-3.48618">
        <ele>34</ele>
        <time>2011-06-19T06:37:06.000Z</time>
      </trkpt>
      <trkpt lat="47.78754" lon="-3.48633">
        <ele>33</ele>
        <time>2011-06-19T06:37:11.000Z</time>
      </trkpt>
      <trkpt lat="47.78744" lon="-3.48671">
        <ele>33</ele>
        <time>2011-06-19T06:37:18.000Z</time>
      </trkpt>
      <trkpt lat="47.7873" lon="-3.48721">
        <ele>34</ele>
        <time>2011-06-19T06:37:27.000Z</time>
      </trkpt>
      <trkpt lat="47.78724" lon="-3.48748">
        <ele>35</ele>
        <time>2011-06-19T06:37:32.000Z</time>
      </trkpt>
      <trkpt lat="47.78718" lon="-3.48786">
        <ele>36</ele>
        <time>2011-06-19T06:37:39.000Z</time>
      </trkpt>
      <trkpt lat="47.78712" lon="-3.48826">
        <ele>36</ele>
        <time>2011-06-19T06:37:46.000Z</time>
      </trkpt>
      <trkpt lat="47.78708" lon="-3.48855">
        <ele>37</ele>
        <time>2011-06-19T06:37:51.000Z</time>
      </trkpt>
      <trkpt lat="47.78707" lon="-3.48867">
        <ele>37</ele>
        <time>2011-06-19T06:37:53.000Z</time>
      </trkpt>
      <trkpt lat="47.787" lon="-3.48899">
        <ele>38</ele>
        <time>2011-06-19T06:37:59.000Z</time>
      </trkpt>
      <trkpt lat="47.78698" lon="-3.48932">
        <ele>39</ele>
        <time>2011-06-19T06:38:05.000Z</time>
      </trkpt>
      <trkpt lat="47.78682" lon="-3.48938">
        <ele>40</ele>
        <time>2011-06-19T06:38:09.000Z</time>
      </trkpt>
      <trkpt lat="47.78666" lon="-3.48942">
        <ele>40</ele>
        <time>2011-06-19T06:38:13.000Z</time>
      </trkpt>
      <trkpt lat="47.78663" lon="-3.48954">
        <ele>40</ele>
        <time>2011-06-19T06:38:15.000Z</time>
      </trkpt>
      <trkpt lat="47.78661" lon="-3.48981">
        <ele>40</ele>
        <time>2011-06-19T06:38:19.000Z</time>
      </trkpt>
      <trkpt lat="47.78663" lon="-3.49014">
        <ele>40</ele>
        <time>2011-06-19T06:38:24.000Z</time>
      </trkpt>
      <trkpt lat="47.78663" lon="-3.49026">
        <ele>40</ele>
        <time>2011-06-19T06:38:26.000Z</time>
      </trkpt>
      <trkpt lat="47.78658" lon="-3.49086">
        <ele>40</ele>
        <time>2011-06-19T06:38:35.000Z</time>
      </trkpt>
      <trkpt lat="47.78655" lon="-3.49135">
        <ele>41</ele>
        <time>2011-06-19T06:38:42.000Z</time>
      </trkpt>
      <trkpt lat="47.78653" lon="-3.49155">
        <ele>41</ele>
        <time>2011-06-19T06:38:45.000Z</time>
      </trkpt>
      <trkpt lat="47.78656" lon="-3.49186">
        <ele>41</ele>
        <time>2011-06-19T06:38:50.000Z</time>
      </trkpt>
      <trkpt lat="47.78651" lon="-3.49204">
        <ele>41</ele>
        <time>2011-06-19T06:38:53.000Z</time>
      </trkpt>
      <trkpt lat="47.78643" lon="-3.49209">
        <ele>41</ele>
        <time>2011-06-19T06:38:55.000Z</time>
      </trkpt>
      <trkpt lat="47.78634" lon="-3.49214">
        <ele>41</ele>
        <time>2011-06-19T06:38:57.000Z</time>
      </trkpt>
      <trkpt lat="47.78614" lon="-3.49241">
        <ele>40</ele>
        <time>2011-06-19T06:39:02.000Z</time>
      </trkpt>
      <trkpt lat="47.7858" lon="-3.49303">
        <ele>37</ele>
        <time>2011-06-19T06:39:10.000Z</time>
      </trkpt>
      <trkpt lat="47.78549" lon="-3.49376">
        <ele>33</ele>
        <time>2011-06-19T06:39:18.000Z</time>
      </trkpt>
      <trkpt lat="47.78521" lon="-3.49436">
        <ele>29</ele>
        <time>2011-06-19T06:39:24.000Z</time>
      </trkpt>
      <trkpt lat="47.78495" lon="-3.49492">
        <ele>27</ele>
        <time>2011-06-19T06:39:29.000Z</time>
      </trkpt>
      <trkpt lat="47.78491" lon="-3.49501">
        <ele>26</ele>
        <time>2011-06-19T06:39:30.000Z</time>
      </trkpt>
      <trkpt lat="47.78484" lon="-3.49503">
        <ele>25</ele>
        <time>2011-06-19T06:39:34.000Z</time>
      </trkpt>
      <trkpt lat="47.78487" lon="-3.49498">
        <ele>25</ele>
        <time>2011-06-19T06:39:36.000Z</time>
      </trkpt>
      <trkpt lat="47.785" lon="-3.49483">
        <ele>26</ele>
        <time>2011-06-19T06:39:42.000Z</time>
      </trkpt>
      <trkpt lat="47.78507" lon="-3.49494">
        <ele>27</ele>
        <time>2011-06-19T06:39:45.000Z</time>
      </trkpt>
      <trkpt lat="47.78523" lon="-3.49528">
        <ele>26</ele>
        <time>2011-06-19T06:39:50.000Z</time>
      </trkpt>
      <trkpt lat="47.78532" lon="-3.49543">
        <ele>26</ele>
        <time>2011-06-19T06:39:52.000Z</time>
      </trkpt>
      <trkpt lat="47.78542" lon="-3.49553">
        <ele>26</ele>
        <time>2011-06-19T06:39:54.000Z</time>
      </trkpt>
      <trkpt lat="47.78566" lon="-3.49564">
        <ele>23</ele>
        <time>2011-06-19T06:39:59.000Z</time>
      </trkpt>
      <trkpt lat="47.78571" lon="-3.49556">
        <ele>23</ele>
        <time>2011-06-19T06:40:02.000Z</time>
      </trkpt>
      <trkpt lat="47.78574" lon="-3.4955">
        <ele>23</ele>
        <time>2011-06-19T06:40:04.000Z</time>
      </trkpt>
      <trkpt lat="47.78576" lon="-3.49547">
        <ele>24</ele>
        <time>2011-06-19T06:40:05.000Z</time>
      </trkpt>
      <trkpt lat="47.78578" lon="-3.49541">
        <ele>25</ele>
        <time>2011-06-19T06:40:07.000Z</time>
      </trkpt>
      <trkpt lat="47.78579" lon="-3.49534">
        <ele>25</ele>
        <time>2011-06-19T06:40:09.000Z</time>
      </trkpt>
      <trkpt lat="47.7858" lon="-3.49525">
        <ele>26</ele>
        <time>2011-06-19T06:40:13.000Z</time>
      </trkpt>
      <trkpt lat="47.78592" lon="-3.49516">
        <ele>27</ele>
        <time>2011-06-19T06:40:19.000Z</time>
      </trkpt>
      <trkpt lat="47.786" lon="-3.49508">
        <ele>28</ele>
        <time>2011-06-19T06:40:22.000Z</time>
      </trkpt>
      <trkpt lat="47.78616" lon="-3.49494">
        <ele>28</ele>
        <time>2011-06-19T06:40:27.000Z</time>
      </trkpt>
      <trkpt lat="47.78626" lon="-3.49478">
        <ele>25</ele>
        <time>2011-06-19T06:40:31.000Z</time>
      </trkpt>
      <trkpt lat="47.7864" lon="-3.49462">
        <ele>26</ele>
        <time>2011-06-19T06:40:36.000Z</time>
      </trkpt>
      <trkpt lat="47.78656" lon="-3.49441">
        <ele>26</ele>
        <time>2011-06-19T06:40:41.000Z</time>
      </trkpt>
      <trkpt lat="47.78667" lon="-3.4942">
        <ele>22</ele>
        <time>2011-06-19T06:40:46.000Z</time>
      </trkpt>
      <trkpt lat="47.78675" lon="-3.49397">
        <ele>21</ele>
        <time>2011-06-19T06:40:51.000Z</time>
      </trkpt>
      <trkpt lat="47.78684" lon="-3.49366">
        <ele>23</ele>
        <time>2011-06-19T06:40:57.000Z</time>
      </trkpt>
      <trkpt lat="47.78687" lon="-3.49338">
        <ele>27</ele>
        <time>2011-06-19T06:41:02.000Z</time>
      </trkpt>
      <trkpt lat="47.78691" lon="-3.49307">
        <ele>29</ele>
        <time>2011-06-19T06:41:08.000Z</time>
      </trkpt>
      <trkpt lat="47.78696" lon="-3.49282">
        <ele>33</ele>
        <time>2011-06-19T06:41:13.000Z</time>
      </trkpt>
      <trkpt lat="47.78703" lon="-3.49263">
        <ele>31</ele>
        <time>2011-06-19T06:41:17.000Z</time>
      </trkpt>
      <trkpt lat="47.78706" lon="-3.49255">
        <ele>30</ele>
        <time>2011-06-19T06:41:19.000Z</time>
      </trkpt>
      <trkpt lat="47.78713" lon="-3.49269">
        <ele>27</ele>
        <time>2011-06-19T06:41:23.000Z</time>
      </trkpt>
      <trkpt lat="47.78713" lon="-3.49277">
        <ele>27</ele>
        <time>2011-06-19T06:41:24.000Z</time>
      </trkpt>
      <trkpt lat="47.78711" lon="-3.49294">
        <ele>27</ele>
        <time>2011-06-19T06:41:26.000Z</time>
      </trkpt>
      <trkpt lat="47.78709" lon="-3.49315">
        <ele>27</ele>
        <time>2011-06-19T06:41:30.000Z</time>
      </trkpt>
      <trkpt lat="47.78714" lon="-3.49318">
        <ele>27</ele>
        <time>2011-06-19T06:41:32.000Z</time>
      </trkpt>
      <trkpt lat="47.7873" lon="-3.49327">
        <ele>28</ele>
        <time>2011-06-19T06:41:37.000Z</time>
      </trkpt>
      <trkpt lat="47.78737" lon="-3.49336">
        <ele>30</ele>
        <time>2011-06-19T06:41:40.000Z</time>
      </trkpt>
      <trkpt lat="47.78738" lon="-3.49354">
        <ele>31</ele>
        <time>2011-06-19T06:41:45.000Z</time>
      </trkpt>
      <trkpt lat="47.78736" lon="-3.49372">
        <ele>31</ele>
        <time>2011-06-19T06:41:49.000Z</time>
      </trkpt>
      <trkpt lat="47.78735" lon="-3.49398">
        <ele>31</ele>
        <time>2011-06-19T06:41:54.000Z</time>
      </trkpt>
      <trkpt lat="47.78734" lon="-3.49405">
        <ele>31</ele>
        <time>2011-06-19T06:41:56.000Z</time>
      </trkpt>
      <trkpt lat="47.78736" lon="-3.49428">
        <ele>27</ele>
        <time>2011-06-19T06:42:01.000Z</time>
      </trkpt>
      <trkpt lat="47.7873" lon="-3.49458">
        <ele>22</ele>
        <time>2011-06-19T06:42:06.000Z</time>
      </trkpt>
      <trkpt lat="47.78723" lon="-3.49475">
        <ele>22</ele>
        <time>2011-06-19T06:42:10.000Z</time>
      </trkpt>
      <trkpt lat="47.78718" lon="-3.49485">
        <ele>21</ele>
        <time>2011-06-19T06:42:12.000Z</time>
      </trkpt>
      <trkpt lat="47.78704" lon="-3.49502">
        <ele>22</ele>
        <time>2011-06-19T06:42:18.000Z</time>
      </trkpt>
      <trkpt lat="47.78701" lon="-3.49506">
        <ele>24</ele>
        <time>2011-06-19T06:42:20.000Z</time>
      </trkpt>
      <trkpt lat="47.78691" lon="-3.49516">
        <ele>25</ele>
        <time>2011-06-19T06:42:25.000Z</time>
      </trkpt>
      <trkpt lat="47.78687" lon="-3.49515">
        <ele>26</ele>
        <time>2011-06-19T06:42:29.000Z</time>
      </trkpt>
      <trkpt lat="47.78678" lon="-3.49515">
        <ele>27</ele>
        <time>2011-06-19T06:42:33.000Z</time>
      </trkpt>
      <trkpt lat="47.78666" lon="-3.49529">
        <ele>24</ele>
        <time>2011-06-19T06:42:38.000Z</time>
      </trkpt>
      <trkpt lat="47.78666" lon="-3.49536">
        <ele>24</ele>
        <time>2011-06-19T06:42:40.000Z</time>
      </trkpt>
      <trkpt lat="47.78666" lon="-3.49543">
        <ele>23</ele>
        <time>2011-06-19T06:42:42.000Z</time>
      </trkpt>
      <trkpt lat="47.78658" lon="-3.49553">
        <ele>22</ele>
        <time>2011-06-19T06:42:46.000Z</time>
      </trkpt>
      <trkpt lat="47.78652" lon="-3.49565">
        <ele>22</ele>
        <time>2011-06-19T06:42:51.000Z</time>
      </trkpt>
      <trkpt lat="47.78656" lon="-3.49564">
        <ele>23</ele>
        <time>2011-06-19T06:42:54.000Z</time>
      </trkpt>
      <trkpt lat="47.7866" lon="-3.49571">
        <ele>24</ele>
        <time>2011-06-19T06:42:57.000Z</time>
      </trkpt>
      <trkpt lat="47.78662" lon="-3.49575">
        <ele>24</ele>
        <time>2011-06-19T06:42:58.000Z</time>
      </trkpt>
      <trkpt lat="47.78667" lon="-3.49584">
        <ele>24</ele>
        <time>2011-06-19T06:43:01.000Z</time>
      </trkpt>
      <trkpt lat="47.78679" lon="-3.49589">
        <ele>24</ele>
        <time>2011-06-19T06:43:06.000Z</time>
      </trkpt>
      <trkpt lat="47.78687" lon="-3.49587">
        <ele>25</ele>
        <time>2011-06-19T06:43:10.000Z</time>
      </trkpt>
      <trkpt lat="47.78688" lon="-3.49574">
        <ele>25</ele>
        <time>2011-06-19T06:43:13.000Z</time>
      </trkpt>
      <trkpt lat="47.78695" lon="-3.49564">
        <ele>27</ele>
        <time>2011-06-19T06:43:17.000Z</time>
      </trkpt>
      <trkpt lat="47.78699" lon="-3.4956">
        <ele>28</ele>
        <time>2011-06-19T06:43:19.000Z</time>
      </trkpt>
      <trkpt lat="47.78708" lon="-3.49536">
        <ele>30</ele>
        <time>2011-06-19T06:43:26.000Z</time>
      </trkpt>
      <trkpt lat="47.78712" lon="-3.49524">
        <ele>31</ele>
        <time>2011-06-19T06:43:29.000Z</time>
      </trkpt>
      <trkpt lat="47.78714" lon="-3.49515">
        <ele>31</ele>
        <time>2011-06-19T06:43:31.000Z</time>
      </trkpt>
      <trkpt lat="47.78721" lon="-3.49499">
        <ele>32</ele>
        <time>2011-06-19T06:43:35.000Z</time>
      </trkpt>
      <trkpt lat="47.78725" lon="-3.49493">
        <ele>33</ele>
        <time>2011-06-19T06:43:37.000Z</time>
      </trkpt>
      <trkpt lat="47.78732" lon="-3.49468">
        <ele>35</ele>
        <time>2011-06-19T06:43:43.000Z</time>
      </trkpt>
      <trkpt lat="47.78737" lon="-3.4944">
        <ele>35</ele>
        <time>2011-06-19T06:43:49.000Z</time>
      </trkpt>
      <trkpt lat="47.78738" lon="-3.49437">
        <ele>34</ele>
        <time>2011-06-19T06:43:50.000Z</time>
      </trkpt>
      <trkpt lat="47.78743" lon="-3.49437">
        <ele>35</ele>
        <time>2011-06-19T06:43:54.000Z</time>
      </trkpt>
      <trkpt lat="47.78746" lon="-3.49435">
        <ele>35</ele>
        <time>2011-06-19T06:43:56.000Z</time>
      </trkpt>
      <trkpt lat="47.78751" lon="-3.49418">
        <ele>35</ele>
        <time>2011-06-19T06:44:02.000Z</time>
      </trkpt>
      <trkpt lat="47.78752" lon="-3.49416">
        <ele>35</ele>
        <time>2011-06-19T06:44:03.000Z</time>
      </trkpt>
      <trkpt lat="47.78745" lon="-3.49401">
        <ele>37</ele>
        <time>2011-06-19T06:44:09.000Z</time>
      </trkpt>
      <trkpt lat="47.78744" lon="-3.49398">
        <ele>38</ele>
        <time>2011-06-19T06:44:13.000Z</time>
      </trkpt>
      <trkpt lat="47.78747" lon="-3.49392">
        <ele>39</ele>
        <time>2011-06-19T06:44:18.000Z</time>
      </trkpt>
      <trkpt lat="47.7875" lon="-3.49387">
        <ele>39</ele>
        <time>2011-06-19T06:44:22.000Z</time>
      </trkpt>
      <trkpt lat="47.78757" lon="-3.49376">
        <ele>38</ele>
        <time>2011-06-19T06:44:27.000Z</time>
      </trkpt>
      <trkpt lat="47.78751" lon="-3.49359">
        <ele>38</ele>
        <time>2011-06-19T06:44:31.000Z</time>
      </trkpt>
      <trkpt lat="47.78749" lon="-3.49351">
        <ele>37</ele>
        <time>2011-06-19T06:44:34.000Z</time>
      </trkpt>
      <trkpt lat="47.78754" lon="-3.49339">
        <ele>36</ele>
        <time>2011-06-19T06:44:40.000Z</time>
      </trkpt>
      <trkpt lat="47.78756" lon="-3.49334">
        <ele>37</ele>
        <time>2011-06-19T06:44:43.000Z</time>
      </trkpt>
      <trkpt lat="47.78757" lon="-3.49331">
        <ele>37</ele>
        <time>2011-06-19T06:44:45.000Z</time>
      </trkpt>
      <trkpt lat="47.78759" lon="-3.49317">
        <ele>38</ele>
        <time>2011-06-19T06:44:50.000Z</time>
      </trkpt>
      <trkpt lat="47.78765" lon="-3.49318">
        <ele>38</ele>
        <time>2011-06-19T06:44:55.000Z</time>
      </trkpt>
      <trkpt lat="47.78765" lon="-3.4932">
        <ele>38</ele>
        <time>2011-06-19T06:44:56.000Z</time>
      </trkpt>
      <trkpt lat="47.7877" lon="-3.49332">
        <ele>37</ele>
        <time>2011-06-19T06:45:01.000Z</time>
      </trkpt>
      <trkpt lat="47.78773" lon="-3.49333">
        <ele>36</ele>
        <time>2011-06-19T06:45:02.000Z</time>
      </trkpt>
      <trkpt lat="47.78782" lon="-3.49332">
        <ele>35</ele>
        <time>2011-06-19T06:45:07.000Z</time>
      </trkpt>
      <trkpt lat="47.78787" lon="-3.49332">
        <ele>35</ele>
        <time>2011-06-19T06:45:11.000Z</time>
      </trkpt>
      <trkpt lat="47.78788" lon="-3.49336">
        <ele>35</ele>
        <time>2011-06-19T06:45:13.000Z</time>
      </trkpt>
      <trkpt lat="47.7878" lon="-3.49346">
        <ele>34</ele>
        <time>2011-06-19T06:45:19.000Z</time>
      </trkpt>
      <trkpt lat="47.78778" lon="-3.49356">
        <ele>33</ele>
        <time>2011-06-19T06:45:22.000Z</time>
      </trkpt>
      <trkpt lat="47.78782" lon="-3.49387">
        <ele>36</ele>
        <time>2011-06-19T06:45:29.000Z</time>
      </trkpt>
      <trkpt lat="47.78792" lon="-3.49402">
        <ele>38</ele>
        <time>2011-06-19T06:45:34.000Z</time>
      </trkpt>
      <trkpt lat="47.78791" lon="-3.49423">
        <ele>38</ele>
        <time>2011-06-19T06:45:40.000Z</time>
      </trkpt>
      <trkpt lat="47.7879" lon="-3.49437">
        <ele>38</ele>
        <time>2011-06-19T06:45:43.000Z</time>
      </trkpt>
      <trkpt lat="47.78783" lon="-3.49451">
        <ele>38</ele>
        <time>2011-06-19T06:45:48.000Z</time>
      </trkpt>
      <trkpt lat="47.78777" lon="-3.49454">
        <ele>38</ele>
        <time>2011-06-19T06:45:50.000Z</time>
      </trkpt>
      <trkpt lat="47.78774" lon="-3.49471">
        <ele>35</ele>
        <time>2011-06-19T06:45:55.000Z</time>
      </trkpt>
      <trkpt lat="47.78773" lon="-3.49489">
        <ele>35</ele>
        <time>2011-06-19T06:46:00.000Z</time>
      </trkpt>
      <trkpt lat="47.78771" lon="-3.49508">
        <ele>35</ele>
        <time>2011-06-19T06:46:05.000Z</time>
      </trkpt>
      <trkpt lat="47.78775" lon="-3.49519">
        <ele>36</ele>
        <time>2011-06-19T06:46:10.000Z</time>
      </trkpt>
      <trkpt lat="47.78778" lon="-3.49527">
        <ele>38</ele>
        <time>2011-06-19T06:46:14.000Z</time>
      </trkpt>
      <trkpt lat="47.78781" lon="-3.49537">
        <ele>39</ele>
        <time>2011-06-19T06:46:18.000Z</time>
      </trkpt>
      <trkpt lat="47.78785" lon="-3.49549">
        <ele>39</ele>
        <time>2011-06-19T06:46:22.000Z</time>
      </trkpt>
      <trkpt lat="47.78773" lon="-3.49565">
        <ele>38</ele>
        <time>2011-06-19T06:46:28.000Z</time>
      </trkpt>
      <trkpt lat="47.78761" lon="-3.49574">
        <ele>37</ele>
        <time>2011-06-19T06:46:33.000Z</time>
      </trkpt>
      <trkpt lat="47.78759" lon="-3.49583">
        <ele>37</ele>
        <time>2011-06-19T06:46:35.000Z</time>
      </trkpt>
      <trkpt lat="47.7876" lon="-3.49601">
        <ele>37</ele>
        <time>2011-06-19T06:46:39.000Z</time>
      </trkpt>
      <trkpt lat="47.78747" lon="-3.49615">
        <ele>36</ele>
        <time>2011-06-19T06:46:44.000Z</time>
      </trkpt>
      <trkpt lat="47.78732" lon="-3.49618">
        <ele>36</ele>
        <time>2011-06-19T06:46:48.000Z</time>
      </trkpt>
      <trkpt lat="47.78728" lon="-3.49625">
        <ele>36</ele>
        <time>2011-06-19T06:46:52.000Z</time>
      </trkpt>
      <trkpt lat="47.78728" lon="-3.49633">
        <ele>36</ele>
        <time>2011-06-19T06:46:55.000Z</time>
      </trkpt>
      <trkpt lat="47.78742" lon="-3.49642">
        <ele>36</ele>
        <time>2011-06-19T06:47:01.000Z</time>
      </trkpt>
      <trkpt lat="47.78745" lon="-3.49653">
        <ele>34</ele>
        <time>2011-06-19T06:47:06.000Z</time>
      </trkpt>
      <trkpt lat="47.78743" lon="-3.49653">
        <ele>33</ele>
        <time>2011-06-19T06:47:07.000Z</time>
      </trkpt>
      <trkpt lat="47.7872" lon="-3.49636">
        <ele>26</ele>
        <time>2011-06-19T06:47:14.000Z</time>
      </trkpt>
      <trkpt lat="47.78693" lon="-3.49613">
        <ele>23</ele>
        <time>2011-06-19T06:47:20.000Z</time>
      </trkpt>
      <trkpt lat="47.78663" lon="-3.49597">
        <ele>21</ele>
        <time>2011-06-19T06:47:26.000Z</time>
      </trkpt>
      <trkpt lat="47.78649" lon="-3.49591">
        <ele>19</ele>
        <time>2011-06-19T06:47:29.000Z</time>
      </trkpt>
      <trkpt lat="47.78631" lon="-3.49589">
        <ele>19</ele>
        <time>2011-06-19T06:47:33.000Z</time>
      </trkpt>
      <trkpt lat="47.78624" lon="-3.49589">
        <ele>18</ele>
        <time>2011-06-19T06:47:35.000Z</time>
      </trkpt>
      <trkpt lat="47.78602" lon="-3.49589">
        <ele>14</ele>
        <time>2011-06-19T06:47:40.000Z</time>
      </trkpt>
      <trkpt lat="47.78588" lon="-3.49594">
        <ele>12</ele>
        <time>2011-06-19T06:47:43.000Z</time>
      </trkpt>
      <trkpt lat="47.78582" lon="-3.49609">
        <ele>11</ele>
        <time>2011-06-19T06:47:46.000Z</time>
      </trkpt>
      <trkpt lat="47.78577" lon="-3.49626">
        <ele>10</ele>
        <time>2011-06-19T06:47:49.000Z</time>
      </trkpt>
      <trkpt lat="47.78571" lon="-3.49654">
        <ele>10</ele>
        <time>2011-06-19T06:47:53.000Z</time>
      </trkpt>
      <trkpt lat="47.78572" lon="-3.49672">
        <ele>11</ele>
        <time>2011-06-19T06:47:56.000Z</time>
      </trkpt>
      <trkpt lat="47.78564" lon="-3.49694">
        <ele>12</ele>
        <time>2011-06-19T06:48:00.000Z</time>
      </trkpt>
      <trkpt lat="47.78556" lon="-3.49702">
        <ele>12</ele>
        <time>2011-06-19T06:48:02.000Z</time>
      </trkpt>
      <trkpt lat="47.7855" lon="-3.49727">
        <ele>15</ele>
        <time>2011-06-19T06:48:07.000Z</time>
      </trkpt>
      <trkpt lat="47.78553" lon="-3.49734">
        <ele>15</ele>
        <time>2011-06-19T06:48:09.000Z</time>
      </trkpt>
      <trkpt lat="47.78571" lon="-3.49771">
        <ele>16</ele>
        <time>2011-06-19T06:48:17.000Z</time>
      </trkpt>
      <trkpt lat="47.78585" lon="-3.49807">
        <ele>18</ele>
        <time>2011-06-19T06:48:24.000Z</time>
      </trkpt>
      <trkpt lat="47.78587" lon="-3.49813">
        <ele>18</ele>
        <time>2011-06-19T06:48:25.000Z</time>
      </trkpt>
      <trkpt lat="47.78592" lon="-3.49837">
        <ele>19</ele>
        <time>2011-06-19T06:48:29.000Z</time>
      </trkpt>
      <trkpt lat="47.78593" lon="-3.4985">
        <ele>19</ele>
        <time>2011-06-19T06:48:31.000Z</time>
      </trkpt>
      <trkpt lat="47.78599" lon="-3.49901">
        <ele>20</ele>
        <time>2011-06-19T06:48:39.000Z</time>
      </trkpt>
      <trkpt lat="47.78601" lon="-3.49914">
        <ele>20</ele>
        <time>2011-06-19T06:48:41.000Z</time>
      </trkpt>
      <trkpt lat="47.78604" lon="-3.49927">
        <ele>20</ele>
        <time>2011-06-19T06:48:43.000Z</time>
      </trkpt>
      <trkpt lat="47.78627" lon="-3.49974">
        <ele>19</ele>
        <time>2011-06-19T06:48:51.000Z</time>
      </trkpt>
      <trkpt lat="47.78653" lon="-3.50019">
        <ele>19</ele>
        <time>2011-06-19T06:48:59.000Z</time>
      </trkpt>
      <trkpt lat="47.78677" lon="-3.50061">
        <ele>19</ele>
        <time>2011-06-19T06:49:07.000Z</time>
      </trkpt>
      <trkpt lat="47.7868" lon="-3.50067">
        <ele>19</ele>
        <time>2011-06-19T06:49:08.000Z</time>
      </trkpt>
      <trkpt lat="47.78693" lon="-3.50089">
        <ele>19</ele>
        <time>2011-06-19T06:49:12.000Z</time>
      </trkpt>
      <trkpt lat="47.78709" lon="-3.50107">
        <ele>19</ele>
        <time>2011-06-19T06:49:16.000Z</time>
      </trkpt>
      <trkpt lat="47.78718" lon="-3.50112">
        <ele>19</ele>
        <time>2011-06-19T06:49:18.000Z</time>
      </trkpt>
      <trkpt lat="47.78748" lon="-3.50114">
        <ele>19</ele>
        <time>2011-06-19T06:49:24.000Z</time>
      </trkpt>
      <trkpt lat="47.7877" lon="-3.50114">
        <ele>19</ele>
        <time>2011-06-19T06:49:28.000Z</time>
      </trkpt>
      <trkpt lat="47.78812" lon="-3.50128">
        <ele>20</ele>
        <time>2011-06-19T06:49:36.000Z</time>
      </trkpt>
      <trkpt lat="47.78832" lon="-3.50151">
        <ele>20</ele>
        <time>2011-06-19T06:49:41.000Z</time>
      </trkpt>
      <trkpt lat="47.78846" lon="-3.50182">
        <ele>20</ele>
        <time>2011-06-19T06:49:46.000Z</time>
      </trkpt>
      <trkpt lat="47.7886" lon="-3.50198">
        <ele>21</ele>
        <time>2011-06-19T06:49:50.000Z</time>
      </trkpt>
      <trkpt lat="47.78865" lon="-3.50199">
        <ele>21</ele>
        <time>2011-06-19T06:49:51.000Z</time>
      </trkpt>
      <trkpt lat="47.78904" lon="-3.50203">
        <ele>22</ele>
        <time>2011-06-19T06:49:59.000Z</time>
      </trkpt>
      <trkpt lat="47.78923" lon="-3.50206">
        <ele>23</ele>
        <time>2011-06-19T06:50:03.000Z</time>
      </trkpt>
      <trkpt lat="47.78938" lon="-3.5021">
        <ele>23</ele>
        <time>2011-06-19T06:50:06.000Z</time>
      </trkpt>
      <trkpt lat="47.7897" lon="-3.50228">
        <ele>23</ele>
        <time>2011-06-19T06:50:13.000Z</time>
      </trkpt>
      <trkpt lat="47.78998" lon="-3.50239">
        <ele>24</ele>
        <time>2011-06-19T06:50:19.000Z</time>
      </trkpt>
      <trkpt lat="47.79034" lon="-3.50251">
        <ele>26</ele>
        <time>2011-06-19T06:50:27.000Z</time>
      </trkpt>
      <trkpt lat="47.79052" lon="-3.50259">
        <ele>27</ele>
        <time>2011-06-19T06:50:31.000Z</time>
      </trkpt>
      <trkpt lat="47.79069" lon="-3.50276">
        <ele>29</ele>
        <time>2011-06-19T06:50:36.000Z</time>
      </trkpt>
      <trkpt lat="47.79075" lon="-3.50297">
        <ele>28</ele>
        <time>2011-06-19T06:50:40.000Z</time>
      </trkpt>
      <trkpt lat="47.79086" lon="-3.50316">
        <ele>28</ele>
        <time>2011-06-19T06:50:45.000Z</time>
      </trkpt>
      <trkpt lat="47.79099" lon="-3.50343">
        <ele>28</ele>
        <time>2011-06-19T06:50:51.000Z</time>
      </trkpt>
      <trkpt lat="47.79106" lon="-3.50365">
        <ele>23</ele>
        <time>2011-06-19T06:50:55.000Z</time>
      </trkpt>
      <trkpt lat="47.79112" lon="-3.50386">
        <ele>22</ele>
        <time>2011-06-19T06:50:59.000Z</time>
      </trkpt>
      <trkpt lat="47.79119" lon="-3.5041">
        <ele>20</ele>
        <time>2011-06-19T06:51:04.000Z</time>
      </trkpt>
      <trkpt lat="47.79118" lon="-3.50431">
        <ele>20</ele>
        <time>2011-06-19T06:51:08.000Z</time>
      </trkpt>
      <trkpt lat="47.79115" lon="-3.5046">
        <ele>22</ele>
        <time>2011-06-19T06:51:14.000Z</time>
      </trkpt>
      <trkpt lat="47.79115" lon="-3.50484">
        <ele>27</ele>
        <time>2011-06-19T06:51:18.000Z</time>
      </trkpt>
      <trkpt lat="47.79113" lon="-3.50499">
        <ele>29</ele>
        <time>2011-06-19T06:51:21.000Z</time>
      </trkpt>
      <trkpt lat="47.79113" lon="-3.50513">
        <ele>32</ele>
        <time>2011-06-19T06:51:24.000Z</time>
      </trkpt>
      <trkpt lat="47.79124" lon="-3.50521">
        <ele>35</ele>
        <time>2011-06-19T06:51:30.000Z</time>
      </trkpt>
      <trkpt lat="47.79137" lon="-3.50535">
        <ele>26</ele>
        <time>2011-06-19T06:51:34.000Z</time>
      </trkpt>
      <trkpt lat="47.7915" lon="-3.50545">
        <ele>23</ele>
        <time>2011-06-19T06:51:38.000Z</time>
      </trkpt>
      <trkpt lat="47.79163" lon="-3.50558">
        <ele>19</ele>
        <time>2011-06-19T06:51:43.000Z</time>
      </trkpt>
      <trkpt lat="47.79182" lon="-3.50574">
        <ele>20</ele>
        <time>2011-06-19T06:51:48.000Z</time>
      </trkpt>
      <trkpt lat="47.79194" lon="-3.50583">
        <ele>24</ele>
        <time>2011-06-19T06:51:51.000Z</time>
      </trkpt>
      <trkpt lat="47.79212" lon="-3.50603">
        <ele>28</ele>
        <time>2011-06-19T06:51:56.000Z</time>
      </trkpt>
      <trkpt lat="47.79229" lon="-3.50634">
        <ele>31</ele>
        <time>2011-06-19T06:52:03.000Z</time>
      </trkpt>
      <trkpt lat="47.79239" lon="-3.50655">
        <ele>33</ele>
        <time>2011-06-19T06:52:08.000Z</time>
      </trkpt>
      <trkpt lat="47.79255" lon="-3.50671">
        <ele>35</ele>
        <time>2011-06-19T06:52:13.000Z</time>
      </trkpt>
      <trkpt lat="47.79269" lon="-3.50673">
        <ele>36</ele>
        <time>2011-06-19T06:52:17.000Z</time>
      </trkpt>
      <trkpt lat="47.79286" lon="-3.50664">
        <ele>39</ele>
        <time>2011-06-19T06:52:23.000Z</time>
      </trkpt>
      <trkpt lat="47.79307" lon="-3.50646">
        <ele>42</ele>
        <time>2011-06-19T06:52:31.000Z</time>
      </trkpt>
      <trkpt lat="47.7933" lon="-3.50635">
        <ele>44</ele>
        <time>2011-06-19T06:52:38.000Z</time>
      </trkpt>
      <trkpt lat="47.79345" lon="-3.50629">
        <ele>45</ele>
        <time>2011-06-19T06:52:42.000Z</time>
      </trkpt>
      <trkpt lat="47.79366" lon="-3.50613">
        <ele>46</ele>
        <time>2011-06-19T06:52:48.000Z</time>
      </trkpt>
      <trkpt lat="47.79396" lon="-3.50583">
        <ele>47</ele>
        <time>2011-06-19T06:52:56.000Z</time>
      </trkpt>
      <trkpt lat="47.79428" lon="-3.50552">
        <ele>47</ele>
        <time>2011-06-19T06:53:04.000Z</time>
      </trkpt>
      <trkpt lat="47.79448" lon="-3.50532">
        <ele>44</ele>
        <time>2011-06-19T06:53:09.000Z</time>
      </trkpt>
      <trkpt lat="47.79451" lon="-3.50529">
        <ele>43</ele>
        <time>2011-06-19T06:53:10.000Z</time>
      </trkpt>
      <trkpt lat="47.79461" lon="-3.50514">
        <ele>42</ele>
        <time>2011-06-19T06:53:15.000Z</time>
      </trkpt>
      <trkpt lat="47.79475" lon="-3.50506">
        <ele>41</ele>
        <time>2011-06-19T06:53:19.000Z</time>
      </trkpt>
      <trkpt lat="47.79499" lon="-3.50509">
        <ele>42</ele>
        <time>2011-06-19T06:53:25.000Z</time>
      </trkpt>
      <trkpt lat="47.79526" lon="-3.50516">
        <ele>44</ele>
        <time>2011-06-19T06:53:32.000Z</time>
      </trkpt>
      <trkpt lat="47.79547" lon="-3.50524">
        <ele>46</ele>
        <time>2011-06-19T06:53:39.000Z</time>
      </trkpt>
      <trkpt lat="47.79558" lon="-3.50528">
        <ele>48</ele>
        <time>2011-06-19T06:53:43.000Z</time>
      </trkpt>
      <trkpt lat="47.7957" lon="-3.50531">
        <ele>50</ele>
        <time>2011-06-19T06:53:47.000Z</time>
      </trkpt>
      <trkpt lat="47.79573" lon="-3.5053">
        <ele>50</ele>
        <time>2011-06-19T06:53:48.000Z</time>
      </trkpt>
      <trkpt lat="47.79593" lon="-3.50513">
        <ele>52</ele>
        <time>2011-06-19T06:53:55.000Z</time>
      </trkpt>
      <trkpt lat="47.79604" lon="-3.50509">
        <ele>54</ele>
        <time>2011-06-19T06:53:59.000Z</time>
      </trkpt>
      <trkpt lat="47.79636" lon="-3.50505">
        <ele>57</ele>
        <time>2011-06-19T06:54:09.000Z</time>
      </trkpt>
      <trkpt lat="47.79663" lon="-3.50502">
        <ele>58</ele>
        <time>2011-06-19T06:54:17.000Z</time>
      </trkpt>
      <trkpt lat="47.7968" lon="-3.50499">
        <ele>58</ele>
        <time>2011-06-19T06:54:22.000Z</time>
      </trkpt>
      <trkpt lat="47.79705" lon="-3.50497">
        <ele>57</ele>
        <time>2011-06-19T06:54:28.000Z</time>
      </trkpt>
      <trkpt lat="47.79731" lon="-3.50495">
        <ele>57</ele>
        <time>2011-06-19T06:54:34.000Z</time>
      </trkpt>
      <trkpt lat="47.7974" lon="-3.50494">
        <ele>56</ele>
        <time>2011-06-19T06:54:36.000Z</time>
      </trkpt>
      <trkpt lat="47.79753" lon="-3.50482">
        <ele>56</ele>
        <time>2011-06-19T06:54:41.000Z</time>
      </trkpt>
      <trkpt lat="47.79759" lon="-3.50463">
        <ele>53</ele>
        <time>2011-06-19T06:54:46.000Z</time>
      </trkpt>
      <trkpt lat="47.79762" lon="-3.50441">
        <ele>51</ele>
        <time>2011-06-19T06:54:50.000Z</time>
      </trkpt>
      <trkpt lat="47.7977" lon="-3.50429">
        <ele>46</ele>
        <time>2011-06-19T06:54:53.000Z</time>
      </trkpt>
      <trkpt lat="47.79786" lon="-3.50423">
        <ele>47</ele>
        <time>2011-06-19T06:54:58.000Z</time>
      </trkpt>
      <trkpt lat="47.79796" lon="-3.50421">
        <ele>47</ele>
        <time>2011-06-19T06:55:02.000Z</time>
      </trkpt>
      <trkpt lat="47.7981" lon="-3.50413">
        <ele>52</ele>
        <time>2011-06-19T06:55:06.000Z</time>
      </trkpt>
      <trkpt lat="47.79824" lon="-3.504">
        <ele>52</ele>
        <time>2011-06-19T06:55:11.000Z</time>
      </trkpt>
      <trkpt lat="47.79844" lon="-3.50393">
        <ele>53</ele>
        <time>2011-06-19T06:55:16.000Z</time>
      </trkpt>
      <trkpt lat="47.79866" lon="-3.50384">
        <ele>53</ele>
        <time>2011-06-19T06:55:22.000Z</time>
      </trkpt>
      <trkpt lat="47.79884" lon="-3.50383">
        <ele>53</ele>
        <time>2011-06-19T06:55:27.000Z</time>
      </trkpt>
      <trkpt lat="47.79905" lon="-3.50384">
        <ele>53</ele>
        <time>2011-06-19T06:55:32.000Z</time>
      </trkpt>
      <trkpt lat="47.79917" lon="-3.50386">
        <ele>52</ele>
        <time>2011-06-19T06:55:34.000Z</time>
      </trkpt>
      <trkpt lat="47.79943" lon="-3.50388">
        <ele>53</ele>
        <time>2011-06-19T06:55:38.000Z</time>
      </trkpt>
      <trkpt lat="47.79984" lon="-3.50395">
        <ele>53</ele>
        <time>2011-06-19T06:55:43.000Z</time>
      </trkpt>
      <trkpt lat="47.80008" lon="-3.50404">
        <ele>46</ele>
        <time>2011-06-19T06:55:46.000Z</time>
      </trkpt>
      <trkpt lat="47.80053" lon="-3.50418">
        <ele>43</ele>
        <time>2011-06-19T06:55:52.000Z</time>
      </trkpt>
      <trkpt lat="47.80083" lon="-3.50429">
        <ele>41</ele>
        <time>2011-06-19T06:55:56.000Z</time>
      </trkpt>
      <trkpt lat="47.80101" lon="-3.50428">
        <ele>41</ele>
        <time>2011-06-19T06:55:58.000Z</time>
      </trkpt>
      <trkpt lat="47.80115" lon="-3.504">
        <ele>40</ele>
        <time>2011-06-19T06:56:02.000Z</time>
      </trkpt>
      <trkpt lat="47.80136" lon="-3.50382">
        <ele>40</ele>
        <time>2011-06-19T06:56:07.000Z</time>
      </trkpt>
      <trkpt lat="47.80147" lon="-3.50382">
        <ele>40</ele>
        <time>2011-06-19T06:56:09.000Z</time>
      </trkpt>
      <trkpt lat="47.80178" lon="-3.50387">
        <ele>41</ele>
        <time>2011-06-19T06:56:15.000Z</time>
      </trkpt>
      <trkpt lat="47.80211" lon="-3.50392">
        <ele>41</ele>
        <time>2011-06-19T06:56:20.000Z</time>
      </trkpt>
      <trkpt lat="47.80229" lon="-3.50396">
        <ele>41</ele>
        <time>2011-06-19T06:56:23.000Z</time>
      </trkpt>
      <trkpt lat="47.80257" lon="-3.50402">
        <ele>44</ele>
        <time>2011-06-19T06:56:28.000Z</time>
      </trkpt>
      <trkpt lat="47.80287" lon="-3.50402">
        <ele>44</ele>
        <time>2011-06-19T06:56:34.000Z</time>
      </trkpt>
      <trkpt lat="47.80318" lon="-3.50405">
        <ele>45</ele>
        <time>2011-06-19T06:56:40.000Z</time>
      </trkpt>
      <trkpt lat="47.80333" lon="-3.50406">
        <ele>46</ele>
        <time>2011-06-19T06:56:43.000Z</time>
      </trkpt>
      <trkpt lat="47.80364" lon="-3.50409">
        <ele>48</ele>
        <time>2011-06-19T06:56:50.000Z</time>
      </trkpt>
      <trkpt lat="47.80389" lon="-3.50409">
        <ele>50</ele>
        <time>2011-06-19T06:56:56.000Z</time>
      </trkpt>
      <trkpt lat="47.80426" lon="-3.50405">
        <ele>53</ele>
        <time>2011-06-19T06:57:05.000Z</time>
      </trkpt>
      <trkpt lat="47.80453" lon="-3.504">
        <ele>53</ele>
        <time>2011-06-19T06:57:11.000Z</time>
      </trkpt>
      <trkpt lat="47.80458" lon="-3.504">
        <ele>53</ele>
        <time>2011-06-19T06:57:12.000Z</time>
      </trkpt>
      <trkpt lat="47.8049" lon="-3.50386">
        <ele>53</ele>
        <time>2011-06-19T06:57:19.000Z</time>
      </trkpt>
      <trkpt lat="47.80518" lon="-3.50374">
        <ele>54</ele>
        <time>2011-06-19T06:57:25.000Z</time>
      </trkpt>
      <trkpt lat="47.80532" lon="-3.50365">
        <ele>53</ele>
        <time>2011-06-19T06:57:29.000Z</time>
      </trkpt>
      <trkpt lat="47.80563" lon="-3.50358">
        <ele>52</ele>
        <time>2011-06-19T06:57:35.000Z</time>
      </trkpt>
      <trkpt lat="47.80581" lon="-3.50356">
        <ele>52</ele>
        <time>2011-06-19T06:57:38.000Z</time>
      </trkpt>
      <trkpt lat="47.80618" lon="-3.50341">
        <ele>51</ele>
        <time>2011-06-19T06:57:44.000Z</time>
      </trkpt>
      <trkpt lat="47.80656" lon="-3.50321">
        <ele>50</ele>
        <time>2011-06-19T06:57:50.000Z</time>
      </trkpt>
      <trkpt lat="47.80701" lon="-3.5029">
        <ele>47</ele>
        <time>2011-06-19T06:57:56.000Z</time>
      </trkpt>
      <trkpt lat="47.80738" lon="-3.5027">
        <ele>43</ele>
        <time>2011-06-19T06:58:00.000Z</time>
      </trkpt>
      <trkpt lat="47.80753" lon="-3.50263">
        <ele>41</ele>
        <time>2011-06-19T06:58:02.000Z</time>
      </trkpt>
      <trkpt lat="47.80776" lon="-3.50262">
        <ele>37</ele>
        <time>2011-06-19T06:58:06.000Z</time>
      </trkpt>
      <trkpt lat="47.8078" lon="-3.5027">
        <ele>37</ele>
        <time>2011-06-19T06:58:08.000Z</time>
      </trkpt>
      <trkpt lat="47.80777" lon="-3.50303">
        <ele>33</ele>
        <time>2011-06-19T06:58:13.000Z</time>
      </trkpt>
      <trkpt lat="47.80774" lon="-3.50317">
        <ele>33</ele>
        <time>2011-06-19T06:58:15.000Z</time>
      </trkpt>
      <trkpt lat="47.80765" lon="-3.50351">
        <ele>33</ele>
        <time>2011-06-19T06:58:20.000Z</time>
      </trkpt>
      <trkpt lat="47.80753" lon="-3.50383">
        <ele>32</ele>
        <time>2011-06-19T06:58:26.000Z</time>
      </trkpt>
      <trkpt lat="47.80745" lon="-3.504">
        <ele>30</ele>
        <time>2011-06-19T06:58:29.000Z</time>
      </trkpt>
      <trkpt lat="47.80729" lon="-3.50422">
        <ele>28</ele>
        <time>2011-06-19T06:58:33.000Z</time>
      </trkpt>
      <trkpt lat="47.80719" lon="-3.50432">
        <ele>27</ele>
        <time>2011-06-19T06:58:36.000Z</time>
      </trkpt>
      <trkpt lat="47.80717" lon="-3.50436">
        <ele>26</ele>
        <time>2011-06-19T06:58:43.000Z</time>
      </trkpt>
      <trkpt lat="47.80715" lon="-3.50436">
        <ele>26</ele>
        <time>2011-06-19T06:58:48.000Z</time>
      </trkpt>
      <trkpt lat="47.80714" lon="-3.50436">
        <ele>26</ele>
        <time>2011-06-19T06:58:50.000Z</time>
      </trkpt>
      <trkpt lat="47.80713" lon="-3.50437">
        <ele>28</ele>
        <time>2011-06-19T06:59:03.000Z</time>
      </trkpt>
      <trkpt lat="47.80703" lon="-3.50447">
        <ele>29</ele>
        <time>2011-06-19T06:59:08.000Z</time>
      </trkpt>
      <trkpt lat="47.80691" lon="-3.50462">
        <ele>28</ele>
        <time>2011-06-19T06:59:11.000Z</time>
      </trkpt>
      <trkpt lat="47.80676" lon="-3.50478">
        <ele>29</ele>
        <time>2011-06-19T06:59:14.000Z</time>
      </trkpt>
      <trkpt lat="47.80671" lon="-3.50482">
        <ele>28</ele>
        <time>2011-06-19T06:59:15.000Z</time>
      </trkpt>
      <trkpt lat="47.80653" lon="-3.50502">
        <ele>27</ele>
        <time>2011-06-19T06:59:19.000Z</time>
      </trkpt>
      <trkpt lat="47.80627" lon="-3.50531">
        <ele>24</ele>
        <time>2011-06-19T06:59:25.000Z</time>
      </trkpt>
      <trkpt lat="47.80622" lon="-3.50536">
        <ele>23</ele>
        <time>2011-06-19T06:59:26.000Z</time>
      </trkpt>
      <trkpt lat="47.80608" lon="-3.5055">
        <ele>22</ele>
        <time>2011-06-19T06:59:29.000Z</time>
      </trkpt>
      <trkpt lat="47.80593" lon="-3.50579">
        <ele>22</ele>
        <time>2011-06-19T06:59:33.000Z</time>
      </trkpt>
      <trkpt lat="47.80584" lon="-3.50607">
        <ele>22</ele>
        <time>2011-06-19T06:59:36.000Z</time>
      </trkpt>
      <trkpt lat="47.80576" lon="-3.50658">
        <ele>23</ele>
        <time>2011-06-19T06:59:41.000Z</time>
      </trkpt>
      <trkpt lat="47.80575" lon="-3.50703">
        <ele>23</ele>
        <time>2011-06-19T06:59:46.000Z</time>
      </trkpt>
      <trkpt lat="47.80579" lon="-3.50733">
        <ele>20</ele>
        <time>2011-06-19T06:59:49.000Z</time>
      </trkpt>
      <trkpt lat="47.80581" lon="-3.50781">
        <ele>22</ele>
        <time>2011-06-19T06:59:54.000Z</time>
      </trkpt>
      <trkpt lat="47.8058" lon="-3.50798">
        <ele>23</ele>
        <time>2011-06-19T06:59:56.000Z</time>
      </trkpt>
      <trkpt lat="47.80578" lon="-3.50815">
        <ele>24</ele>
        <time>2011-06-19T06:59:58.000Z</time>
      </trkpt>
      <trkpt lat="47.80576" lon="-3.50831">
        <ele>27</ele>
        <time>2011-06-19T07:00:01.000Z</time>
      </trkpt>
      <trkpt lat="47.80576" lon="-3.50833">
        <ele>26</ele>
        <time>2011-06-19T07:00:05.000Z</time>
      </trkpt>
      <trkpt lat="47.80577" lon="-3.50831">
        <ele>26</ele>
        <time>2011-06-19T07:00:06.000Z</time>
      </trkpt>
      <trkpt lat="47.80585" lon="-3.50807">
        <ele>25</ele>
        <time>2011-06-19T07:00:12.000Z</time>
      </trkpt>
      <trkpt lat="47.80589" lon="-3.50782">
        <ele>26</ele>
        <time>2011-06-19T07:00:17.000Z</time>
      </trkpt>
      <trkpt lat="47.80598" lon="-3.50765">
        <ele>20</ele>
        <time>2011-06-19T07:00:21.000Z</time>
      </trkpt>
      <trkpt lat="47.80613" lon="-3.50751">
        <ele>21</ele>
        <time>2011-06-19T07:00:26.000Z</time>
      </trkpt>
      <trkpt lat="47.80624" lon="-3.50718">
        <ele>21</ele>
        <time>2011-06-19T07:00:32.000Z</time>
      </trkpt>
      <trkpt lat="47.80629" lon="-3.50698">
        <ele>20</ele>
        <time>2011-06-19T07:00:37.000Z</time>
      </trkpt>
      <trkpt lat="47.80642" lon="-3.50687">
        <ele>22</ele>
        <time>2011-06-19T07:00:43.000Z</time>
      </trkpt>
      <trkpt lat="47.80648" lon="-3.50683">
        <ele>24</ele>
        <time>2011-06-19T07:00:46.000Z</time>
      </trkpt>
      <trkpt lat="47.80655" lon="-3.50678">
        <ele>29</ele>
        <time>2011-06-19T07:00:51.000Z</time>
      </trkpt>
      <trkpt lat="47.8066" lon="-3.50677">
        <ele>32</ele>
        <time>2011-06-19T07:00:54.000Z</time>
      </trkpt>
      <trkpt lat="47.80669" lon="-3.50676">
        <ele>37</ele>
        <time>2011-06-19T07:00:59.000Z</time>
      </trkpt>
      <trkpt lat="47.80683" lon="-3.5068">
        <ele>43</ele>
        <time>2011-06-19T07:01:05.000Z</time>
      </trkpt>
      <trkpt lat="47.8069" lon="-3.50681">
        <ele>45</ele>
        <time>2011-06-19T07:01:08.000Z</time>
      </trkpt>
      <trkpt lat="47.80706" lon="-3.5067">
        <ele>41</ele>
        <time>2011-06-19T07:01:13.000Z</time>
      </trkpt>
      <trkpt lat="47.80728" lon="-3.50642">
        <ele>41</ele>
        <time>2011-06-19T07:01:19.000Z</time>
      </trkpt>
      <trkpt lat="47.80735" lon="-3.50634">
        <ele>41</ele>
        <time>2011-06-19T07:01:21.000Z</time>
      </trkpt>
      <trkpt lat="47.80755" lon="-3.50605">
        <ele>41</ele>
        <time>2011-06-19T07:01:27.000Z</time>
      </trkpt>
      <trkpt lat="47.8077" lon="-3.50589">
        <ele>42</ele>
        <time>2011-06-19T07:01:31.000Z</time>
      </trkpt>
      <trkpt lat="47.8078" lon="-3.50575">
        <ele>41</ele>
        <time>2011-06-19T07:01:34.000Z</time>
      </trkpt>
      <trkpt lat="47.80792" lon="-3.50556">
        <ele>41</ele>
        <time>2011-06-19T07:01:38.000Z</time>
      </trkpt>
      <trkpt lat="47.80828" lon="-3.50505">
        <ele>40</ele>
        <time>2011-06-19T07:01:48.000Z</time>
      </trkpt>
      <trkpt lat="47.80855" lon="-3.50468">
        <ele>40</ele>
        <time>2011-06-19T07:01:55.000Z</time>
      </trkpt>
      <trkpt lat="47.80863" lon="-3.50457">
        <ele>40</ele>
        <time>2011-06-19T07:01:57.000Z</time>
      </trkpt>
      <trkpt lat="47.80878" lon="-3.50435">
        <ele>40</ele>
        <time>2011-06-19T07:02:01.000Z</time>
      </trkpt>
      <trkpt lat="47.80895" lon="-3.50433">
        <ele>39</ele>
        <time>2011-06-19T07:02:05.000Z</time>
      </trkpt>
      <trkpt lat="47.80909" lon="-3.5044">
        <ele>39</ele>
        <time>2011-06-19T07:02:08.000Z</time>
      </trkpt>
      <trkpt lat="47.80944" lon="-3.50452">
        <ele>38</ele>
        <time>2011-06-19T07:02:15.000Z</time>
      </trkpt>
      <trkpt lat="47.80984" lon="-3.50474">
        <ele>36</ele>
        <time>2011-06-19T07:02:22.000Z</time>
      </trkpt>
      <trkpt lat="47.8102" lon="-3.50496">
        <ele>34</ele>
        <time>2011-06-19T07:02:27.000Z</time>
      </trkpt>
      <trkpt lat="47.8106" lon="-3.50522">
        <ele>32</ele>
        <time>2011-06-19T07:02:32.000Z</time>
      </trkpt>
      <trkpt lat="47.81115" lon="-3.50558">
        <ele>30</ele>
        <time>2011-06-19T07:02:39.000Z</time>
      </trkpt>
      <trkpt lat="47.8113" lon="-3.50567">
        <ele>29</ele>
        <time>2011-06-19T07:02:41.000Z</time>
      </trkpt>
      <trkpt lat="47.81168" lon="-3.50605">
        <ele>29</ele>
        <time>2011-06-19T07:02:47.000Z</time>
      </trkpt>
      <trkpt lat="47.81209" lon="-3.50648">
        <ele>30</ele>
        <time>2011-06-19T07:02:54.000Z</time>
      </trkpt>
      <trkpt lat="47.8125" lon="-3.50694">
        <ele>31</ele>
        <time>2011-06-19T07:03:02.000Z</time>
      </trkpt>
      <trkpt lat="47.81291" lon="-3.50741">
        <ele>33</ele>
        <time>2011-06-19T07:03:11.000Z</time>
      </trkpt>
      <trkpt lat="47.81326" lon="-3.50776">
        <ele>34</ele>
        <time>2011-06-19T07:03:19.000Z</time>
      </trkpt>
      <trkpt lat="47.81356" lon="-3.5081">
        <ele>34</ele>
        <time>2011-06-19T07:03:26.000Z</time>
      </trkpt>
      <trkpt lat="47.81388" lon="-3.5084">
        <ele>33</ele>
        <time>2011-06-19T07:03:32.000Z</time>
      </trkpt>
      <trkpt lat="47.814" lon="-3.50848">
        <ele>32</ele>
        <time>2011-06-19T07:03:34.000Z</time>
      </trkpt>
      <trkpt lat="47.81449" lon="-3.50869">
        <ele>31</ele>
        <time>2011-06-19T07:03:42.000Z</time>
      </trkpt>
      <trkpt lat="47.81481" lon="-3.50876">
        <ele>31</ele>
        <time>2011-06-19T07:03:47.000Z</time>
      </trkpt>
      <trkpt lat="47.81506" lon="-3.50859">
        <ele>30</ele>
        <time>2011-06-19T07:03:52.000Z</time>
      </trkpt>
      <trkpt lat="47.81544" lon="-3.50815">
        <ele>30</ele>
        <time>2011-06-19T07:04:01.000Z</time>
      </trkpt>
      <trkpt lat="47.81578" lon="-3.50765">
        <ele>30</ele>
        <time>2011-06-19T07:04:11.000Z</time>
      </trkpt>
      <trkpt lat="47.81599" lon="-3.50731">
        <ele>31</ele>
        <time>2011-06-19T07:04:18.000Z</time>
      </trkpt>
      <trkpt lat="47.81616" lon="-3.50693">
        <ele>31</ele>
        <time>2011-06-19T07:04:25.000Z</time>
      </trkpt>
      <trkpt lat="47.81627" lon="-3.50651">
        <ele>32</ele>
        <time>2011-06-19T07:04:32.000Z</time>
      </trkpt>
      <trkpt lat="47.81637" lon="-3.50594">
        <ele>34</ele>
        <time>2011-06-19T07:04:41.000Z</time>
      </trkpt>
      <trkpt lat="47.81646" lon="-3.50543">
        <ele>35</ele>
        <time>2011-06-19T07:04:49.000Z</time>
      </trkpt>
      <trkpt lat="47.81659" lon="-3.5048">
        <ele>36</ele>
        <time>2011-06-19T07:04:59.000Z</time>
      </trkpt>
      <trkpt lat="47.81664" lon="-3.5046">
        <ele>36</ele>
        <time>2011-06-19T07:05:02.000Z</time>
      </trkpt>
      <trkpt lat="47.81672" lon="-3.50425">
        <ele>36</ele>
        <time>2011-06-19T07:05:08.000Z</time>
      </trkpt>
      <trkpt lat="47.81672" lon="-3.50421">
        <ele>36</ele>
        <time>2011-06-19T07:05:09.000Z</time>
      </trkpt>
      <trkpt lat="47.8168" lon="-3.50395">
        <ele>35</ele>
        <time>2011-06-19T07:05:15.000Z</time>
      </trkpt>
      <trkpt lat="47.8169" lon="-3.50383">
        <ele>35</ele>
        <time>2011-06-19T07:05:20.000Z</time>
      </trkpt>
      <trkpt lat="47.81691" lon="-3.50359">
        <ele>37</ele>
        <time>2011-06-19T07:05:25.000Z</time>
      </trkpt>
      <trkpt lat="47.81704" lon="-3.50329">
        <ele>38</ele>
        <time>2011-06-19T07:05:31.000Z</time>
      </trkpt>
      <trkpt lat="47.81716" lon="-3.50312">
        <ele>40</ele>
        <time>2011-06-19T07:05:35.000Z</time>
      </trkpt>
      <trkpt lat="47.81718" lon="-3.50309">
        <ele>41</ele>
        <time>2011-06-19T07:05:36.000Z</time>
      </trkpt>
      <trkpt lat="47.81722" lon="-3.50288">
        <ele>43</ele>
        <time>2011-06-19T07:05:40.000Z</time>
      </trkpt>
      <trkpt lat="47.81726" lon="-3.50257">
        <ele>46</ele>
        <time>2011-06-19T07:05:45.000Z</time>
      </trkpt>
      <trkpt lat="47.81726" lon="-3.50244">
        <ele>45</ele>
        <time>2011-06-19T07:05:47.000Z</time>
      </trkpt>
      <trkpt lat="47.81733" lon="-3.50218">
        <ele>45</ele>
        <time>2011-06-19T07:05:52.000Z</time>
      </trkpt>
      <trkpt lat="47.81741" lon="-3.50189">
        <ele>45</ele>
        <time>2011-06-19T07:05:57.000Z</time>
      </trkpt>
      <trkpt lat="47.81753" lon="-3.50165">
        <ele>44</ele>
        <time>2011-06-19T07:06:01.000Z</time>
      </trkpt>
      <trkpt lat="47.81766" lon="-3.50149">
        <ele>43</ele>
        <time>2011-06-19T07:06:04.000Z</time>
      </trkpt>
      <trkpt lat="47.81791" lon="-3.50137">
        <ele>46</ele>
        <time>2011-06-19T07:06:09.000Z</time>
      </trkpt>
      <trkpt lat="47.81805" lon="-3.50125">
        <ele>46</ele>
        <time>2011-06-19T07:06:12.000Z</time>
      </trkpt>
      <trkpt lat="47.81833" lon="-3.50098">
        <ele>47</ele>
        <time>2011-06-19T07:06:18.000Z</time>
      </trkpt>
      <trkpt lat="47.81839" lon="-3.50086">
        <ele>46</ele>
        <time>2011-06-19T07:06:20.000Z</time>
      </trkpt>
      <trkpt lat="47.81852" lon="-3.50052">
        <ele>42</ele>
        <time>2011-06-19T07:06:26.000Z</time>
      </trkpt>
      <trkpt lat="47.81855" lon="-3.50047">
        <ele>42</ele>
        <time>2011-06-19T07:06:27.000Z</time>
      </trkpt>
      <trkpt lat="47.81863" lon="-3.50032">
        <ele>41</ele>
        <time>2011-06-19T07:06:30.000Z</time>
      </trkpt>
      <trkpt lat="47.81877" lon="-3.5001">
        <ele>40</ele>
        <time>2011-06-19T07:06:35.000Z</time>
      </trkpt>
      <trkpt lat="47.81889" lon="-3.50006">
        <ele>40</ele>
        <time>2011-06-19T07:06:38.000Z</time>
      </trkpt>
      <trkpt lat="47.81924" lon="-3.49998">
        <ele>41</ele>
        <time>2011-06-19T07:06:44.000Z</time>
      </trkpt>
      <trkpt lat="47.81931" lon="-3.49996">
        <ele>41</ele>
        <time>2011-06-19T07:06:45.000Z</time>
      </trkpt>
      <trkpt lat="47.81956" lon="-3.49993">
        <ele>39</ele>
        <time>2011-06-19T07:06:49.000Z</time>
      </trkpt>
      <trkpt lat="47.82003" lon="-3.49992">
        <ele>39</ele>
        <time>2011-06-19T07:06:56.000Z</time>
      </trkpt>
      <trkpt lat="47.82048" lon="-3.50001">
        <ele>39</ele>
        <time>2011-06-19T07:07:03.000Z</time>
      </trkpt>
      <trkpt lat="47.82089" lon="-3.50009">
        <ele>37</ele>
        <time>2011-06-19T07:07:10.000Z</time>
      </trkpt>
      <trkpt lat="47.82119" lon="-3.50015">
        <ele>36</ele>
        <time>2011-06-19T07:07:16.000Z</time>
      </trkpt>
      <trkpt lat="47.82148" lon="-3.50022">
        <ele>36</ele>
        <time>2011-06-19T07:07:22.000Z</time>
      </trkpt>
      <trkpt lat="47.82162" lon="-3.50025">
        <ele>37</ele>
        <time>2011-06-19T07:07:25.000Z</time>
      </trkpt>
      <trkpt lat="47.8218" lon="-3.50028">
        <ele>37</ele>
        <time>2011-06-19T07:07:29.000Z</time>
      </trkpt>
      <trkpt lat="47.82212" lon="-3.50034">
        <ele>38</ele>
        <time>2011-06-19T07:07:37.000Z</time>
      </trkpt>
      <trkpt lat="47.82245" lon="-3.50041">
        <ele>39</ele>
        <time>2011-06-19T07:07:45.000Z</time>
      </trkpt>
      <trkpt lat="47.8227" lon="-3.50046">
        <ele>40</ele>
        <time>2011-06-19T07:07:51.000Z</time>
      </trkpt>
      <trkpt lat="47.82314" lon="-3.50055">
        <ele>41</ele>
        <time>2011-06-19T07:08:01.000Z</time>
      </trkpt>
      <trkpt lat="47.82355" lon="-3.50063">
        <ele>42</ele>
        <time>2011-06-19T07:08:10.000Z</time>
      </trkpt>
      <trkpt lat="47.82392" lon="-3.5007">
        <ele>42</ele>
        <time>2011-06-19T07:08:17.000Z</time>
      </trkpt>
      <trkpt lat="47.82423" lon="-3.50061">
        <ele>42</ele>
        <time>2011-06-19T07:08:23.000Z</time>
      </trkpt>
      <trkpt lat="47.82452" lon="-3.50047">
        <ele>42</ele>
        <time>2011-06-19T07:08:29.000Z</time>
      </trkpt>
      <trkpt lat="47.82497" lon="-3.50025">
        <ele>42</ele>
        <time>2011-06-19T07:08:38.000Z</time>
      </trkpt>
      <trkpt lat="47.82517" lon="-3.50023">
        <ele>42</ele>
        <time>2011-06-19T07:08:42.000Z</time>
      </trkpt>
      <trkpt lat="47.82542" lon="-3.50036">
        <ele>41</ele>
        <time>2011-06-19T07:08:47.000Z</time>
      </trkpt>
      <trkpt lat="47.82559" lon="-3.50055">
        <ele>41</ele>
        <time>2011-06-19T07:08:51.000Z</time>
      </trkpt>
      <trkpt lat="47.82595" lon="-3.50076">
        <ele>39</ele>
        <time>2011-06-19T07:08:58.000Z</time>
      </trkpt>
      <trkpt lat="47.82617" lon="-3.5008">
        <ele>40</ele>
        <time>2011-06-19T07:09:02.000Z</time>
      </trkpt>
      <trkpt lat="47.82636" lon="-3.50097">
        <ele>40</ele>
        <time>2011-06-19T07:09:06.000Z</time>
      </trkpt>
      <trkpt lat="47.82639" lon="-3.50104">
        <ele>40</ele>
        <time>2011-06-19T07:09:07.000Z</time>
      </trkpt>
      <trkpt lat="47.82652" lon="-3.50147">
        <ele>41</ele>
        <time>2011-06-19T07:09:13.000Z</time>
      </trkpt>
      <trkpt lat="47.82665" lon="-3.50161">
        <ele>41</ele>
        <time>2011-06-19T07:09:17.000Z</time>
      </trkpt>
      <trkpt lat="47.82704" lon="-3.50169">
        <ele>42</ele>
        <time>2011-06-19T07:09:27.000Z</time>
      </trkpt>
      <trkpt lat="47.82721" lon="-3.50171">
        <ele>42</ele>
        <time>2011-06-19T07:09:31.000Z</time>
      </trkpt>
      <trkpt lat="47.8276" lon="-3.50178">
        <ele>42</ele>
        <time>2011-06-19T07:09:40.000Z</time>
      </trkpt>
      <trkpt lat="47.82803" lon="-3.50188">
        <ele>43</ele>
        <time>2011-06-19T07:09:50.000Z</time>
      </trkpt>
      <trkpt lat="47.82827" lon="-3.50195">
        <ele>44</ele>
        <time>2011-06-19T07:09:56.000Z</time>
      </trkpt>
      <trkpt lat="47.82843" lon="-3.50198">
        <ele>44</ele>
        <time>2011-06-19T07:10:00.000Z</time>
      </trkpt>
      <trkpt lat="47.82855" lon="-3.50201">
        <ele>44</ele>
        <time>2011-06-19T07:10:03.000Z</time>
      </trkpt>
      <trkpt lat="47.82871" lon="-3.50205">
        <ele>46</ele>
        <time>2011-06-19T07:10:07.000Z</time>
      </trkpt>
      <trkpt lat="47.82895" lon="-3.50212">
        <ele>47</ele>
        <time>2011-06-19T07:10:13.000Z</time>
      </trkpt>
      <trkpt lat="47.82914" lon="-3.50217">
        <ele>49</ele>
        <time>2011-06-19T07:10:18.000Z</time>
      </trkpt>
      <trkpt lat="47.8293" lon="-3.50221">
        <ele>50</ele>
        <time>2011-06-19T07:10:22.000Z</time>
      </trkpt>
      <trkpt lat="47.82972" lon="-3.50232">
        <ele>53</ele>
        <time>2011-06-19T07:10:32.000Z</time>
      </trkpt>
      <trkpt lat="47.83001" lon="-3.50241">
        <ele>55</ele>
        <time>2011-06-19T07:10:39.000Z</time>
      </trkpt>
      <trkpt lat="47.83018" lon="-3.50239">
        <ele>55</ele>
        <time>2011-06-19T07:10:44.000Z</time>
      </trkpt>
      <trkpt lat="47.83023" lon="-3.50221">
        <ele>53</ele>
        <time>2011-06-19T07:10:47.000Z</time>
      </trkpt>
      <trkpt lat="47.83031" lon="-3.50169">
        <ele>49</ele>
        <time>2011-06-19T07:10:52.000Z</time>
      </trkpt>
      <trkpt lat="47.83049" lon="-3.50128">
        <ele>47</ele>
        <time>2011-06-19T07:10:56.000Z</time>
      </trkpt>
      <trkpt lat="47.83073" lon="-3.50082">
        <ele>44</ele>
        <time>2011-06-19T07:11:01.000Z</time>
      </trkpt>
      <trkpt lat="47.83096" lon="-3.50037">
        <ele>41</ele>
        <time>2011-06-19T07:11:06.000Z</time>
      </trkpt>
      <trkpt lat="47.83123" lon="-3.4999">
        <ele>41</ele>
        <time>2011-06-19T07:11:12.000Z</time>
      </trkpt>
      <trkpt lat="47.83138" lon="-3.49962">
        <ele>41</ele>
        <time>2011-06-19T07:11:16.000Z</time>
      </trkpt>
      <trkpt lat="47.83147" lon="-3.49944">
        <ele>41</ele>
        <time>2011-06-19T07:11:19.000Z</time>
      </trkpt>
      <trkpt lat="47.83159" lon="-3.49939">
        <ele>41</ele>
        <time>2011-06-19T07:11:23.000Z</time>
      </trkpt>
      <trkpt lat="47.83163" lon="-3.49942">
        <ele>41</ele>
        <time>2011-06-19T07:11:24.000Z</time>
      </trkpt>
      <trkpt lat="47.83188" lon="-3.49963">
        <ele>41</ele>
        <time>2011-06-19T07:11:29.000Z</time>
      </trkpt>
      <trkpt lat="47.83227" lon="-3.49995">
        <ele>41</ele>
        <time>2011-06-19T07:11:36.000Z</time>
      </trkpt>
      <trkpt lat="47.83272" lon="-3.50029">
        <ele>41</ele>
        <time>2011-06-19T07:11:43.000Z</time>
      </trkpt>
      <trkpt lat="47.8333" lon="-3.50078">
        <ele>40</ele>
        <time>2011-06-19T07:11:52.000Z</time>
      </trkpt>
      <trkpt lat="47.83374" lon="-3.50102">
        <ele>40</ele>
        <time>2011-06-19T07:11:59.000Z</time>
      </trkpt>
      <trkpt lat="47.8343" lon="-3.50127">
        <ele>41</ele>
        <time>2011-06-19T07:12:08.000Z</time>
      </trkpt>
      <trkpt lat="47.83477" lon="-3.50149">
        <ele>41</ele>
        <time>2011-06-19T07:12:16.000Z</time>
      </trkpt>
      <trkpt lat="47.83521" lon="-3.50169">
        <ele>41</ele>
        <time>2011-06-19T07:12:23.000Z</time>
      </trkpt>
      <trkpt lat="47.83563" lon="-3.50188">
        <ele>41</ele>
        <time>2011-06-19T07:12:30.000Z</time>
      </trkpt>
      <trkpt lat="47.83592" lon="-3.50202">
        <ele>41</ele>
        <time>2011-06-19T07:12:35.000Z</time>
      </trkpt>
      <trkpt lat="47.83598" lon="-3.50205">
        <ele>41</ele>
        <time>2011-06-19T07:12:36.000Z</time>
      </trkpt>
      <trkpt lat="47.83614" lon="-3.5023">
        <ele>42</ele>
        <time>2011-06-19T07:12:40.000Z</time>
      </trkpt>
      <trkpt lat="47.83612" lon="-3.50237">
        <ele>42</ele>
        <time>2011-06-19T07:12:41.000Z</time>
      </trkpt>
      <trkpt lat="47.83596" lon="-3.50288">
        <ele>43</ele>
        <time>2011-06-19T07:12:48.000Z</time>
      </trkpt>
      <trkpt lat="47.83584" lon="-3.50324">
        <ele>43</ele>
        <time>2011-06-19T07:12:53.000Z</time>
      </trkpt>
      <trkpt lat="47.83572" lon="-3.5036">
        <ele>43</ele>
        <time>2011-06-19T07:12:58.000Z</time>
      </trkpt>
      <trkpt lat="47.83553" lon="-3.504">
        <ele>42</ele>
        <time>2011-06-19T07:13:04.000Z</time>
      </trkpt>
      <trkpt lat="47.83547" lon="-3.50413">
        <ele>42</ele>
        <time>2011-06-19T07:13:06.000Z</time>
      </trkpt>
      <trkpt lat="47.83534" lon="-3.50444">
        <ele>42</ele>
        <time>2011-06-19T07:13:11.000Z</time>
      </trkpt>
      <trkpt lat="47.83529" lon="-3.50466">
        <ele>43</ele>
        <time>2011-06-19T07:13:14.000Z</time>
      </trkpt>
      <trkpt lat="47.83521" lon="-3.50501">
        <ele>43</ele>
        <time>2011-06-19T07:13:19.000Z</time>
      </trkpt>
      <trkpt lat="47.83505" lon="-3.50528">
        <ele>44</ele>
        <time>2011-06-19T07:13:24.000Z</time>
      </trkpt>
      <trkpt lat="47.83483" lon="-3.50568">
        <ele>43</ele>
        <time>2011-06-19T07:13:31.000Z</time>
      </trkpt>
      <trkpt lat="47.83477" lon="-3.5058">
        <ele>43</ele>
        <time>2011-06-19T07:13:33.000Z</time>
      </trkpt>
      <trkpt lat="47.83461" lon="-3.50608">
        <ele>42</ele>
        <time>2011-06-19T07:13:38.000Z</time>
      </trkpt>
      <trkpt lat="47.83458" lon="-3.50639">
        <ele>42</ele>
        <time>2011-06-19T07:13:42.000Z</time>
      </trkpt>
      <trkpt lat="47.83464" lon="-3.50662">
        <ele>41</ele>
        <time>2011-06-19T07:13:45.000Z</time>
      </trkpt>
      <trkpt lat="47.83466" lon="-3.50669">
        <ele>41</ele>
        <time>2011-06-19T07:13:46.000Z</time>
      </trkpt>
      <trkpt lat="47.8349" lon="-3.50727">
        <ele>41</ele>
        <time>2011-06-19T07:13:54.000Z</time>
      </trkpt>
      <trkpt lat="47.83515" lon="-3.50782">
        <ele>42</ele>
        <time>2011-06-19T07:14:02.000Z</time>
      </trkpt>
      <trkpt lat="47.83538" lon="-3.50823">
        <ele>42</ele>
        <time>2011-06-19T07:14:08.000Z</time>
      </trkpt>
      <trkpt lat="47.83553" lon="-3.50844">
        <ele>41</ele>
        <time>2011-06-19T07:14:11.000Z</time>
      </trkpt>
      <trkpt lat="47.8357" lon="-3.50862">
        <ele>41</ele>
        <time>2011-06-19T07:14:14.000Z</time>
      </trkpt>
      <trkpt lat="47.83614" lon="-3.50887">
        <ele>41</ele>
        <time>2011-06-19T07:14:21.000Z</time>
      </trkpt>
      <trkpt lat="47.83633" lon="-3.50909">
        <ele>41</ele>
        <time>2011-06-19T07:14:25.000Z</time>
      </trkpt>
      <trkpt lat="47.83655" lon="-3.5096">
        <ele>43</ele>
        <time>2011-06-19T07:14:32.000Z</time>
      </trkpt>
      <trkpt lat="47.8366" lon="-3.50975">
        <ele>42</ele>
        <time>2011-06-19T07:14:34.000Z</time>
      </trkpt>
      <trkpt lat="47.83662" lon="-3.51005">
        <ele>43</ele>
        <time>2011-06-19T07:14:38.000Z</time>
      </trkpt>
      <trkpt lat="47.83659" lon="-3.51074">
        <ele>43</ele>
        <time>2011-06-19T07:14:47.000Z</time>
      </trkpt>
      <trkpt lat="47.8366" lon="-3.51119">
        <ele>43</ele>
        <time>2011-06-19T07:14:53.000Z</time>
      </trkpt>
      <trkpt lat="47.83661" lon="-3.51126">
        <ele>43</ele>
        <time>2011-06-19T07:14:54.000Z</time>
      </trkpt>
      <trkpt lat="47.83669" lon="-3.51152">
        <ele>43</ele>
        <time>2011-06-19T07:14:58.000Z</time>
      </trkpt>
      <trkpt lat="47.83696" lon="-3.51189">
        <ele>42</ele>
        <time>2011-06-19T07:15:05.000Z</time>
      </trkpt>
      <trkpt lat="47.83715" lon="-3.51228">
        <ele>41</ele>
        <time>2011-06-19T07:15:10.000Z</time>
      </trkpt>
      <trkpt lat="47.83742" lon="-3.51256">
        <ele>41</ele>
        <time>2011-06-19T07:15:15.000Z</time>
      </trkpt>
      <trkpt lat="47.83788" lon="-3.51277">
        <ele>39</ele>
        <time>2011-06-19T07:15:22.000Z</time>
      </trkpt>
      <trkpt lat="47.83809" lon="-3.51283">
        <ele>39</ele>
        <time>2011-06-19T07:15:25.000Z</time>
      </trkpt>
      <trkpt lat="47.83837" lon="-3.51279">
        <ele>40</ele>
        <time>2011-06-19T07:15:29.000Z</time>
      </trkpt>
      <trkpt lat="47.83863" lon="-3.51267">
        <ele>42</ele>
        <time>2011-06-19T07:15:33.000Z</time>
      </trkpt>
      <trkpt lat="47.83883" lon="-3.51272">
        <ele>43</ele>
        <time>2011-06-19T07:15:37.000Z</time>
      </trkpt>
      <trkpt lat="47.83888" lon="-3.51285">
        <ele>43</ele>
        <time>2011-06-19T07:15:39.000Z</time>
      </trkpt>
      <trkpt lat="47.8389" lon="-3.51297">
        <ele>43</ele>
        <time>2011-06-19T07:15:41.000Z</time>
      </trkpt>
      <trkpt lat="47.8389" lon="-3.51315">
        <ele>44</ele>
        <time>2011-06-19T07:15:44.000Z</time>
      </trkpt>
      <trkpt lat="47.83889" lon="-3.5132">
        <ele>44</ele>
        <time>2011-06-19T07:15:45.000Z</time>
      </trkpt>
      <trkpt lat="47.83897" lon="-3.5134">
        <ele>43</ele>
        <time>2011-06-19T07:15:49.000Z</time>
      </trkpt>
      <trkpt lat="47.83911" lon="-3.51345">
        <ele>43</ele>
        <time>2011-06-19T07:15:52.000Z</time>
      </trkpt>
      <trkpt lat="47.83929" lon="-3.5135">
        <ele>43</ele>
        <time>2011-06-19T07:15:56.000Z</time>
      </trkpt>
      <trkpt lat="47.83961" lon="-3.51343">
        <ele>42</ele>
        <time>2011-06-19T07:16:03.000Z</time>
      </trkpt>
      <trkpt lat="47.83966" lon="-3.51341">
        <ele>42</ele>
        <time>2011-06-19T07:16:04.000Z</time>
      </trkpt>
      <trkpt lat="47.84001" lon="-3.51325">
        <ele>40</ele>
        <time>2011-06-19T07:16:11.000Z</time>
      </trkpt>
      <trkpt lat="47.84021" lon="-3.5133">
        <ele>39</ele>
        <time>2011-06-19T07:16:15.000Z</time>
      </trkpt>
      <trkpt lat="47.84029" lon="-3.51343">
        <ele>38</ele>
        <time>2011-06-19T07:16:17.000Z</time>
      </trkpt>
      <trkpt lat="47.84034" lon="-3.51358">
        <ele>37</ele>
        <time>2011-06-19T07:16:19.000Z</time>
      </trkpt>
      <trkpt lat="47.8404" lon="-3.51388">
        <ele>35</ele>
        <time>2011-06-19T07:16:24.000Z</time>
      </trkpt>
      <trkpt lat="47.84042" lon="-3.51393">
        <ele>35</ele>
        <time>2011-06-19T07:16:25.000Z</time>
      </trkpt>
      <trkpt lat="47.84051" lon="-3.51426">
        <ele>40</ele>
        <time>2011-06-19T07:16:31.000Z</time>
      </trkpt>
      <trkpt lat="47.84056" lon="-3.51449">
        <ele>41</ele>
        <time>2011-06-19T07:16:35.000Z</time>
      </trkpt>
      <trkpt lat="47.84066" lon="-3.51491">
        <ele>43</ele>
        <time>2011-06-19T07:16:43.000Z</time>
      </trkpt>
      <trkpt lat="47.8407" lon="-3.51512">
        <ele>42</ele>
        <time>2011-06-19T07:16:47.000Z</time>
      </trkpt>
      <trkpt lat="47.84072" lon="-3.51552">
        <ele>42</ele>
        <time>2011-06-19T07:16:53.000Z</time>
      </trkpt>
      <trkpt lat="47.84076" lon="-3.516">
        <ele>39</ele>
        <time>2011-06-19T07:16:59.000Z</time>
      </trkpt>
      <trkpt lat="47.8408" lon="-3.51656">
        <ele>35</ele>
        <time>2011-06-19T07:17:05.000Z</time>
      </trkpt>
      <trkpt lat="47.84085" lon="-3.51714">
        <ele>30</ele>
        <time>2011-06-19T07:17:11.000Z</time>
      </trkpt>
      <trkpt lat="47.84085" lon="-3.5177">
        <ele>28</ele>
        <time>2011-06-19T07:17:17.000Z</time>
      </trkpt>
      <trkpt lat="47.84084" lon="-3.51799">
        <ele>28</ele>
        <time>2011-06-19T07:17:20.000Z</time>
      </trkpt>
      <trkpt lat="47.8408" lon="-3.51816">
        <ele>30</ele>
        <time>2011-06-19T07:17:22.000Z</time>
      </trkpt>
      <trkpt lat="47.84064" lon="-3.51844">
        <ele>29</ele>
        <time>2011-06-19T07:17:26.000Z</time>
      </trkpt>
      <trkpt lat="47.84035" lon="-3.51879">
        <ele>32</ele>
        <time>2011-06-19T07:17:31.000Z</time>
      </trkpt>
      <trkpt lat="47.84016" lon="-3.51917">
        <ele>32</ele>
        <time>2011-06-19T07:17:35.000Z</time>
      </trkpt>
      <trkpt lat="47.84013" lon="-3.51931">
        <ele>31</ele>
        <time>2011-06-19T07:17:36.000Z</time>
      </trkpt>
      <trkpt lat="47.84007" lon="-3.51954">
        <ele>29</ele>
        <time>2011-06-19T07:17:38.000Z</time>
      </trkpt>
      <trkpt lat="47.83985" lon="-3.5199">
        <ele>26</ele>
        <time>2011-06-19T07:17:43.000Z</time>
      </trkpt>
      <trkpt lat="47.8398" lon="-3.52013">
        <ele>27</ele>
        <time>2011-06-19T07:17:47.000Z</time>
      </trkpt>
      <trkpt lat="47.83976" lon="-3.52032">
        <ele>26</ele>
        <time>2011-06-19T07:17:51.000Z</time>
      </trkpt>
      <trkpt lat="47.83984" lon="-3.5206">
        <ele>29</ele>
        <time>2011-06-19T07:17:55.000Z</time>
      </trkpt>
      <trkpt lat="47.8399" lon="-3.52089">
        <ele>32</ele>
        <time>2011-06-19T07:17:59.000Z</time>
      </trkpt>
      <trkpt lat="47.84" lon="-3.52127">
        <ele>30</ele>
        <time>2011-06-19T07:18:04.000Z</time>
      </trkpt>
      <trkpt lat="47.84015" lon="-3.52155">
        <ele>25</ele>
        <time>2011-06-19T07:18:09.000Z</time>
      </trkpt>
      <trkpt lat="47.84021" lon="-3.52177">
        <ele>21</ele>
        <time>2011-06-19T07:18:13.000Z</time>
      </trkpt>
      <trkpt lat="47.84015" lon="-3.52202">
        <ele>22</ele>
        <time>2011-06-19T07:18:16.000Z</time>
      </trkpt>
      <trkpt lat="47.84022" lon="-3.5222">
        <ele>23</ele>
        <time>2011-06-19T07:18:19.000Z</time>
      </trkpt>
      <trkpt lat="47.84039" lon="-3.52231">
        <ele>24</ele>
        <time>2011-06-19T07:18:23.000Z</time>
      </trkpt>
      <trkpt lat="47.84054" lon="-3.52242">
        <ele>23</ele>
        <time>2011-06-19T07:18:26.000Z</time>
      </trkpt>
      <trkpt lat="47.84089" lon="-3.52286">
        <ele>22</ele>
        <time>2011-06-19T07:18:32.000Z</time>
      </trkpt>
      <trkpt lat="47.84119" lon="-3.52307">
        <ele>26</ele>
        <time>2011-06-19T07:18:38.000Z</time>
      </trkpt>
      <trkpt lat="47.84146" lon="-3.52339">
        <ele>27</ele>
        <time>2011-06-19T07:18:41.000Z</time>
      </trkpt>
      <trkpt lat="47.84151" lon="-3.52389">
        <ele>25</ele>
      </trkpt>
      <trkpt lat="47.84142" lon="-3.52434">
        <ele>25</ele>
        <time>2011-06-19T07:21:23.000Z</time>
      </trkpt>
      <trkpt lat="47.8414" lon="-3.52436">
        <ele>25</ele>
        <time>2011-06-19T07:21:24.000Z</time>
      </trkpt>
      <trkpt lat="47.84128" lon="-3.52455">
        <ele>25</ele>
        <time>2011-06-19T07:21:32.000Z</time>
      </trkpt>
      <trkpt lat="47.84122" lon="-3.5247">
        <ele>27</ele>
        <time>2011-06-19T07:21:37.000Z</time>
      </trkpt>
      <trkpt lat="47.84121" lon="-3.52478">
        <ele>28</ele>
        <time>2011-06-19T07:21:39.000Z</time>
      </trkpt>
      <trkpt lat="47.84129" lon="-3.52499">
        <ele>31</ele>
        <time>2011-06-19T07:21:45.000Z</time>
      </trkpt>
      <trkpt lat="47.84139" lon="-3.52521">
        <ele>33</ele>
        <time>2011-06-19T07:21:50.000Z</time>
      </trkpt>
      <trkpt lat="47.84155" lon="-3.52548">
        <ele>32</ele>
        <time>2011-06-19T07:21:55.000Z</time>
      </trkpt>
      <trkpt lat="47.84166" lon="-3.52582">
        <ele>32</ele>
        <time>2011-06-19T07:21:59.000Z</time>
      </trkpt>
      <trkpt lat="47.84157" lon="-3.52611">
        <ele>27</ele>
        <time>2011-06-19T07:22:03.000Z</time>
      </trkpt>
      <trkpt lat="47.84141" lon="-3.52636">
        <ele>25</ele>
        <time>2011-06-19T07:22:07.000Z</time>
      </trkpt>
      <trkpt lat="47.8413" lon="-3.52663">
        <ele>24</ele>
        <time>2011-06-19T07:22:11.000Z</time>
      </trkpt>
      <trkpt lat="47.84125" lon="-3.52671">
        <ele>24</ele>
        <time>2011-06-19T07:22:13.000Z</time>
      </trkpt>
      <trkpt lat="47.84128" lon="-3.52671">
        <ele>25</ele>
        <time>2011-06-19T07:22:17.000Z</time>
      </trkpt>
      <trkpt lat="47.84108" lon="-3.52692">
        <ele>27</ele>
        <time>2011-06-19T07:23:06.000Z</time>
      </trkpt>
      <trkpt lat="47.84092" lon="-3.527">
        <ele>26</ele>
        <time>2011-06-19T07:23:11.000Z</time>
      </trkpt>
      <trkpt lat="47.84077" lon="-3.52711">
        <ele>29</ele>
      </trkpt>
      <trkpt lat="47.84082" lon="-3.52721">
        <ele>24</ele>
        <time>2011-06-19T07:23:16.000Z</time>
      </trkpt>
      <trkpt lat="47.84086" lon="-3.52748">
        <ele>24</ele>
        <time>2011-06-19T07:23:20.000Z</time>
      </trkpt>
      <trkpt lat="47.84088" lon="-3.52782">
        <ele>23</ele>
        <time>2011-06-19T07:23:24.000Z</time>
      </trkpt>
      <trkpt lat="47.84079" lon="-3.5282">
        <ele>22</ele>
        <time>2011-06-19T07:23:28.000Z</time>
      </trkpt>
      <trkpt lat="47.84055" lon="-3.52867">
        <ele>18</ele>
        <time>2011-06-19T07:23:33.000Z</time>
      </trkpt>
      <trkpt lat="47.84034" lon="-3.52902">
        <ele>16</ele>
        <time>2011-06-19T07:23:37.000Z</time>
      </trkpt>
      <trkpt lat="47.84034" lon="-3.52917">
        <ele>14</ele>
        <time>2011-06-19T07:23:41.000Z</time>
      </trkpt>
      <trkpt lat="47.84037" lon="-3.52918">
        <ele>14</ele>
        <time>2011-06-19T07:23:42.000Z</time>
      </trkpt>
      <trkpt lat="47.84061" lon="-3.52932">
        <ele>11</ele>
        <time>2011-06-19T07:23:48.000Z</time>
      </trkpt>
      <trkpt lat="47.84071" lon="-3.52935">
        <ele>11</ele>
        <time>2011-06-19T07:23:51.000Z</time>
      </trkpt>
      <trkpt lat="47.84085" lon="-3.52938">
        <ele>9</ele>
        <time>2011-06-19T07:23:55.000Z</time>
      </trkpt>
      <trkpt lat="47.84108" lon="-3.52946">
        <ele>9</ele>
        <time>2011-06-19T07:24:01.000Z</time>
      </trkpt>
      <trkpt lat="47.84124" lon="-3.52948">
        <ele>7</ele>
        <time>2011-06-19T07:24:06.000Z</time>
      </trkpt>
      <trkpt lat="47.84137" lon="-3.52953">
        <ele>6</ele>
        <time>2011-06-19T07:24:10.000Z</time>
      </trkpt>
      <trkpt lat="47.84138" lon="-3.52961">
        <ele>6</ele>
        <time>2011-06-19T07:24:14.000Z</time>
      </trkpt>
      <trkpt lat="47.84126" lon="-3.52982">
        <ele>3</ele>
        <time>2011-06-19T07:24:20.000Z</time>
      </trkpt>
      <trkpt lat="47.84104" lon="-3.53007">
        <ele>1</ele>
        <time>2011-06-19T07:24:26.000Z</time>
      </trkpt>
      <trkpt lat="47.84084" lon="-3.53032">
        <ele>-1</ele>
        <time>2011-06-19T07:24:32.000Z</time>
      </trkpt>
      <trkpt lat="47.8406" lon="-3.53067">
        <ele>-2</ele>
        <time>2011-06-19T07:24:38.000Z</time>
      </trkpt>
      <trkpt lat="47.84045" lon="-3.53086">
        <ele>-3</ele>
        <time>2011-06-19T07:24:42.000Z</time>
      </trkpt>
      <trkpt lat="47.84035" lon="-3.53101">
        <ele>-3</ele>
        <time>2011-06-19T07:24:45.000Z</time>
      </trkpt>
      <trkpt lat="47.84027" lon="-3.53121">
        <ele>-3</ele>
        <time>2011-06-19T07:24:48.000Z</time>
      </trkpt>
      <trkpt lat="47.84021" lon="-3.53144">
        <ele>-3</ele>
        <time>2011-06-19T07:24:52.000Z</time>
      </trkpt>
      <trkpt lat="47.84009" lon="-3.53183">
        <ele>-1</ele>
        <time>2011-06-19T07:24:59.000Z</time>
      </trkpt>
      <trkpt lat="47.84004" lon="-3.53194">
        <ele>-1</ele>
        <time>2011-06-19T07:25:01.000Z</time>
      </trkpt>
      <trkpt lat="47.83997" lon="-3.53211">
        <ele>-1</ele>
        <time>2011-06-19T07:25:04.000Z</time>
      </trkpt>
      <trkpt lat="47.83982" lon="-3.5322">
        <ele>4.4</ele>
        <time>2011-06-19T07:25:08.000Z</time>
      </trkpt>
      <trkpt lat="47.83958" lon="-3.53208">
        <ele>1</ele>
        <time>2011-06-19T07:25:16.000Z</time>
      </trkpt>
      <trkpt lat="47.83944" lon="-3.53205">
        <ele>3</ele>
        <time>2011-06-19T07:25:20.000Z</time>
      </trkpt>
      <trkpt lat="47.83934" lon="-3.53206">
        <ele>4</ele>
        <time>2011-06-19T07:25:23.000Z</time>
      </trkpt>
      <trkpt lat="47.83928" lon="-3.53207">
        <ele>4</ele>
        <time>2011-06-19T07:25:26.000Z</time>
      </trkpt>
      <trkpt lat="47.83924" lon="-3.532">
        <ele>6</ele>
        <time>2011-06-19T07:25:30.000Z</time>
      </trkpt>
      <trkpt lat="47.83903" lon="-3.53236">
        <ele>22</ele>
        <time>2011-06-19T07:38:10.000Z</time>
      </trkpt>
      <trkpt lat="47.83904" lon="-3.53242">
        <ele>21</ele>
        <time>2011-06-19T07:38:11.000Z</time>
      </trkpt>
      <trkpt lat="47.83918" lon="-3.53288">
        <ele>15</ele>
        <time>2011-06-19T07:38:18.000Z</time>
      </trkpt>
      <trkpt lat="47.83924" lon="-3.53312">
        <ele>13</ele>
        <time>2011-06-19T07:38:21.000Z</time>
      </trkpt>
      <trkpt lat="47.8392" lon="-3.5333">
        <ele>12</ele>
        <time>2011-06-19T07:38:25.000Z</time>
      </trkpt>
      <trkpt lat="47.83916" lon="-3.53333">
        <ele>10</ele>
        <time>2011-06-19T07:38:26.000Z</time>
      </trkpt>
      <trkpt lat="47.83911" lon="-3.53338">
        <ele>9</ele>
        <time>2011-06-19T07:38:28.000Z</time>
      </trkpt>
      <trkpt lat="47.83898" lon="-3.53353">
        <ele>3</ele>
        <time>2011-06-19T07:38:33.000Z</time>
      </trkpt>
      <trkpt lat="47.83892" lon="-3.53361">
        <ele>3</ele>
        <time>2011-06-19T07:38:35.000Z</time>
      </trkpt>
      <trkpt lat="47.83881" lon="-3.5338">
        <ele>2</ele>
        <time>2011-06-19T07:38:40.000Z</time>
      </trkpt>
      <trkpt lat="47.83868" lon="-3.53404">
        <ele>7</ele>
        <time>2011-06-19T07:38:45.000Z</time>
      </trkpt>
      <trkpt lat="47.83858" lon="-3.53419">
        <ele>12</ele>
        <time>2011-06-19T07:38:49.000Z</time>
      </trkpt>
      <trkpt lat="47.83844" lon="-3.53435">
        <ele>16</ele>
        <time>2011-06-19T07:38:54.000Z</time>
      </trkpt>
      <trkpt lat="47.83836" lon="-3.5345">
        <ele>21</ele>
        <time>2011-06-19T07:38:58.000Z</time>
      </trkpt>
      <trkpt lat="47.83826" lon="-3.53466">
        <ele>22</ele>
        <time>2011-06-19T07:39:03.000Z</time>
      </trkpt>
      <trkpt lat="47.83814" lon="-3.53486">
        <ele>21</ele>
        <time>2011-06-19T07:39:09.000Z</time>
      </trkpt>
      <trkpt lat="47.83799" lon="-3.53507">
        <ele>19</ele>
        <time>2011-06-19T07:39:15.000Z</time>
      </trkpt>
      <trkpt lat="47.8378" lon="-3.53524">
        <ele>19</ele>
        <time>2011-06-19T07:39:21.000Z</time>
      </trkpt>
      <trkpt lat="47.83766" lon="-3.53528">
        <ele>15</ele>
        <time>2011-06-19T07:39:25.000Z</time>
      </trkpt>
      <trkpt lat="47.83746" lon="-3.5353">
        <ele>11</ele>
        <time>2011-06-19T07:39:31.000Z</time>
      </trkpt>
      <trkpt lat="47.83739" lon="-3.53532">
        <ele>9</ele>
        <time>2011-06-19T07:39:33.000Z</time>
      </trkpt>
      <trkpt lat="47.8372" lon="-3.53566">
        <ele>17</ele>
        <time>2011-06-19T07:39:38.000Z</time>
      </trkpt>
      <trkpt lat="47.83715" lon="-3.53578">
        <ele>17</ele>
        <time>2011-06-19T07:39:40.000Z</time>
      </trkpt>
      <trkpt lat="47.83712" lon="-3.53582">
        <ele>17</ele>
        <time>2011-06-19T07:39:44.000Z</time>
      </trkpt>
      <trkpt lat="47.8371" lon="-3.53574">
        <ele>20</ele>
        <time>2011-06-19T07:39:50.000Z</time>
      </trkpt>
      <trkpt lat="47.8371" lon="-3.53572">
        <ele>20</ele>
        <time>2011-06-19T07:39:51.000Z</time>
      </trkpt>
      <trkpt lat="47.83712" lon="-3.53564">
        <ele>20</ele>
        <time>2011-06-19T07:39:54.000Z</time>
      </trkpt>
      <trkpt lat="47.83707" lon="-3.53547">
        <ele>22</ele>
        <time>2011-06-19T07:40:02.000Z</time>
      </trkpt>
      <trkpt lat="47.83703" lon="-3.53537">
        <ele>21</ele>
        <time>2011-06-19T07:40:07.000Z</time>
      </trkpt>
      <trkpt lat="47.83701" lon="-3.53535">
        <ele>21</ele>
        <time>2011-06-19T07:40:09.000Z</time>
      </trkpt>
      <trkpt lat="47.83699" lon="-3.53526">
        <ele>21</ele>
        <time>2011-06-19T07:40:13.000Z</time>
      </trkpt>
      <trkpt lat="47.83696" lon="-3.53515">
        <ele>21</ele>
        <time>2011-06-19T07:40:20.000Z</time>
      </trkpt>
      <trkpt lat="47.83698" lon="-3.53509">
        <ele>23</ele>
        <time>2011-06-19T07:40:26.000Z</time>
      </trkpt>
      <trkpt lat="47.83702" lon="-3.53502">
        <ele>24</ele>
        <time>2011-06-19T07:40:32.000Z</time>
      </trkpt>
      <trkpt lat="47.83707" lon="-3.5349">
        <ele>23</ele>
        <time>2011-06-19T07:40:40.000Z</time>
      </trkpt>
      <trkpt lat="47.83713" lon="-3.53479">
        <ele>30</ele>
        <time>2011-06-19T07:40:47.000Z</time>
      </trkpt>
      <trkpt lat="47.8372" lon="-3.53471">
        <ele>34</ele>
        <time>2011-06-19T07:40:54.000Z</time>
      </trkpt>
      <trkpt lat="47.83726" lon="-3.53465">
        <ele>30</ele>
        <time>2011-06-19T07:41:01.000Z</time>
      </trkpt>
      <trkpt lat="47.83733" lon="-3.53457">
        <ele>37</ele>
        <time>2011-06-19T07:41:08.000Z</time>
      </trkpt>
      <trkpt lat="47.83736" lon="-3.53451">
        <ele>36</ele>
        <time>2011-06-19T07:41:13.000Z</time>
      </trkpt>
      <trkpt lat="47.83739" lon="-3.53448">
        <ele>35</ele>
        <time>2011-06-19T07:41:20.000Z</time>
      </trkpt>
      <trkpt lat="47.8374" lon="-3.53446">
        <ele>34</ele>
        <time>2011-06-19T07:41:21.000Z</time>
      </trkpt>
      <trkpt lat="47.83748" lon="-3.53435">
        <ele>31</ele>
        <time>2011-06-19T07:41:26.000Z</time>
      </trkpt>
      <trkpt lat="47.83759" lon="-3.53412">
        <ele>28</ele>
        <time>2011-06-19T07:41:33.000Z</time>
      </trkpt>
      <trkpt lat="47.83762" lon="-3.53407">
        <ele>28</ele>
        <time>2011-06-19T07:41:35.000Z</time>
      </trkpt>
      <trkpt lat="47.8377" lon="-3.53393">
        <ele>27</ele>
        <time>2011-06-19T07:41:39.000Z</time>
      </trkpt>
      <trkpt lat="47.83766" lon="-3.53381">
        <ele>28</ele>
        <time>2011-06-19T07:41:44.000Z</time>
      </trkpt>
      <trkpt lat="47.83758" lon="-3.53372">
        <ele>31</ele>
        <time>2011-06-19T07:41:49.000Z</time>
      </trkpt>
      <trkpt lat="47.83749" lon="-3.53358">
        <ele>38</ele>
        <time>2011-06-19T07:41:55.000Z</time>
      </trkpt>
      <trkpt lat="47.83738" lon="-3.53354">
        <ele>37</ele>
        <time>2011-06-19T07:42:00.000Z</time>
      </trkpt>
      <trkpt lat="47.83732" lon="-3.53354">
        <ele>37</ele>
        <time>2011-06-19T07:42:03.000Z</time>
      </trkpt>
      <trkpt lat="47.83723" lon="-3.53363">
        <ele>38</ele>
        <time>2011-06-19T07:42:09.000Z</time>
      </trkpt>
      <trkpt lat="47.83712" lon="-3.53362">
        <ele>38</ele>
        <time>2011-06-19T07:42:14.000Z</time>
      </trkpt>
      <trkpt lat="47.83709" lon="-3.5336">
        <ele>36</ele>
        <time>2011-06-19T07:42:16.000Z</time>
      </trkpt>
      <trkpt lat="47.83706" lon="-3.53361">
        <ele>39</ele>
        <time>2011-06-19T07:42:22.000Z</time>
      </trkpt>
      <trkpt lat="47.83703" lon="-3.53359">
        <ele>47</ele>
        <time>2011-06-19T07:42:28.000Z</time>
      </trkpt>
      <trkpt lat="47.83701" lon="-3.53358">
        <ele>50</ele>
        <time>2011-06-19T07:42:32.000Z</time>
      </trkpt>
      <trkpt lat="47.837" lon="-3.53357">
        <ele>50</ele>
        <time>2011-06-19T07:42:35.000Z</time>
      </trkpt>
      <trkpt lat="47.83693" lon="-3.53354">
        <ele>49</ele>
        <time>2011-06-19T07:42:39.000Z</time>
      </trkpt>
      <trkpt lat="47.83681" lon="-3.53347">
        <ele>45</ele>
        <time>2011-06-19T07:42:43.000Z</time>
      </trkpt>
      <trkpt lat="47.83675" lon="-3.53341">
        <ele>43</ele>
        <time>2011-06-19T07:42:45.000Z</time>
      </trkpt>
      <trkpt lat="47.83669" lon="-3.53329">
        <ele>40</ele>
        <time>2011-06-19T07:42:50.000Z</time>
      </trkpt>
      <trkpt lat="47.83662" lon="-3.5333">
        <ele>37</ele>
        <time>2011-06-19T07:42:53.000Z</time>
      </trkpt>
      <trkpt lat="47.83653" lon="-3.5333">
        <ele>34</ele>
        <time>2011-06-19T07:42:56.000Z</time>
      </trkpt>
      <trkpt lat="47.83639" lon="-3.53325">
        <ele>30</ele>
        <time>2011-06-19T07:43:01.000Z</time>
      </trkpt>
      <trkpt lat="47.83631" lon="-3.53325">
        <ele>29</ele>
        <time>2011-06-19T07:43:03.000Z</time>
      </trkpt>
      <trkpt lat="47.8362" lon="-3.53325">
        <ele>27</ele>
        <time>2011-06-19T07:43:06.000Z</time>
      </trkpt>
      <trkpt lat="47.83614" lon="-3.53315">
        <ele>27</ele>
        <time>2011-06-19T07:43:11.000Z</time>
      </trkpt>
      <trkpt lat="47.83621" lon="-3.53292">
        <ele>30</ele>
        <time>2011-06-19T07:43:18.000Z</time>
      </trkpt>
      <trkpt lat="47.83628" lon="-3.53273">
        <ele>31</ele>
        <time>2011-06-19T07:43:24.000Z</time>
      </trkpt>
      <trkpt lat="47.83637" lon="-3.53249">
        <ele>32</ele>
        <time>2011-06-19T07:43:31.000Z</time>
      </trkpt>
      <trkpt lat="47.83647" lon="-3.53224">
        <ele>34</ele>
        <time>2011-06-19T07:43:38.000Z</time>
      </trkpt>
      <trkpt lat="47.8366" lon="-3.53194">
        <ele>36</ele>
        <time>2011-06-19T07:43:46.000Z</time>
      </trkpt>
      <trkpt lat="47.83672" lon="-3.53166">
        <ele>38</ele>
        <time>2011-06-19T07:43:53.000Z</time>
      </trkpt>
      <trkpt lat="47.83688" lon="-3.53131">
        <ele>39</ele>
        <time>2011-06-19T07:44:02.000Z</time>
      </trkpt>
      <trkpt lat="47.83706" lon="-3.53087">
        <ele>40</ele>
        <time>2011-06-19T07:44:13.000Z</time>
      </trkpt>
      <trkpt lat="47.83715" lon="-3.53062">
        <ele>41</ele>
        <time>2011-06-19T07:44:19.000Z</time>
      </trkpt>
      <trkpt lat="47.83725" lon="-3.53045">
        <ele>42</ele>
        <time>2011-06-19T07:44:23.000Z</time>
      </trkpt>
      <trkpt lat="47.83736" lon="-3.53024">
        <ele>40</ele>
        <time>2011-06-19T07:44:27.000Z</time>
      </trkpt>
      <trkpt lat="47.83739" lon="-3.53019">
        <ele>41</ele>
        <time>2011-06-19T07:44:28.000Z</time>
      </trkpt>
      <trkpt lat="47.83744" lon="-3.53009">
        <ele>40</ele>
        <time>2011-06-19T07:44:30.000Z</time>
      </trkpt>
      <trkpt lat="47.83764" lon="-3.52979">
        <ele>34</ele>
        <time>2011-06-19T07:44:35.000Z</time>
      </trkpt>
      <trkpt lat="47.83774" lon="-3.52967">
        <ele>34</ele>
        <time>2011-06-19T07:44:37.000Z</time>
      </trkpt>
      <trkpt lat="47.83785" lon="-3.52959">
        <ele>35</ele>
        <time>2011-06-19T07:44:39.000Z</time>
      </trkpt>
      <trkpt lat="47.83823" lon="-3.52927">
        <ele>38</ele>
        <time>2011-06-19T07:44:48.000Z</time>
      </trkpt>
      <trkpt lat="47.83836" lon="-3.52919">
        <ele>40</ele>
        <time>2011-06-19T07:44:51.000Z</time>
      </trkpt>
      <trkpt lat="47.83846" lon="-3.52899">
        <ele>41</ele>
        <time>2011-06-19T07:44:55.000Z</time>
      </trkpt>
      <trkpt lat="47.83841" lon="-3.52881">
        <ele>42</ele>
        <time>2011-06-19T07:44:58.000Z</time>
      </trkpt>
      <trkpt lat="47.8383" lon="-3.52824">
        <ele>43</ele>
        <time>2011-06-19T07:45:06.000Z</time>
      </trkpt>
      <trkpt lat="47.83817" lon="-3.5275">
        <ele>43</ele>
        <time>2011-06-19T07:45:16.000Z</time>
      </trkpt>
      <trkpt lat="47.83802" lon="-3.5267">
        <ele>46</ele>
        <time>2011-06-19T07:45:27.000Z</time>
      </trkpt>
      <trkpt lat="47.83796" lon="-3.52635">
        <ele>47</ele>
        <time>2011-06-19T07:45:32.000Z</time>
      </trkpt>
      <trkpt lat="47.83788" lon="-3.52585">
        <ele>48</ele>
        <time>2011-06-19T07:45:39.000Z</time>
      </trkpt>
      <trkpt lat="47.83773" lon="-3.52505">
        <ele>48</ele>
        <time>2011-06-19T07:45:50.000Z</time>
      </trkpt>
      <trkpt lat="47.83766" lon="-3.52463">
        <ele>48</ele>
        <time>2011-06-19T07:45:56.000Z</time>
      </trkpt>
      <trkpt lat="47.8376" lon="-3.5242">
        <ele>47</ele>
        <time>2011-06-19T07:46:02.000Z</time>
      </trkpt>
      <trkpt lat="47.83754" lon="-3.52388">
        <ele>46</ele>
        <time>2011-06-19T07:46:06.000Z</time>
      </trkpt>
      <trkpt lat="47.83747" lon="-3.52353">
        <ele>44</ele>
        <time>2011-06-19T07:46:10.000Z</time>
      </trkpt>
      <trkpt lat="47.83741" lon="-3.52328">
        <ele>43</ele>
        <time>2011-06-19T07:46:13.000Z</time>
      </trkpt>
      <trkpt lat="47.83727" lon="-3.52311">
        <ele>41</ele>
        <time>2011-06-19T07:46:17.000Z</time>
      </trkpt>
      <trkpt lat="47.83697" lon="-3.523">
        <ele>41</ele>
        <time>2011-06-19T07:46:24.000Z</time>
      </trkpt>
      <trkpt lat="47.83681" lon="-3.52293">
        <ele>41</ele>
        <time>2011-06-19T07:46:28.000Z</time>
      </trkpt>
      <trkpt lat="47.83667" lon="-3.52289">
        <ele>41</ele>
        <time>2011-06-19T07:46:32.000Z</time>
      </trkpt>
      <trkpt lat="47.8364" lon="-3.52289">
        <ele>44</ele>
        <time>2011-06-19T07:46:40.000Z</time>
      </trkpt>
      <trkpt lat="47.83615" lon="-3.52298">
        <ele>48</ele>
        <time>2011-06-19T07:46:48.000Z</time>
      </trkpt>
      <trkpt lat="47.83588" lon="-3.52308">
        <ele>52</ele>
        <time>2011-06-19T07:46:57.000Z</time>
      </trkpt>
      <trkpt lat="47.8357" lon="-3.52314">
        <ele>51</ele>
        <time>2011-06-19T07:47:03.000Z</time>
      </trkpt>
      <trkpt lat="47.83546" lon="-3.5232">
        <ele>51</ele>
        <time>2011-06-19T07:47:11.000Z</time>
      </trkpt>
      <trkpt lat="47.83528" lon="-3.52318">
        <ele>52</ele>
        <time>2011-06-19T07:47:17.000Z</time>
      </trkpt>
      <trkpt lat="47.83501" lon="-3.52313">
        <ele>53</ele>
        <time>2011-06-19T07:47:23.000Z</time>
      </trkpt>
      <trkpt lat="47.83461" lon="-3.52298">
        <ele>55</ele>
        <time>2011-06-19T07:47:30.000Z</time>
      </trkpt>
      <trkpt lat="47.83424" lon="-3.52273">
        <ele>56</ele>
        <time>2011-06-19T07:47:37.000Z</time>
      </trkpt>
      <trkpt lat="47.83408" lon="-3.52263">
        <ele>56</ele>
        <time>2011-06-19T07:47:40.000Z</time>
      </trkpt>
      <trkpt lat="47.83392" lon="-3.52259">
        <ele>57</ele>
        <time>2011-06-19T07:47:43.000Z</time>
      </trkpt>
      <trkpt lat="47.83368" lon="-3.52261">
        <ele>58</ele>
        <time>2011-06-19T07:47:48.000Z</time>
      </trkpt>
      <trkpt lat="47.83348" lon="-3.5226">
        <ele>58</ele>
        <time>2011-06-19T07:47:52.000Z</time>
      </trkpt>
      <trkpt lat="47.83315" lon="-3.5224">
        <ele>58</ele>
        <time>2011-06-19T07:47:59.000Z</time>
      </trkpt>
      <trkpt lat="47.83289" lon="-3.52225">
        <ele>60</ele>
        <time>2011-06-19T07:48:05.000Z</time>
      </trkpt>
      <trkpt lat="47.83267" lon="-3.5221">
        <ele>61</ele>
        <time>2011-06-19T07:48:11.000Z</time>
      </trkpt>
      <trkpt lat="47.83252" lon="-3.522">
        <ele>62</ele>
        <time>2011-06-19T07:48:15.000Z</time>
      </trkpt>
      <trkpt lat="47.83217" lon="-3.52176">
        <ele>65</ele>
        <time>2011-06-19T07:48:25.000Z</time>
      </trkpt>
      <trkpt lat="47.83189" lon="-3.52159">
        <ele>66</ele>
        <time>2011-06-19T07:48:33.000Z</time>
      </trkpt>
      <trkpt lat="47.8317" lon="-3.5215">
        <ele>68</ele>
        <time>2011-06-19T07:48:39.000Z</time>
      </trkpt>
      <trkpt lat="47.83155" lon="-3.5216">
        <ele>68</ele>
        <time>2011-06-19T07:48:44.000Z</time>
      </trkpt>
      <trkpt lat="47.83133" lon="-3.52179">
        <ele>67</ele>
        <time>2011-06-19T07:48:51.000Z</time>
      </trkpt>
      <trkpt lat="47.83112" lon="-3.52196">
        <ele>66</ele>
        <time>2011-06-19T07:48:57.000Z</time>
      </trkpt>
      <trkpt lat="47.83105" lon="-3.52202">
        <ele>66</ele>
        <time>2011-06-19T07:48:59.000Z</time>
      </trkpt>
      <trkpt lat="47.83088" lon="-3.52216">
        <ele>65</ele>
        <time>2011-06-19T07:49:03.000Z</time>
      </trkpt>
      <trkpt lat="47.8307" lon="-3.52231">
        <ele>64</ele>
        <time>2011-06-19T07:49:07.000Z</time>
      </trkpt>
      <trkpt lat="47.83054" lon="-3.52246">
        <ele>62</ele>
        <time>2011-06-19T07:49:10.000Z</time>
      </trkpt>
      <trkpt lat="47.83014" lon="-3.5228">
        <ele>58</ele>
        <time>2011-06-19T07:49:16.000Z</time>
      </trkpt>
      <trkpt lat="47.82985" lon="-3.52306">
        <ele>56</ele>
        <time>2011-06-19T07:49:20.000Z</time>
      </trkpt>
      <trkpt lat="47.8295" lon="-3.52337">
        <ele>54</ele>
        <time>2011-06-19T07:49:25.000Z</time>
      </trkpt>
      <trkpt lat="47.82913" lon="-3.5237">
        <ele>56</ele>
        <time>2011-06-19T07:49:31.000Z</time>
      </trkpt>
      <trkpt lat="47.82895" lon="-3.52385">
        <ele>56</ele>
        <time>2011-06-19T07:49:34.000Z</time>
      </trkpt>
      <trkpt lat="47.82889" lon="-3.5239">
        <ele>56</ele>
        <time>2011-06-19T07:49:35.000Z</time>
      </trkpt>
      <trkpt lat="47.82884" lon="-3.52395">
        <ele>56</ele>
        <time>2011-06-19T07:49:36.000Z</time>
      </trkpt>
      <trkpt lat="47.82875" lon="-3.52404">
        <ele>56</ele>
        <time>2011-06-19T07:49:38.000Z</time>
      </trkpt>
      <trkpt lat="47.82871" lon="-3.52429">
        <ele>54</ele>
        <time>2011-06-19T07:49:42.000Z</time>
      </trkpt>
      <trkpt lat="47.82874" lon="-3.52445">
        <ele>54</ele>
        <time>2011-06-19T07:49:44.000Z</time>
      </trkpt>
      <trkpt lat="47.82891" lon="-3.52521">
        <ele>54</ele>
        <time>2011-06-19T07:49:53.000Z</time>
      </trkpt>
      <trkpt lat="47.82893" lon="-3.52529">
        <ele>54</ele>
        <time>2011-06-19T07:49:54.000Z</time>
      </trkpt>
      <trkpt lat="47.82887" lon="-3.52552">
        <ele>54</ele>
        <time>2011-06-19T07:49:58.000Z</time>
      </trkpt>
      <trkpt lat="47.82883" lon="-3.52554">
        <ele>54</ele>
        <time>2011-06-19T07:49:59.000Z</time>
      </trkpt>
      <trkpt lat="47.82835" lon="-3.52573">
        <ele>53</ele>
        <time>2011-06-19T07:50:07.000Z</time>
      </trkpt>
      <trkpt lat="47.82771" lon="-3.52603">
        <ele>51</ele>
        <time>2011-06-19T07:50:16.000Z</time>
      </trkpt>
      <trkpt lat="47.82743" lon="-3.52617">
        <ele>50</ele>
        <time>2011-06-19T07:50:20.000Z</time>
      </trkpt>
      <trkpt lat="47.82704" lon="-3.52625">
        <ele>50</ele>
        <time>2011-06-19T07:50:26.000Z</time>
      </trkpt>
      <trkpt lat="47.82658" lon="-3.52634">
        <ele>50</ele>
        <time>2011-06-19T07:50:34.000Z</time>
      </trkpt>
      <trkpt lat="47.82609" lon="-3.52649">
        <ele>49</ele>
        <time>2011-06-19T07:50:43.000Z</time>
      </trkpt>
      <trkpt lat="47.82583" lon="-3.52656">
        <ele>49</ele>
        <time>2011-06-19T07:50:48.000Z</time>
      </trkpt>
      <trkpt lat="47.82546" lon="-3.52669">
        <ele>48</ele>
        <time>2011-06-19T07:50:55.000Z</time>
      </trkpt>
      <trkpt lat="47.82516" lon="-3.52673">
        <ele>46</ele>
        <time>2011-06-19T07:51:00.000Z</time>
      </trkpt>
      <trkpt lat="47.82508" lon="-3.52691">
        <ele>44</ele>
        <time>2011-06-19T07:51:04.000Z</time>
      </trkpt>
      <trkpt lat="47.82511" lon="-3.52698">
        <ele>44</ele>
        <time>2011-06-19T07:51:05.000Z</time>
      </trkpt>
      <trkpt lat="47.82539" lon="-3.52754">
        <ele>42</ele>
        <time>2011-06-19T07:51:13.000Z</time>
      </trkpt>
      <trkpt lat="47.8257" lon="-3.52817">
        <ele>41</ele>
        <time>2011-06-19T07:51:21.000Z</time>
      </trkpt>
      <trkpt lat="47.82606" lon="-3.5289">
        <ele>41</ele>
        <time>2011-06-19T07:51:30.000Z</time>
      </trkpt>
      <trkpt lat="47.82625" lon="-3.52927">
        <ele>42</ele>
        <time>2011-06-19T07:51:35.000Z</time>
      </trkpt>
      <trkpt lat="47.82637" lon="-3.52957">
        <ele>42</ele>
        <time>2011-06-19T07:51:39.000Z</time>
      </trkpt>
      <trkpt lat="47.82646" lon="-3.52996">
        <ele>44</ele>
        <time>2011-06-19T07:51:44.000Z</time>
      </trkpt>
      <trkpt lat="47.82645" lon="-3.53034">
        <ele>46</ele>
        <time>2011-06-19T07:51:49.000Z</time>
      </trkpt>
      <trkpt lat="47.82643" lon="-3.53049">
        <ele>47</ele>
        <time>2011-06-19T07:51:51.000Z</time>
      </trkpt>
      <trkpt lat="47.82636" lon="-3.53117">
        <ele>49</ele>
        <time>2011-06-19T07:52:01.000Z</time>
      </trkpt>
      <trkpt lat="47.82635" lon="-3.53131">
        <ele>49</ele>
        <time>2011-06-19T07:52:03.000Z</time>
      </trkpt>
      <trkpt lat="47.8263" lon="-3.53169">
        <ele>50</ele>
        <time>2011-06-19T07:52:08.000Z</time>
      </trkpt>
      <trkpt lat="47.82623" lon="-3.53226">
        <ele>50</ele>
        <time>2011-06-19T07:52:15.000Z</time>
      </trkpt>
      <trkpt lat="47.82621" lon="-3.53244">
        <ele>50</ele>
        <time>2011-06-19T07:52:17.000Z</time>
      </trkpt>
      <trkpt lat="47.82617" lon="-3.53287">
        <ele>48</ele>
        <time>2011-06-19T07:52:22.000Z</time>
      </trkpt>
      <trkpt lat="47.82614" lon="-3.53307">
        <ele>48</ele>
        <time>2011-06-19T07:52:24.000Z</time>
      </trkpt>
      <trkpt lat="47.82607" lon="-3.53397">
        <ele>44</ele>
        <time>2011-06-19T07:52:32.000Z</time>
      </trkpt>
      <trkpt lat="47.82603" lon="-3.5344">
        <ele>42</ele>
        <time>2011-06-19T07:52:36.000Z</time>
      </trkpt>
      <trkpt lat="47.82597" lon="-3.53511">
        <ele>42</ele>
        <time>2011-06-19T07:52:43.000Z</time>
      </trkpt>
      <trkpt lat="47.82592" lon="-3.53558">
        <ele>41</ele>
        <time>2011-06-19T07:52:48.000Z</time>
      </trkpt>
      <trkpt lat="47.82591" lon="-3.53567">
        <ele>42</ele>
        <time>2011-06-19T07:52:49.000Z</time>
      </trkpt>
      <trkpt lat="47.82594" lon="-3.5359">
        <ele>42</ele>
        <time>2011-06-19T07:52:53.000Z</time>
      </trkpt>
      <trkpt lat="47.826" lon="-3.53603">
        <ele>44</ele>
        <time>2011-06-19T07:52:56.000Z</time>
      </trkpt>
      <trkpt lat="47.82598" lon="-3.53623">
        <ele>44</ele>
        <time>2011-06-19T07:53:01.000Z</time>
      </trkpt>
      <trkpt lat="47.82586" lon="-3.53662">
        <ele>42</ele>
        <time>2011-06-19T07:53:08.000Z</time>
      </trkpt>
      <trkpt lat="47.82584" lon="-3.53677">
        <ele>42</ele>
        <time>2011-06-19T07:53:10.000Z</time>
      </trkpt>
      <trkpt lat="47.82583" lon="-3.53692">
        <ele>45</ele>
        <time>2011-06-19T07:53:12.000Z</time>
      </trkpt>
      <trkpt lat="47.82575" lon="-3.53722">
        <ele>53</ele>
        <time>2011-06-19T07:53:16.000Z</time>
      </trkpt>
      <trkpt lat="47.82574" lon="-3.53744">
        <ele>57</ele>
        <time>2011-06-19T07:53:19.000Z</time>
      </trkpt>
      <trkpt lat="47.82576" lon="-3.5376">
        <ele>56</ele>
        <time>2011-06-19T07:53:24.000Z</time>
      </trkpt>
      <trkpt lat="47.82574" lon="-3.53769">
        <ele>56</ele>
        <time>2011-06-19T07:53:26.000Z</time>
      </trkpt>
      <trkpt lat="47.8256" lon="-3.53772">
        <ele>48</ele>
        <time>2011-06-19T07:53:31.000Z</time>
      </trkpt>
      <trkpt lat="47.82553" lon="-3.53771">
        <ele>44</ele>
        <time>2011-06-19T07:53:33.000Z</time>
      </trkpt>
      <trkpt lat="47.82546" lon="-3.53771">
        <ele>41</ele>
        <time>2011-06-19T07:53:35.000Z</time>
      </trkpt>
      <trkpt lat="47.82537" lon="-3.53794">
        <ele>34</ele>
        <time>2011-06-19T07:53:40.000Z</time>
      </trkpt>
      <trkpt lat="47.82532" lon="-3.53816">
        <ele>28</ele>
        <time>2011-06-19T07:53:44.000Z</time>
      </trkpt>
      <trkpt lat="47.8253" lon="-3.53834">
        <ele>27</ele>
        <time>2011-06-19T07:53:48.000Z</time>
      </trkpt>
      <trkpt lat="47.82526" lon="-3.53867">
        <ele>24</ele>
        <time>2011-06-19T07:53:54.000Z</time>
      </trkpt>
      <trkpt lat="47.82524" lon="-3.53881">
        <ele>19</ele>
        <time>2011-06-19T07:53:58.000Z</time>
      </trkpt>
      <trkpt lat="47.82524" lon="-3.5388">
        <ele>17</ele>
        <time>2011-06-19T07:54:00.000Z</time>
      </trkpt>
      <trkpt lat="47.82519" lon="-3.5388">
        <ele>13</ele>
        <time>2011-06-19T07:54:04.000Z</time>
      </trkpt>
      <trkpt lat="47.82516" lon="-3.5388">
        <ele>12</ele>
        <time>2011-06-19T07:54:05.000Z</time>
      </trkpt>
      <trkpt lat="47.82492" lon="-3.53875">
        <ele>3</ele>
        <time>2011-06-19T07:54:10.000Z</time>
      </trkpt>
      <trkpt lat="47.82471" lon="-3.53874">
        <ele>-2</ele>
        <time>2011-06-19T07:54:14.000Z</time>
      </trkpt>
      <trkpt lat="47.82451" lon="-3.5387">
        <ele>-9</ele>
        <time>2011-06-19T07:54:18.000Z</time>
      </trkpt>
      <trkpt lat="47.82438" lon="-3.53869">
        <ele>-11</ele>
        <time>2011-06-19T07:54:21.000Z</time>
      </trkpt>
      <trkpt lat="47.82415" lon="-3.53863">
        <ele>-16</ele>
        <time>2011-06-19T07:54:26.000Z</time>
      </trkpt>
      <trkpt lat="47.82406" lon="-3.53855">
        <ele>-16</ele>
        <time>2011-06-19T07:54:28.000Z</time>
      </trkpt>
      <trkpt lat="47.82399" lon="-3.53846">
        <ele>-17</ele>
        <time>2011-06-19T07:54:30.000Z</time>
      </trkpt>
      <trkpt lat="47.82386" lon="-3.53829">
        <ele>-14</ele>
        <time>2011-06-19T07:54:34.000Z</time>
      </trkpt>
      <trkpt lat="47.82376" lon="-3.53818">
        <ele>-11</ele>
        <time>2011-06-19T07:54:37.000Z</time>
      </trkpt>
      <trkpt lat="47.82363" lon="-3.53804">
        <ele>-6</ele>
        <time>2011-06-19T07:54:41.000Z</time>
      </trkpt>
      <trkpt lat="47.8235" lon="-3.53794">
        <ele>-1</ele>
        <time>2011-06-19T07:54:46.000Z</time>
      </trkpt>
      <trkpt lat="47.82338" lon="-3.53791">
        <ele>3</ele>
        <time>2011-06-19T07:54:49.000Z</time>
      </trkpt>
      <trkpt lat="47.82326" lon="-3.53779">
        <ele>4</ele>
        <time>2011-06-19T07:54:52.000Z</time>
      </trkpt>
      <trkpt lat="47.82308" lon="-3.53752">
        <ele>4</ele>
        <time>2011-06-19T07:54:56.000Z</time>
      </trkpt>
      <trkpt lat="47.82287" lon="-3.53733">
        <ele>5</ele>
        <time>2011-06-19T07:55:01.000Z</time>
      </trkpt>
      <trkpt lat="47.8228" lon="-3.53726">
        <ele>7</ele>
        <time>2011-06-19T07:55:05.000Z</time>
      </trkpt>
      <trkpt lat="47.82278" lon="-3.53722">
        <ele>8</ele>
        <time>2011-06-19T07:55:09.000Z</time>
      </trkpt>
      <trkpt lat="47.82279" lon="-3.53716">
        <ele>8</ele>
        <time>2011-06-19T07:55:12.000Z</time>
      </trkpt>
      <trkpt lat="47.82273" lon="-3.53698">
        <ele>10</ele>
        <time>2011-06-19T07:55:16.000Z</time>
      </trkpt>
      <trkpt lat="47.82269" lon="-3.53684">
        <ele>11</ele>
        <time>2011-06-19T07:55:21.000Z</time>
      </trkpt>
      <trkpt lat="47.82269" lon="-3.5368">
        <ele>11</ele>
        <time>2011-06-19T07:55:23.000Z</time>
      </trkpt>
      <trkpt lat="47.8227" lon="-3.53672">
        <ele>14</ele>
        <time>2011-06-19T07:55:28.000Z</time>
      </trkpt>
      <trkpt lat="47.82275" lon="-3.53668">
        <ele>14</ele>
        <time>2011-06-19T07:55:36.000Z</time>
      </trkpt>
      <trkpt lat="47.82278" lon="-3.53665">
        <ele>16</ele>
        <time>2011-06-19T07:55:43.000Z</time>
      </trkpt>
      <trkpt lat="47.82283" lon="-3.53659">
        <ele>15</ele>
        <time>2011-06-19T07:55:49.000Z</time>
      </trkpt>
      <trkpt lat="47.82286" lon="-3.53649">
        <ele>11</ele>
        <time>2011-06-19T07:55:54.000Z</time>
      </trkpt>
      <trkpt lat="47.82294" lon="-3.53632">
        <ele>11</ele>
        <time>2011-06-19T07:55:58.000Z</time>
      </trkpt>
      <trkpt lat="47.82299" lon="-3.53617">
        <ele>9</ele>
        <time>2011-06-19T07:56:02.000Z</time>
      </trkpt>
      <trkpt lat="47.8231" lon="-3.53588">
        <ele>10</ele>
        <time>2011-06-19T07:56:09.000Z</time>
      </trkpt>
      <trkpt lat="47.82319" lon="-3.53574">
        <ele>12</ele>
        <time>2011-06-19T07:56:14.000Z</time>
      </trkpt>
      <trkpt lat="47.82324" lon="-3.53566">
        <ele>11</ele>
        <time>2011-06-19T07:56:17.000Z</time>
      </trkpt>
      <trkpt lat="47.82327" lon="-3.53549">
        <ele>14</ele>
        <time>2011-06-19T07:56:22.000Z</time>
      </trkpt>
      <trkpt lat="47.82321" lon="-3.53542">
        <ele>15</ele>
        <time>2011-06-19T07:56:26.000Z</time>
      </trkpt>
      <trkpt lat="47.82313" lon="-3.53539">
        <ele>18</ele>
        <time>2011-06-19T07:56:30.000Z</time>
      </trkpt>
      <trkpt lat="47.82302" lon="-3.53536">
        <ele>19</ele>
        <time>2011-06-19T07:56:34.000Z</time>
      </trkpt>
      <trkpt lat="47.82298" lon="-3.53537">
        <ele>18</ele>
        <time>2011-06-19T07:56:36.000Z</time>
      </trkpt>
      <trkpt lat="47.8229" lon="-3.53543">
        <ele>16</ele>
        <time>2011-06-19T07:56:39.000Z</time>
      </trkpt>
      <trkpt lat="47.82278" lon="-3.53564">
        <ele>13</ele>
        <time>2011-06-19T07:56:44.000Z</time>
      </trkpt>
      <trkpt lat="47.82267" lon="-3.53578">
        <ele>10</ele>
        <time>2011-06-19T07:56:49.000Z</time>
      </trkpt>
      <trkpt lat="47.82261" lon="-3.53583">
        <ele>6</ele>
        <time>2011-06-19T07:56:54.000Z</time>
      </trkpt>
      <trkpt lat="47.82259" lon="-3.53585">
        <ele>4</ele>
        <time>2011-06-19T07:56:56.000Z</time>
      </trkpt>
      <trkpt lat="47.82254" lon="-3.53584">
        <ele>5.1</ele>
        <time>2011-06-19T07:57:01.000Z</time>
      </trkpt>
      <trkpt lat="47.82246" lon="-3.53559">
        <ele>7.7</ele>
        <time>2011-06-19T07:57:06.000Z</time>
      </trkpt>
      <trkpt lat="47.82235" lon="-3.5353">
        <ele>7.2</ele>
        <time>2011-06-19T07:57:11.000Z</time>
      </trkpt>
      <trkpt lat="47.82212" lon="-3.53499">
        <ele>3</ele>
        <time>2011-06-19T07:57:17.000Z</time>
      </trkpt>
      <trkpt lat="47.8221" lon="-3.53482">
        <ele>4</ele>
        <time>2011-06-19T07:57:21.000Z</time>
      </trkpt>
      <trkpt lat="47.82218" lon="-3.53474">
        <ele>2</ele>
        <time>2011-06-19T07:57:27.000Z</time>
      </trkpt>
      <trkpt lat="47.82227" lon="-3.53463">
        <ele>2</ele>
        <time>2011-06-19T07:57:32.000Z</time>
      </trkpt>
      <trkpt lat="47.8223" lon="-3.53459">
        <ele>2</ele>
        <time>2011-06-19T07:57:33.000Z</time>
      </trkpt>
      <trkpt lat="47.8224" lon="-3.53436">
        <ele>8</ele>
        <time>2011-06-19T07:57:39.000Z</time>
      </trkpt>
      <trkpt lat="47.82243" lon="-3.53423">
        <ele>12</ele>
        <time>2011-06-19T07:57:44.000Z</time>
      </trkpt>
      <trkpt lat="47.82237" lon="-3.53415">
        <ele>12</ele>
        <time>2011-06-19T07:57:49.000Z</time>
      </trkpt>
      <trkpt lat="47.82225" lon="-3.53425">
        <ele>10</ele>
        <time>2011-06-19T07:57:53.000Z</time>
      </trkpt>
      <trkpt lat="47.82215" lon="-3.53431">
        <ele>10</ele>
        <time>2011-06-19T07:57:55.000Z</time>
      </trkpt>
      <trkpt lat="47.82204" lon="-3.53438">
        <ele>9</ele>
        <time>2011-06-19T07:57:57.000Z</time>
      </trkpt>
      <trkpt lat="47.82183" lon="-3.53438">
        <ele>9</ele>
        <time>2011-06-19T07:58:01.000Z</time>
      </trkpt>
      <trkpt lat="47.82178" lon="-3.53428">
        <ele>10</ele>
        <time>2011-06-19T07:58:03.000Z</time>
      </trkpt>
      <trkpt lat="47.82173" lon="-3.53417">
        <ele>10</ele>
        <time>2011-06-19T07:58:05.000Z</time>
      </trkpt>
      <trkpt lat="47.82164" lon="-3.53399">
        <ele>11</ele>
        <time>2011-06-19T07:58:08.000Z</time>
      </trkpt>
      <trkpt lat="47.82145" lon="-3.53371">
        <ele>14</ele>
        <time>2011-06-19T07:58:13.000Z</time>
      </trkpt>
      <trkpt lat="47.82131" lon="-3.53342">
        <ele>14</ele>
        <time>2011-06-19T07:58:18.000Z</time>
      </trkpt>
      <trkpt lat="47.82108" lon="-3.53319">
        <ele>15</ele>
        <time>2011-06-19T07:58:23.000Z</time>
      </trkpt>
      <trkpt lat="47.8209" lon="-3.53297">
        <ele>15</ele>
        <time>2011-06-19T07:58:27.000Z</time>
      </trkpt>
      <trkpt lat="47.82071" lon="-3.53277">
        <ele>15</ele>
        <time>2011-06-19T07:58:32.000Z</time>
      </trkpt>
      <trkpt lat="47.82053" lon="-3.53259">
        <ele>16</ele>
        <time>2011-06-19T07:58:38.000Z</time>
      </trkpt>
      <trkpt lat="47.82041" lon="-3.5325">
        <ele>17</ele>
        <time>2011-06-19T07:58:42.000Z</time>
      </trkpt>
      <trkpt lat="47.8203" lon="-3.53244">
        <ele>18</ele>
        <time>2011-06-19T07:58:47.000Z</time>
      </trkpt>
      <trkpt lat="47.82024" lon="-3.53239">
        <ele>18</ele>
        <time>2011-06-19T07:58:53.000Z</time>
      </trkpt>
      <trkpt lat="47.82023" lon="-3.53235">
        <ele>17</ele>
        <time>2011-06-19T07:58:58.000Z</time>
      </trkpt>
      <trkpt lat="47.82022" lon="-3.53234">
        <ele>22</ele>
        <time>2011-06-19T07:59:07.000Z</time>
      </trkpt>
      <trkpt lat="47.82021" lon="-3.53225">
        <ele>22</ele>
        <time>2011-06-19T07:59:15.000Z</time>
      </trkpt>
      <trkpt lat="47.82016" lon="-3.53211">
        <ele>25</ele>
        <time>2011-06-19T07:59:19.000Z</time>
      </trkpt>
      <trkpt lat="47.82015" lon="-3.53208">
        <ele>26</ele>
        <time>2011-06-19T07:59:20.000Z</time>
      </trkpt>
      <trkpt lat="47.82009" lon="-3.53198">
        <ele>27</ele>
        <time>2011-06-19T07:59:25.000Z</time>
      </trkpt>
      <trkpt lat="47.82" lon="-3.53194">
        <ele>30</ele>
        <time>2011-06-19T07:59:31.000Z</time>
      </trkpt>
      <trkpt lat="47.81995" lon="-3.53185">
        <ele>29</ele>
        <time>2011-06-19T07:59:37.000Z</time>
      </trkpt>
      <trkpt lat="47.81989" lon="-3.53174">
        <ele>31</ele>
        <time>2011-06-19T07:59:44.000Z</time>
      </trkpt>
      <trkpt lat="47.8198" lon="-3.53163">
        <ele>37</ele>
        <time>2011-06-19T07:59:51.000Z</time>
      </trkpt>
      <trkpt lat="47.81973" lon="-3.53161">
        <ele>40</ele>
        <time>2011-06-19T07:59:57.000Z</time>
      </trkpt>
      <trkpt lat="47.81972" lon="-3.53162">
        <ele>40</ele>
        <time>2011-06-19T07:59:58.000Z</time>
      </trkpt>
      <trkpt lat="47.81967" lon="-3.5317">
        <ele>37</ele>
        <time>2011-06-19T08:00:04.000Z</time>
      </trkpt>
      <trkpt lat="47.81964" lon="-3.53174">
        <ele>37</ele>
        <time>2011-06-19T08:00:07.000Z</time>
      </trkpt>
      <trkpt lat="47.81958" lon="-3.53183">
        <ele>35</ele>
        <time>2011-06-19T08:00:12.000Z</time>
      </trkpt>
      <trkpt lat="47.81951" lon="-3.53196">
        <ele>33</ele>
        <time>2011-06-19T08:00:17.000Z</time>
      </trkpt>
      <trkpt lat="47.81946" lon="-3.53218">
        <ele>30</ele>
        <time>2011-06-19T08:00:21.000Z</time>
      </trkpt>
      <trkpt lat="47.81945" lon="-3.53223">
        <ele>29</ele>
        <time>2011-06-19T08:00:22.000Z</time>
      </trkpt>
      <trkpt lat="47.81929" lon="-3.53241">
        <ele>28</ele>
        <time>2011-06-19T08:00:26.000Z</time>
      </trkpt>
      <trkpt lat="47.8192" lon="-3.53248">
        <ele>27</ele>
        <time>2011-06-19T08:00:28.000Z</time>
      </trkpt>
      <trkpt lat="47.819" lon="-3.53262">
        <ele>25</ele>
        <time>2011-06-19T08:00:32.000Z</time>
      </trkpt>
      <trkpt lat="47.8189" lon="-3.53272">
        <ele>25</ele>
        <time>2011-06-19T08:00:35.000Z</time>
      </trkpt>
      <trkpt lat="47.81885" lon="-3.5328">
        <ele>23</ele>
        <time>2011-06-19T08:00:37.000Z</time>
      </trkpt>
      <trkpt lat="47.8188" lon="-3.53289">
        <ele>23</ele>
        <time>2011-06-19T08:00:39.000Z</time>
      </trkpt>
      <trkpt lat="47.81872" lon="-3.53304">
        <ele>27</ele>
        <time>2011-06-19T08:00:44.000Z</time>
      </trkpt>
      <trkpt lat="47.81861" lon="-3.53314">
        <ele>25</ele>
        <time>2011-06-19T08:00:49.000Z</time>
      </trkpt>
      <trkpt lat="47.81849" lon="-3.53326">
        <ele>26</ele>
        <time>2011-06-19T08:00:54.000Z</time>
      </trkpt>
      <trkpt lat="47.81845" lon="-3.53344">
        <ele>31</ele>
        <time>2011-06-19T08:00:59.000Z</time>
      </trkpt>
      <trkpt lat="47.81839" lon="-3.53368">
        <ele>30</ele>
        <time>2011-06-19T08:01:03.000Z</time>
      </trkpt>
      <trkpt lat="47.81832" lon="-3.53381">
        <ele>29</ele>
        <time>2011-06-19T08:01:06.000Z</time>
      </trkpt>
      <trkpt lat="47.81822" lon="-3.53399">
        <ele>28</ele>
        <time>2011-06-19T08:01:10.000Z</time>
      </trkpt>
      <trkpt lat="47.8182" lon="-3.53404">
        <ele>28</ele>
        <time>2011-06-19T08:01:11.000Z</time>
      </trkpt>
      <trkpt lat="47.81805" lon="-3.53417">
        <ele>26</ele>
        <time>2011-06-19T08:01:16.000Z</time>
      </trkpt>
      <trkpt lat="47.81802" lon="-3.53426">
        <ele>24</ele>
        <time>2011-06-19T08:01:18.000Z</time>
      </trkpt>
      <trkpt lat="47.81797" lon="-3.5344">
        <ele>23</ele>
        <time>2011-06-19T08:01:23.000Z</time>
      </trkpt>
      <trkpt lat="47.81795" lon="-3.53443">
        <ele>21</ele>
        <time>2011-06-19T08:01:24.000Z</time>
      </trkpt>
      <trkpt lat="47.81791" lon="-3.53455">
        <ele>17</ele>
        <time>2011-06-19T08:01:29.000Z</time>
      </trkpt>
      <trkpt lat="47.81789" lon="-3.53457">
        <ele>15</ele>
        <time>2011-06-19T08:01:34.000Z</time>
      </trkpt>
      <trkpt lat="47.81785" lon="-3.53467">
        <ele>14</ele>
        <time>2011-06-19T08:01:39.000Z</time>
      </trkpt>
      <trkpt lat="47.81786" lon="-3.5347">
        <ele>15</ele>
        <time>2011-06-19T08:01:46.000Z</time>
      </trkpt>
      <trkpt lat="47.81787" lon="-3.5347">
        <ele>16</ele>
        <time>2011-06-19T08:01:47.000Z</time>
      </trkpt>
      <trkpt lat="47.81794" lon="-3.53474">
        <ele>9</ele>
        <time>2011-06-19T08:01:55.000Z</time>
      </trkpt>
      <trkpt lat="47.81787" lon="-3.53478">
        <ele>4</ele>
        <time>2011-06-19T08:02:01.000Z</time>
      </trkpt>
      <trkpt lat="47.81786" lon="-3.5348">
        <ele>3</ele>
        <time>2011-06-19T08:02:03.000Z</time>
      </trkpt>
      <trkpt lat="47.81784" lon="-3.53488">
        <ele>2</ele>
        <time>2011-06-19T08:02:08.000Z</time>
      </trkpt>
      <trkpt lat="47.81784" lon="-3.5349">
        <ele>6.2</ele>
        <time>2011-06-19T08:02:12.000Z</time>
      </trkpt>
      <trkpt lat="47.81778" lon="-3.53498">
        <ele>1</ele>
        <time>2011-06-19T08:02:17.000Z</time>
      </trkpt>
      <trkpt lat="47.81771" lon="-3.53504">
        <ele>5.2</ele>
        <time>2011-06-19T08:02:22.000Z</time>
      </trkpt>
      <trkpt lat="47.81758" lon="-3.53511">
        <ele>2</ele>
        <time>2011-06-19T08:02:27.000Z</time>
      </trkpt>
      <trkpt lat="47.81745" lon="-3.53517">
        <ele>1</ele>
        <time>2011-06-19T08:02:33.000Z</time>
      </trkpt>
      <trkpt lat="47.81744" lon="-3.53518">
        <ele>1</ele>
        <time>2011-06-19T08:02:34.000Z</time>
      </trkpt>
      <trkpt lat="47.81741" lon="-3.5352">
        <ele>4</ele>
        <time>2011-06-19T08:02:37.000Z</time>
      </trkpt>
      <trkpt lat="47.81734" lon="-3.53524">
        <ele>5</ele>
        <time>2011-06-19T08:02:42.000Z</time>
      </trkpt>
      <trkpt lat="47.81726" lon="-3.53529">
        <ele>3</ele>
        <time>2011-06-19T08:02:45.000Z</time>
      </trkpt>
      <trkpt lat="47.81719" lon="-3.53536">
        <ele>3</ele>
        <time>2011-06-19T08:02:50.000Z</time>
      </trkpt>
      <trkpt lat="47.81717" lon="-3.53538">
        <ele>3</ele>
        <time>2011-06-19T08:02:54.000Z</time>
      </trkpt>
      <trkpt lat="47.81717" lon="-3.53537">
        <ele>3</ele>
        <time>2011-06-19T08:02:57.000Z</time>
      </trkpt>
      <trkpt lat="47.81719" lon="-3.53534">
        <ele>2</ele>
        <time>2011-06-19T08:03:04.000Z</time>
      </trkpt>
      <trkpt lat="47.81716" lon="-3.53536">
        <ele>3</ele>
        <time>2011-06-19T08:03:09.000Z</time>
      </trkpt>
      <trkpt lat="47.81713" lon="-3.53538">
        <ele>5</ele>
        <time>2011-06-19T08:03:16.000Z</time>
      </trkpt>
      <trkpt lat="47.8171" lon="-3.53542">
        <ele>6</ele>
        <time>2011-06-19T08:03:20.000Z</time>
      </trkpt>
      <trkpt lat="47.81693" lon="-3.53563">
        <ele>6</ele>
        <time>2011-06-19T08:03:25.000Z</time>
      </trkpt>
      <trkpt lat="47.81678" lon="-3.53569">
        <ele>8</ele>
        <time>2011-06-19T08:03:29.000Z</time>
      </trkpt>
      <trkpt lat="47.81672" lon="-3.53573">
        <ele>6</ele>
        <time>2011-06-19T08:03:31.000Z</time>
      </trkpt>
      <trkpt lat="47.81659" lon="-3.53576">
        <ele>8</ele>
        <time>2011-06-19T08:03:35.000Z</time>
      </trkpt>
      <trkpt lat="47.81645" lon="-3.53583">
        <ele>6</ele>
        <time>2011-06-19T08:03:39.000Z</time>
      </trkpt>
      <trkpt lat="47.81622" lon="-3.5359">
        <ele>7</ele>
        <time>2011-06-19T08:03:44.000Z</time>
      </trkpt>
      <trkpt lat="47.8161" lon="-3.53587">
        <ele>7</ele>
        <time>2011-06-19T08:03:47.000Z</time>
      </trkpt>
      <trkpt lat="47.81602" lon="-3.53584">
        <ele>7</ele>
        <time>2011-06-19T08:03:50.000Z</time>
      </trkpt>
      <trkpt lat="47.81587" lon="-3.53572">
        <ele>7</ele>
        <time>2011-06-19T08:03:55.000Z</time>
      </trkpt>
      <trkpt lat="47.81579" lon="-3.53559">
        <ele>7</ele>
        <time>2011-06-19T08:03:59.000Z</time>
      </trkpt>
      <trkpt lat="47.81568" lon="-3.53553">
        <ele>8</ele>
        <time>2011-06-19T08:04:02.000Z</time>
      </trkpt>
      <trkpt lat="47.81564" lon="-3.53552">
        <ele>8</ele>
        <time>2011-06-19T08:04:03.000Z</time>
      </trkpt>
      <trkpt lat="47.81544" lon="-3.53542">
        <ele>11</ele>
        <time>2011-06-19T08:04:09.000Z</time>
      </trkpt>
      <trkpt lat="47.81526" lon="-3.53532">
        <ele>11</ele>
        <time>2011-06-19T08:04:14.000Z</time>
      </trkpt>
      <trkpt lat="47.81509" lon="-3.53516">
        <ele>10</ele>
        <time>2011-06-19T08:04:19.000Z</time>
      </trkpt>
      <trkpt lat="47.81501" lon="-3.53509">
        <ele>9</ele>
        <time>2011-06-19T08:04:21.000Z</time>
      </trkpt>
      <trkpt lat="47.81477" lon="-3.53498">
        <ele>8</ele>
        <time>2011-06-19T08:04:27.000Z</time>
      </trkpt>
      <trkpt lat="47.81462" lon="-3.53478">
        <ele>7</ele>
        <time>2011-06-19T08:04:32.000Z</time>
      </trkpt>
      <trkpt lat="47.81456" lon="-3.53461">
        <ele>7</ele>
        <time>2011-06-19T08:04:35.000Z</time>
      </trkpt>
      <trkpt lat="47.81439" lon="-3.53431">
        <ele>9</ele>
        <time>2011-06-19T08:04:41.000Z</time>
      </trkpt>
      <trkpt lat="47.81436" lon="-3.53426">
        <ele>9</ele>
        <time>2011-06-19T08:04:42.000Z</time>
      </trkpt>
      <trkpt lat="47.81423" lon="-3.53407">
        <ele>10</ele>
        <time>2011-06-19T08:04:46.000Z</time>
      </trkpt>
      <trkpt lat="47.81408" lon="-3.53371">
        <ele>10</ele>
        <time>2011-06-19T08:04:51.000Z</time>
      </trkpt>
      <trkpt lat="47.81398" lon="-3.53343">
        <ele>11</ele>
        <time>2011-06-19T08:04:56.000Z</time>
      </trkpt>
      <trkpt lat="47.81395" lon="-3.53333">
        <ele>12</ele>
        <time>2011-06-19T08:04:58.000Z</time>
      </trkpt>
      <trkpt lat="47.81389" lon="-3.5331">
        <ele>15</ele>
        <time>2011-06-19T08:05:03.000Z</time>
      </trkpt>
      <trkpt lat="47.81385" lon="-3.53285">
        <ele>16</ele>
        <time>2011-06-19T08:05:07.000Z</time>
      </trkpt>
      <trkpt lat="47.81377" lon="-3.53271">
        <ele>16</ele>
        <time>2011-06-19T08:05:10.000Z</time>
      </trkpt>
      <trkpt lat="47.81372" lon="-3.53261">
        <ele>16</ele>
        <time>2011-06-19T08:05:12.000Z</time>
      </trkpt>
      <trkpt lat="47.81363" lon="-3.53231">
        <ele>17</ele>
        <time>2011-06-19T08:05:18.000Z</time>
      </trkpt>
      <trkpt lat="47.81362" lon="-3.53209">
        <ele>17</ele>
        <time>2011-06-19T08:05:22.000Z</time>
      </trkpt>
      <trkpt lat="47.81363" lon="-3.53173">
        <ele>16</ele>
        <time>2011-06-19T08:05:27.000Z</time>
      </trkpt>
      <trkpt lat="47.8137" lon="-3.53152">
        <ele>16</ele>
        <time>2011-06-19T08:05:32.000Z</time>
      </trkpt>
      <trkpt lat="47.81365" lon="-3.53147">
        <ele>13</ele>
        <time>2011-06-19T08:05:35.000Z</time>
      </trkpt>
      <trkpt lat="47.81352" lon="-3.53137">
        <ele>13</ele>
        <time>2011-06-19T08:05:40.000Z</time>
      </trkpt>
      <trkpt lat="47.81345" lon="-3.53117">
        <ele>10</ele>
        <time>2011-06-19T08:05:46.000Z</time>
      </trkpt>
      <trkpt lat="47.81342" lon="-3.53091">
        <ele>8</ele>
        <time>2011-06-19T08:05:52.000Z</time>
      </trkpt>
      <trkpt lat="47.81335" lon="-3.53067">
        <ele>8</ele>
        <time>2011-06-19T08:05:58.000Z</time>
      </trkpt>
      <trkpt lat="47.81336" lon="-3.53053">
        <ele>10</ele>
        <time>2011-06-19T08:06:03.000Z</time>
      </trkpt>
      <trkpt lat="47.81338" lon="-3.53052">
        <ele>13</ele>
        <time>2011-06-19T08:06:08.000Z</time>
      </trkpt>
      <trkpt lat="47.8134" lon="-3.53052">
        <ele>14</ele>
        <time>2011-06-19T08:06:12.000Z</time>
      </trkpt>
      <trkpt lat="47.81344" lon="-3.53052">
        <ele>15</ele>
        <time>2011-06-19T08:06:17.000Z</time>
      </trkpt>
      <trkpt lat="47.81348" lon="-3.53049">
        <ele>14</ele>
        <time>2011-06-19T08:06:23.000Z</time>
      </trkpt>
      <trkpt lat="47.81355" lon="-3.53053">
        <ele>16</ele>
        <time>2011-06-19T08:06:30.000Z</time>
      </trkpt>
      <trkpt lat="47.81358" lon="-3.53057">
        <ele>18</ele>
        <time>2011-06-19T08:06:34.000Z</time>
      </trkpt>
      <trkpt lat="47.81361" lon="-3.53061">
        <ele>20</ele>
        <time>2011-06-19T08:06:38.000Z</time>
      </trkpt>
      <trkpt lat="47.81367" lon="-3.53064">
        <ele>21</ele>
        <time>2011-06-19T08:06:46.000Z</time>
      </trkpt>
      <trkpt lat="47.8137" lon="-3.53065">
        <ele>22</ele>
        <time>2011-06-19T08:06:50.000Z</time>
      </trkpt>
      <trkpt lat="47.81374" lon="-3.53068">
        <ele>26</ele>
        <time>2011-06-19T08:06:55.000Z</time>
      </trkpt>
      <trkpt lat="47.81374" lon="-3.53061">
        <ele>27</ele>
        <time>2011-06-19T08:07:00.000Z</time>
      </trkpt>
      <trkpt lat="47.81372" lon="-3.53052">
        <ele>31</ele>
        <time>2011-06-19T08:07:07.000Z</time>
      </trkpt>
      <trkpt lat="47.81373" lon="-3.53046">
        <ele>33</ele>
        <time>2011-06-19T08:07:12.000Z</time>
      </trkpt>
      <trkpt lat="47.81376" lon="-3.53038">
        <ele>34</ele>
        <time>2011-06-19T08:07:18.000Z</time>
      </trkpt>
      <trkpt lat="47.81376" lon="-3.53033">
        <ele>37</ele>
        <time>2011-06-19T08:07:23.000Z</time>
      </trkpt>
      <trkpt lat="47.81378" lon="-3.53024">
        <ele>37</ele>
        <time>2011-06-19T08:07:29.000Z</time>
      </trkpt>
      <trkpt lat="47.81379" lon="-3.5302">
        <ele>37</ele>
        <time>2011-06-19T08:07:32.000Z</time>
      </trkpt>
      <trkpt lat="47.81382" lon="-3.53015">
        <ele>38</ele>
        <time>2011-06-19T08:07:39.000Z</time>
      </trkpt>
      <trkpt lat="47.81387" lon="-3.53008">
        <ele>40</ele>
        <time>2011-06-19T08:07:49.000Z</time>
      </trkpt>
      <trkpt lat="47.81393" lon="-3.53006">
        <ele>42</ele>
        <time>2011-06-19T08:07:54.000Z</time>
      </trkpt>
      <trkpt lat="47.81398" lon="-3.53004">
        <ele>41</ele>
        <time>2011-06-19T08:07:58.000Z</time>
      </trkpt>
      <trkpt lat="47.81406" lon="-3.53001">
        <ele>41</ele>
        <time>2011-06-19T08:08:03.000Z</time>
      </trkpt>
      <trkpt lat="47.81416" lon="-3.52996">
        <ele>43</ele>
        <time>2011-06-19T08:08:10.000Z</time>
      </trkpt>
      <trkpt lat="47.81422" lon="-3.52992">
        <ele>41</ele>
        <time>2011-06-19T08:08:14.000Z</time>
      </trkpt>
      <trkpt lat="47.81433" lon="-3.52984">
        <ele>48</ele>
        <time>2011-06-19T08:08:21.000Z</time>
      </trkpt>
      <trkpt lat="47.81448" lon="-3.52977">
        <ele>53</ele>
        <time>2011-06-19T08:08:27.000Z</time>
      </trkpt>
      <trkpt lat="47.81462" lon="-3.52967">
        <ele>41</ele>
        <time>2011-06-19T08:08:32.000Z</time>
      </trkpt>
      <trkpt lat="47.81464" lon="-3.52967">
        <ele>41</ele>
        <time>2011-06-19T08:08:33.000Z</time>
      </trkpt>
      <trkpt lat="47.81471" lon="-3.52975">
        <ele>39</ele>
        <time>2011-06-19T08:08:37.000Z</time>
      </trkpt>
      <trkpt lat="47.8148" lon="-3.52999">
        <ele>37</ele>
        <time>2011-06-19T08:08:43.000Z</time>
      </trkpt>
      <trkpt lat="47.81493" lon="-3.5302">
        <ele>36</ele>
        <time>2011-06-19T08:08:48.000Z</time>
      </trkpt>
      <trkpt lat="47.81505" lon="-3.53029">
        <ele>36</ele>
        <time>2011-06-19T08:08:52.000Z</time>
      </trkpt>
      <trkpt lat="47.81516" lon="-3.53038">
        <ele>37</ele>
        <time>2011-06-19T08:08:56.000Z</time>
      </trkpt>
      <trkpt lat="47.81535" lon="-3.53052">
        <ele>37</ele>
        <time>2011-06-19T08:09:02.000Z</time>
      </trkpt>
      <trkpt lat="47.81554" lon="-3.53066">
        <ele>36</ele>
        <time>2011-06-19T08:09:08.000Z</time>
      </trkpt>
      <trkpt lat="47.81575" lon="-3.53081">
        <ele>39</ele>
        <time>2011-06-19T08:09:14.000Z</time>
      </trkpt>
      <trkpt lat="47.81603" lon="-3.53099">
        <ele>41</ele>
        <time>2011-06-19T08:09:22.000Z</time>
      </trkpt>
      <trkpt lat="47.81615" lon="-3.5309">
        <ele>42</ele>
        <time>2011-06-19T08:09:26.000Z</time>
      </trkpt>
      <trkpt lat="47.81626" lon="-3.53068">
        <ele>42</ele>
        <time>2011-06-19T08:09:31.000Z</time>
      </trkpt>
      <trkpt lat="47.81629" lon="-3.53038">
        <ele>43</ele>
        <time>2011-06-19T08:09:36.000Z</time>
      </trkpt>
      <trkpt lat="47.81627" lon="-3.5298">
        <ele>43</ele>
        <time>2011-06-19T08:09:45.000Z</time>
      </trkpt>
      <trkpt lat="47.81626" lon="-3.52919">
        <ele>43</ele>
        <time>2011-06-19T08:09:54.000Z</time>
      </trkpt>
      <trkpt lat="47.81625" lon="-3.52853">
        <ele>44</ele>
        <time>2011-06-19T08:10:03.000Z</time>
      </trkpt>
      <trkpt lat="47.81623" lon="-3.52785">
        <ele>44</ele>
        <time>2011-06-19T08:10:12.000Z</time>
      </trkpt>
      <trkpt lat="47.81623" lon="-3.52716">
        <ele>45</ele>
        <time>2011-06-19T08:10:21.000Z</time>
      </trkpt>
      <trkpt lat="47.81625" lon="-3.52664">
        <ele>46</ele>
        <time>2011-06-19T08:10:28.000Z</time>
      </trkpt>
      <trkpt lat="47.8163" lon="-3.5261">
        <ele>44</ele>
        <time>2011-06-19T08:10:35.000Z</time>
      </trkpt>
      <trkpt lat="47.8163" lon="-3.52602">
        <ele>44</ele>
        <time>2011-06-19T08:10:36.000Z</time>
      </trkpt>
      <trkpt lat="47.81622" lon="-3.52585">
        <ele>42</ele>
        <time>2011-06-19T08:10:40.000Z</time>
      </trkpt>
      <trkpt lat="47.81611" lon="-3.5259">
        <ele>41</ele>
        <time>2011-06-19T08:10:42.000Z</time>
      </trkpt>
      <trkpt lat="47.81568" lon="-3.52607">
        <ele>39</ele>
        <time>2011-06-19T08:10:49.000Z</time>
      </trkpt>
      <trkpt lat="47.81543" lon="-3.52617">
        <ele>37</ele>
        <time>2011-06-19T08:10:53.000Z</time>
      </trkpt>
      <trkpt lat="47.81499" lon="-3.52633">
        <ele>34</ele>
        <time>2011-06-19T08:11:00.000Z</time>
      </trkpt>
      <trkpt lat="47.81465" lon="-3.52645">
        <ele>32</ele>
        <time>2011-06-19T08:11:05.000Z</time>
      </trkpt>
      <trkpt lat="47.81449" lon="-3.5265">
        <ele>31</ele>
        <time>2011-06-19T08:11:07.000Z</time>
      </trkpt>
      <trkpt lat="47.81433" lon="-3.52657">
        <ele>30</ele>
        <time>2011-06-19T08:11:09.000Z</time>
      </trkpt>
      <trkpt lat="47.81394" lon="-3.52653">
        <ele>28</ele>
        <time>2011-06-19T08:11:13.000Z</time>
      </trkpt>
      <trkpt lat="47.81364" lon="-3.52629">
        <ele>26</ele>
        <time>2011-06-19T08:11:16.000Z</time>
      </trkpt>
      <trkpt lat="47.81345" lon="-3.52601">
        <ele>25</ele>
        <time>2011-06-19T08:11:18.000Z</time>
      </trkpt>
      <trkpt lat="47.81327" lon="-3.52569">
        <ele>23</ele>
        <time>2011-06-19T08:11:20.000Z</time>
      </trkpt>
      <trkpt lat="47.81305" lon="-3.52515">
        <ele>20</ele>
        <time>2011-06-19T08:11:23.000Z</time>
      </trkpt>
      <trkpt lat="47.8128" lon="-3.52488">
        <ele>19</ele>
        <time>2011-06-19T08:11:26.000Z</time>
      </trkpt>
      <trkpt lat="47.81271" lon="-3.52485">
        <ele>19</ele>
        <time>2011-06-19T08:11:27.000Z</time>
      </trkpt>
      <trkpt lat="47.81239" lon="-3.52455">
        <ele>15</ele>
        <time>2011-06-19T08:11:32.000Z</time>
      </trkpt>
      <trkpt lat="47.81236" lon="-3.52446">
        <ele>15</ele>
        <time>2011-06-19T08:11:33.000Z</time>
      </trkpt>
      <trkpt lat="47.81222" lon="-3.52407">
        <ele>17</ele>
        <time>2011-06-19T08:11:38.000Z</time>
      </trkpt>
      <trkpt lat="47.81219" lon="-3.52393">
        <ele>20</ele>
        <time>2011-06-19T08:11:40.000Z</time>
      </trkpt>
      <trkpt lat="47.81214" lon="-3.52376">
        <ele>22</ele>
        <time>2011-06-19T08:11:43.000Z</time>
      </trkpt>
      <trkpt lat="47.81212" lon="-3.5237">
        <ele>23</ele>
        <time>2011-06-19T08:11:44.000Z</time>
      </trkpt>
      <trkpt lat="47.81205" lon="-3.52348">
        <ele>27</ele>
        <time>2011-06-19T08:11:48.000Z</time>
      </trkpt>
      <trkpt lat="47.81199" lon="-3.52333">
        <ele>30</ele>
        <time>2011-06-19T08:11:51.000Z</time>
      </trkpt>
      <trkpt lat="47.81197" lon="-3.52327">
        <ele>31</ele>
        <time>2011-06-19T08:11:52.000Z</time>
      </trkpt>
      <trkpt lat="47.81186" lon="-3.52306">
        <ele>34</ele>
        <time>2011-06-19T08:11:57.000Z</time>
      </trkpt>
      <trkpt lat="47.81169" lon="-3.52289">
        <ele>32</ele>
        <time>2011-06-19T08:12:03.000Z</time>
      </trkpt>
      <trkpt lat="47.81147" lon="-3.52266">
        <ele>32</ele>
        <time>2011-06-19T08:12:11.000Z</time>
      </trkpt>
      <trkpt lat="47.81124" lon="-3.52244">
        <ele>32</ele>
        <time>2011-06-19T08:12:19.000Z</time>
      </trkpt>
      <trkpt lat="47.81106" lon="-3.52225">
        <ele>31</ele>
        <time>2011-06-19T08:12:25.000Z</time>
      </trkpt>
      <trkpt lat="47.81078" lon="-3.52195">
        <ele>32</ele>
        <time>2011-06-19T08:12:34.000Z</time>
      </trkpt>
      <trkpt lat="47.81062" lon="-3.5218">
        <ele>33</ele>
        <time>2011-06-19T08:12:39.000Z</time>
      </trkpt>
      <trkpt lat="47.81041" lon="-3.5215">
        <ele>35</ele>
        <time>2011-06-19T08:12:47.000Z</time>
      </trkpt>
      <trkpt lat="47.81036" lon="-3.52129">
        <ele>36</ele>
        <time>2011-06-19T08:12:51.000Z</time>
      </trkpt>
      <trkpt lat="47.81041" lon="-3.52102">
        <ele>38</ele>
        <time>2011-06-19T08:12:56.000Z</time>
      </trkpt>
      <trkpt lat="47.81044" lon="-3.5208">
        <ele>38</ele>
        <time>2011-06-19T08:13:00.000Z</time>
      </trkpt>
      <trkpt lat="47.81034" lon="-3.52067">
        <ele>39</ele>
        <time>2011-06-19T08:13:04.000Z</time>
      </trkpt>
      <trkpt lat="47.8101" lon="-3.52054">
        <ele>41</ele>
        <time>2011-06-19T08:13:11.000Z</time>
      </trkpt>
      <trkpt lat="47.80987" lon="-3.52042">
        <ele>44</ele>
        <time>2011-06-19T08:13:18.000Z</time>
      </trkpt>
      <trkpt lat="47.8097" lon="-3.52033">
        <ele>45</ele>
        <time>2011-06-19T08:13:23.000Z</time>
      </trkpt>
      <trkpt lat="47.80946" lon="-3.5202">
        <ele>47</ele>
        <time>2011-06-19T08:13:29.000Z</time>
      </trkpt>
      <trkpt lat="47.8092" lon="-3.52005">
        <ele>47</ele>
        <time>2011-06-19T08:13:35.000Z</time>
      </trkpt>
      <trkpt lat="47.80881" lon="-3.51978">
        <ele>48</ele>
        <time>2011-06-19T08:13:45.000Z</time>
      </trkpt>
      <trkpt lat="47.8087" lon="-3.5197">
        <ele>49</ele>
        <time>2011-06-19T08:13:48.000Z</time>
      </trkpt>
      <trkpt lat="47.80859" lon="-3.51959">
        <ele>49</ele>
        <time>2011-06-19T08:13:51.000Z</time>
      </trkpt>
      <trkpt lat="47.8083" lon="-3.51939">
        <ele>51</ele>
        <time>2011-06-19T08:13:58.000Z</time>
      </trkpt>
      <trkpt lat="47.80787" lon="-3.51906">
        <ele>51</ele>
        <time>2011-06-19T08:14:08.000Z</time>
      </trkpt>
      <trkpt lat="47.80753" lon="-3.51872">
        <ele>51</ele>
        <time>2011-06-19T08:14:16.000Z</time>
      </trkpt>
      <trkpt lat="47.80729" lon="-3.51845">
        <ele>51</ele>
        <time>2011-06-19T08:14:22.000Z</time>
      </trkpt>
      <trkpt lat="47.80713" lon="-3.51825">
        <ele>51</ele>
        <time>2011-06-19T08:14:26.000Z</time>
      </trkpt>
      <trkpt lat="47.80698" lon="-3.5181">
        <ele>51</ele>
        <time>2011-06-19T08:14:29.000Z</time>
      </trkpt>
      <trkpt lat="47.80661" lon="-3.51794">
        <ele>49</ele>
        <time>2011-06-19T08:14:35.000Z</time>
      </trkpt>
      <trkpt lat="47.80621" lon="-3.51779">
        <ele>45</ele>
        <time>2011-06-19T08:14:40.000Z</time>
      </trkpt>
      <trkpt lat="47.80596" lon="-3.51756">
        <ele>42</ele>
        <time>2011-06-19T08:14:44.000Z</time>
      </trkpt>
      <trkpt lat="47.80593" lon="-3.51747">
        <ele>41</ele>
        <time>2011-06-19T08:14:45.000Z</time>
      </trkpt>
      <trkpt lat="47.80563" lon="-3.51656">
        <ele>38</ele>
        <time>2011-06-19T08:14:55.000Z</time>
      </trkpt>
      <trkpt lat="47.8054" lon="-3.51585">
        <ele>37</ele>
        <time>2011-06-19T08:15:02.000Z</time>
      </trkpt>
      <trkpt lat="47.80536" lon="-3.51523">
        <ele>34</ele>
        <time>2011-06-19T08:15:07.000Z</time>
      </trkpt>
      <trkpt lat="47.80547" lon="-3.5147">
        <ele>31</ele>
        <time>2011-06-19T08:15:11.000Z</time>
      </trkpt>
      <trkpt lat="47.80557" lon="-3.51447">
        <ele>30</ele>
        <time>2011-06-19T08:15:13.000Z</time>
      </trkpt>
      <trkpt lat="47.8059" lon="-3.5138">
        <ele>27</ele>
        <time>2011-06-19T08:15:19.000Z</time>
      </trkpt>
      <trkpt lat="47.80606" lon="-3.51335">
        <ele>25</ele>
        <time>2011-06-19T08:15:23.000Z</time>
      </trkpt>
      <trkpt lat="47.80616" lon="-3.51245">
        <ele>23</ele>
        <time>2011-06-19T08:15:30.000Z</time>
      </trkpt>
      <trkpt lat="47.80617" lon="-3.51181">
        <ele>24</ele>
        <time>2011-06-19T08:15:35.000Z</time>
      </trkpt>
      <trkpt lat="47.80614" lon="-3.51145">
        <ele>25</ele>
        <time>2011-06-19T08:15:38.000Z</time>
      </trkpt>
      <trkpt lat="47.80596" lon="-3.51094">
        <ele>25</ele>
        <time>2011-06-19T08:15:43.000Z</time>
      </trkpt>
      <trkpt lat="47.80576" lon="-3.51043">
        <ele>27</ele>
        <time>2011-06-19T08:15:49.000Z</time>
      </trkpt>
      <trkpt lat="47.8057" lon="-3.51008">
        <ele>32</ele>
        <time>2011-06-19T08:15:53.000Z</time>
      </trkpt>
      <trkpt lat="47.80567" lon="-3.50983">
        <ele>35</ele>
        <time>2011-06-19T08:15:56.000Z</time>
      </trkpt>
      <trkpt lat="47.80566" lon="-3.50968">
        <ele>36</ele>
        <time>2011-06-19T08:15:58.000Z</time>
      </trkpt>
      <trkpt lat="47.80565" lon="-3.50928">
        <ele>33</ele>
        <time>2011-06-19T08:16:04.000Z</time>
      </trkpt>
      <trkpt lat="47.80558" lon="-3.50911">
        <ele>33</ele>
        <time>2011-06-19T08:16:08.000Z</time>
      </trkpt>
      <trkpt lat="47.80554" lon="-3.50911">
        <ele>34</ele>
        <time>2011-06-19T08:16:09.000Z</time>
      </trkpt>
      <trkpt lat="47.80531" lon="-3.50911">
        <ele>36</ele>
        <time>2011-06-19T08:16:15.000Z</time>
      </trkpt>
      <trkpt lat="47.80523" lon="-3.50919">
        <ele>38</ele>
        <time>2011-06-19T08:16:18.000Z</time>
      </trkpt>
      <trkpt lat="47.80511" lon="-3.50943">
        <ele>39</ele>
        <time>2011-06-19T08:16:23.000Z</time>
      </trkpt>
      <trkpt lat="47.80504" lon="-3.50962">
        <ele>41</ele>
        <time>2011-06-19T08:16:27.000Z</time>
      </trkpt>
      <trkpt lat="47.80502" lon="-3.50981">
        <ele>41</ele>
        <time>2011-06-19T08:16:31.000Z</time>
      </trkpt>
      <trkpt lat="47.80502" lon="-3.51002">
        <ele>44</ele>
        <time>2011-06-19T08:16:36.000Z</time>
      </trkpt>
      <trkpt lat="47.80508" lon="-3.51023">
        <ele>45</ele>
        <time>2011-06-19T08:16:40.000Z</time>
      </trkpt>
      <trkpt lat="47.80511" lon="-3.51042">
        <ele>45</ele>
        <time>2011-06-19T08:16:42.000Z</time>
      </trkpt>
      <trkpt lat="47.80505" lon="-3.51102">
        <ele>41</ele>
        <time>2011-06-19T08:16:47.000Z</time>
      </trkpt>
      <trkpt lat="47.80502" lon="-3.51112">
        <ele>42</ele>
        <time>2011-06-19T08:16:48.000Z</time>
      </trkpt>
      <trkpt lat="47.80482" lon="-3.5118">
        <ele>41</ele>
        <time>2011-06-19T08:16:55.000Z</time>
      </trkpt>
      <trkpt lat="47.80487" lon="-3.51202">
        <ele>44</ele>
        <time>2011-06-19T08:16:59.000Z</time>
      </trkpt>
      <trkpt lat="47.8049" lon="-3.51237">
        <ele>43</ele>
        <time>2011-06-19T08:17:05.000Z</time>
      </trkpt>
      <trkpt lat="47.80489" lon="-3.51258">
        <ele>46</ele>
        <time>2011-06-19T08:17:08.000Z</time>
      </trkpt>
      <trkpt lat="47.8049" lon="-3.51284">
        <ele>44</ele>
        <time>2011-06-19T08:17:12.000Z</time>
      </trkpt>
      <trkpt lat="47.80489" lon="-3.51297">
        <ele>45</ele>
        <time>2011-06-19T08:17:14.000Z</time>
      </trkpt>
      <trkpt lat="47.80485" lon="-3.51333">
        <ele>48</ele>
        <time>2011-06-19T08:17:19.000Z</time>
      </trkpt>
      <trkpt lat="47.80479" lon="-3.51359">
        <ele>54</ele>
        <time>2011-06-19T08:17:22.000Z</time>
      </trkpt>
      <trkpt lat="47.80454" lon="-3.51423">
        <ele>47</ele>
        <time>2011-06-19T08:17:29.000Z</time>
      </trkpt>
      <trkpt lat="47.80437" lon="-3.51468">
        <ele>37</ele>
        <time>2011-06-19T08:17:34.000Z</time>
      </trkpt>
      <trkpt lat="47.80435" lon="-3.51474">
        <ele>36</ele>
        <time>2011-06-19T08:17:35.000Z</time>
      </trkpt>
      <trkpt lat="47.80425" lon="-3.51505">
        <ele>30</ele>
        <time>2011-06-19T08:17:40.000Z</time>
      </trkpt>
      <trkpt lat="47.80415" lon="-3.51526">
        <ele>28</ele>
        <time>2011-06-19T08:17:43.000Z</time>
      </trkpt>
      <trkpt lat="47.80408" lon="-3.51545">
        <ele>26</ele>
        <time>2011-06-19T08:17:46.000Z</time>
      </trkpt>
      <trkpt lat="47.80405" lon="-3.51576">
        <ele>27</ele>
        <time>2011-06-19T08:17:51.000Z</time>
      </trkpt>
      <trkpt lat="47.80404" lon="-3.51596">
        <ele>28</ele>
        <time>2011-06-19T08:17:54.000Z</time>
      </trkpt>
      <trkpt lat="47.80402" lon="-3.51607">
        <ele>28</ele>
        <time>2011-06-19T08:17:56.000Z</time>
      </trkpt>
      <trkpt lat="47.80401" lon="-3.51618">
        <ele>28</ele>
        <time>2011-06-19T08:17:58.000Z</time>
      </trkpt>
      <trkpt lat="47.804" lon="-3.5163">
        <ele>28</ele>
        <time>2011-06-19T08:18:00.000Z</time>
      </trkpt>
      <trkpt lat="47.80391" lon="-3.51658">
        <ele>34</ele>
        <time>2011-06-19T08:18:06.000Z</time>
      </trkpt>
      <trkpt lat="47.80378" lon="-3.51677">
        <ele>36</ele>
        <time>2011-06-19T08:18:12.000Z</time>
      </trkpt>
      <trkpt lat="47.80362" lon="-3.51694">
        <ele>40</ele>
        <time>2011-06-19T08:18:18.000Z</time>
      </trkpt>
      <trkpt lat="47.80344" lon="-3.51706">
        <ele>41</ele>
        <time>2011-06-19T08:18:22.000Z</time>
      </trkpt>
      <trkpt lat="47.80339" lon="-3.51707">
        <ele>41</ele>
        <time>2011-06-19T08:18:23.000Z</time>
      </trkpt>
      <trkpt lat="47.80316" lon="-3.51706">
        <ele>44</ele>
        <time>2011-06-19T08:18:27.000Z</time>
      </trkpt>
      <trkpt lat="47.80278" lon="-3.51698">
        <ele>43</ele>
        <time>2011-06-19T08:18:34.000Z</time>
      </trkpt>
      <trkpt lat="47.80256" lon="-3.51692">
        <ele>44</ele>
        <time>2011-06-19T08:18:38.000Z</time>
      </trkpt>
      <trkpt lat="47.80223" lon="-3.51695">
        <ele>43</ele>
        <time>2011-06-19T08:18:43.000Z</time>
      </trkpt>
      <trkpt lat="47.80208" lon="-3.51701">
        <ele>42</ele>
        <time>2011-06-19T08:18:45.000Z</time>
      </trkpt>
      <trkpt lat="47.8018" lon="-3.51701">
        <ele>43</ele>
        <time>2011-06-19T08:18:49.000Z</time>
      </trkpt>
      <trkpt lat="47.80168" lon="-3.51695">
        <ele>43</ele>
        <time>2011-06-19T08:18:51.000Z</time>
      </trkpt>
      <trkpt lat="47.80138" lon="-3.51678">
        <ele>40</ele>
        <time>2011-06-19T08:18:57.000Z</time>
      </trkpt>
      <trkpt lat="47.80133" lon="-3.51682">
        <ele>39</ele>
        <time>2011-06-19T08:19:01.000Z</time>
      </trkpt>
      <trkpt lat="47.80135" lon="-3.517">
        <ele>38</ele>
        <time>2011-06-19T08:19:04.000Z</time>
      </trkpt>
      <trkpt lat="47.80134" lon="-3.51723">
        <ele>35</ele>
        <time>2011-06-19T08:19:08.000Z</time>
      </trkpt>
      <trkpt lat="47.80123" lon="-3.51754">
        <ele>32</ele>
        <time>2011-06-19T08:19:14.000Z</time>
      </trkpt>
      <trkpt lat="47.80104" lon="-3.51787">
        <ele>32</ele>
        <time>2011-06-19T08:19:18.000Z</time>
      </trkpt>
      <trkpt lat="47.80064" lon="-3.51823">
        <ele>33</ele>
        <time>2011-06-19T08:19:23.000Z</time>
      </trkpt>
      <trkpt lat="47.8005" lon="-3.5183">
        <ele>33</ele>
        <time>2011-06-19T08:19:25.000Z</time>
      </trkpt>
      <trkpt lat="47.8003" lon="-3.51825">
        <ele>36</ele>
        <time>2011-06-19T08:19:29.000Z</time>
      </trkpt>
      <trkpt lat="47.80025" lon="-3.51822">
        <ele>37</ele>
        <time>2011-06-19T08:19:30.000Z</time>
      </trkpt>
      <trkpt lat="47.80011" lon="-3.51809">
        <ele>36</ele>
        <time>2011-06-19T08:19:34.000Z</time>
      </trkpt>
      <trkpt lat="47.79995" lon="-3.51798">
        <ele>39</ele>
        <time>2011-06-19T08:19:40.000Z</time>
      </trkpt>
      <trkpt lat="47.7998" lon="-3.51792">
        <ele>43</ele>
        <time>2011-06-19T08:19:46.000Z</time>
      </trkpt>
      <trkpt lat="47.79968" lon="-3.51791">
        <ele>48</ele>
        <time>2011-06-19T08:19:51.000Z</time>
      </trkpt>
      <trkpt lat="47.79956" lon="-3.51791">
        <ele>49</ele>
        <time>2011-06-19T08:19:56.000Z</time>
      </trkpt>
      <trkpt lat="47.79938" lon="-3.51792">
        <ele>50</ele>
        <time>2011-06-19T08:20:01.000Z</time>
      </trkpt>
      <trkpt lat="47.79917" lon="-3.51795">
        <ele>49</ele>
        <time>2011-06-19T08:20:06.000Z</time>
      </trkpt>
      <trkpt lat="47.799" lon="-3.51805">
        <ele>47</ele>
        <time>2011-06-19T08:20:10.000Z</time>
      </trkpt>
      <trkpt lat="47.79883" lon="-3.51818">
        <ele>48</ele>
        <time>2011-06-19T08:20:13.000Z</time>
      </trkpt>
      <trkpt lat="47.79856" lon="-3.51839">
        <ele>48</ele>
        <time>2011-06-19T08:20:18.000Z</time>
      </trkpt>
      <trkpt lat="47.79831" lon="-3.51867">
        <ele>49</ele>
        <time>2011-06-19T08:20:23.000Z</time>
      </trkpt>
      <trkpt lat="47.79825" lon="-3.51871">
        <ele>50</ele>
        <time>2011-06-19T08:20:24.000Z</time>
      </trkpt>
      <trkpt lat="47.79794" lon="-3.51888">
        <ele>49</ele>
        <time>2011-06-19T08:20:29.000Z</time>
      </trkpt>
      <trkpt lat="47.79758" lon="-3.519">
        <ele>50</ele>
        <time>2011-06-19T08:20:34.000Z</time>
      </trkpt>
      <trkpt lat="47.79747" lon="-3.51902">
        <ele>50</ele>
        <time>2011-06-19T08:20:36.000Z</time>
      </trkpt>
      <trkpt lat="47.79723" lon="-3.51919">
        <ele>45</ele>
        <time>2011-06-19T08:20:41.000Z</time>
      </trkpt>
      <trkpt lat="47.79702" lon="-3.51936">
        <ele>44</ele>
        <time>2011-06-19T08:20:45.000Z</time>
      </trkpt>
      <trkpt lat="47.79683" lon="-3.51958">
        <ele>44</ele>
        <time>2011-06-19T08:20:50.000Z</time>
      </trkpt>
      <trkpt lat="47.79676" lon="-3.51971">
        <ele>44</ele>
        <time>2011-06-19T08:20:52.000Z</time>
      </trkpt>
      <trkpt lat="47.7966" lon="-3.51991">
        <ele>46</ele>
        <time>2011-06-19T08:20:56.000Z</time>
      </trkpt>
      <trkpt lat="47.7965" lon="-3.51999">
        <ele>47</ele>
        <time>2011-06-19T08:20:58.000Z</time>
      </trkpt>
      <trkpt lat="47.79627" lon="-3.5203">
        <ele>45</ele>
        <time>2011-06-19T08:21:03.000Z</time>
      </trkpt>
      <trkpt lat="47.79613" lon="-3.52069">
        <ele>41</ele>
        <time>2011-06-19T08:21:07.000Z</time>
      </trkpt>
      <trkpt lat="47.79602" lon="-3.52098">
        <ele>41</ele>
        <time>2011-06-19T08:21:10.000Z</time>
      </trkpt>
      <trkpt lat="47.79591" lon="-3.52137">
        <ele>36</ele>
        <time>2011-06-19T08:21:14.000Z</time>
      </trkpt>
      <trkpt lat="47.7959" lon="-3.52186">
        <ele>31</ele>
        <time>2011-06-19T08:21:18.000Z</time>
      </trkpt>
      <trkpt lat="47.79595" lon="-3.52211">
        <ele>30</ele>
        <time>2011-06-19T08:21:20.000Z</time>
      </trkpt>
      <trkpt lat="47.79607" lon="-3.52263">
        <ele>28</ele>
        <time>2011-06-19T08:21:25.000Z</time>
      </trkpt>
      <trkpt lat="47.7961" lon="-3.52291">
        <ele>27</ele>
        <time>2011-06-19T08:21:28.000Z</time>
      </trkpt>
      <trkpt lat="47.7961" lon="-3.52311">
        <ele>25</ele>
        <time>2011-06-19T08:21:32.000Z</time>
      </trkpt>
      <trkpt lat="47.79608" lon="-3.5232">
        <ele>20</ele>
        <time>2011-06-19T08:21:36.000Z</time>
      </trkpt>
      <trkpt lat="47.79609" lon="-3.52319">
        <ele>19</ele>
        <time>2011-06-19T08:21:37.000Z</time>
      </trkpt>
      <trkpt lat="47.79615" lon="-3.52318">
        <ele>16</ele>
        <time>2011-06-19T08:21:43.000Z</time>
      </trkpt>
      <trkpt lat="47.79623" lon="-3.5232">
        <ele>14</ele>
        <time>2011-06-19T08:21:47.000Z</time>
      </trkpt>
      <trkpt lat="47.79623" lon="-3.5232">
        <ele>14</ele>
        <time>2011-06-19T08:21:48.000Z</time>
      </trkpt>
      <trkpt lat="47.79628" lon="-3.52329">
        <ele>13</ele>
        <time>2011-06-19T08:21:52.000Z</time>
      </trkpt>
      <trkpt lat="47.79632" lon="-3.52338">
        <ele>7</ele>
        <time>2011-06-19T08:22:00.000Z</time>
      </trkpt>
      <trkpt lat="47.79633" lon="-3.52338">
        <ele>8</ele>
        <time>2011-06-19T08:22:06.000Z</time>
      </trkpt>
      <trkpt lat="47.79635" lon="-3.52342">
        <ele>14</ele>
        <time>2011-06-19T08:22:13.000Z</time>
      </trkpt>
      <trkpt lat="47.79638" lon="-3.52347">
        <ele>16</ele>
        <time>2011-06-19T08:22:16.000Z</time>
      </trkpt>
      <trkpt lat="47.79646" lon="-3.52365">
        <ele>13</ele>
        <time>2011-06-19T08:22:20.000Z</time>
      </trkpt>
      <trkpt lat="47.79647" lon="-3.52393">
        <ele>12</ele>
        <time>2011-06-19T08:22:24.000Z</time>
      </trkpt>
      <trkpt lat="47.79645" lon="-3.52405">
        <ele>11</ele>
        <time>2011-06-19T08:22:26.000Z</time>
      </trkpt>
      <trkpt lat="47.7964" lon="-3.52415">
        <ele>10</ele>
        <time>2011-06-19T08:22:28.000Z</time>
      </trkpt>
      <trkpt lat="47.79631" lon="-3.52426">
        <ele>8</ele>
        <time>2011-06-19T08:22:31.000Z</time>
      </trkpt>
      <trkpt lat="47.79622" lon="-3.52444">
        <ele>7</ele>
        <time>2011-06-19T08:22:36.000Z</time>
      </trkpt>
      <trkpt lat="47.79614" lon="-3.52459">
        <ele>4</ele>
        <time>2011-06-19T08:22:41.000Z</time>
      </trkpt>
      <trkpt lat="47.79612" lon="-3.52461">
        <ele>4</ele>
        <time>2011-06-19T08:22:42.000Z</time>
      </trkpt>
      <trkpt lat="47.79603" lon="-3.52462">
        <ele>5</ele>
        <time>2011-06-19T08:22:46.000Z</time>
      </trkpt>
      <trkpt lat="47.79592" lon="-3.52449">
        <ele>13</ele>
        <time>2011-06-19T08:22:52.000Z</time>
      </trkpt>
      <trkpt lat="47.79586" lon="-3.5244">
        <ele>16</ele>
        <time>2011-06-19T08:22:56.000Z</time>
      </trkpt>
      <trkpt lat="47.79582" lon="-3.52416">
        <ele>20</ele>
        <time>2011-06-19T08:23:03.000Z</time>
      </trkpt>
      <trkpt lat="47.79572" lon="-3.52402">
        <ele>21</ele>
        <time>2011-06-19T08:23:09.000Z</time>
      </trkpt>
      <trkpt lat="47.79564" lon="-3.52401">
        <ele>21</ele>
        <time>2011-06-19T08:23:12.000Z</time>
      </trkpt>
      <trkpt lat="47.79543" lon="-3.52409">
        <ele>21</ele>
        <time>2011-06-19T08:23:20.000Z</time>
      </trkpt>
      <trkpt lat="47.79523" lon="-3.52416">
        <ele>22</ele>
        <time>2011-06-19T08:23:28.000Z</time>
      </trkpt>
      <trkpt lat="47.79502" lon="-3.52425">
        <ele>24</ele>
        <time>2011-06-19T08:23:36.000Z</time>
      </trkpt>
      <trkpt lat="47.79478" lon="-3.52432">
        <ele>27</ele>
        <time>2011-06-19T08:23:45.000Z</time>
      </trkpt>
      <trkpt lat="47.79457" lon="-3.52437">
        <ele>30</ele>
        <time>2011-06-19T08:23:53.000Z</time>
      </trkpt>
      <trkpt lat="47.79431" lon="-3.52441">
        <ele>33</ele>
        <time>2011-06-19T08:24:02.000Z</time>
      </trkpt>
      <trkpt lat="47.79411" lon="-3.52443">
        <ele>35</ele>
        <time>2011-06-19T08:24:09.000Z</time>
      </trkpt>
      <trkpt lat="47.79388" lon="-3.52442">
        <ele>37</ele>
        <time>2011-06-19T08:24:17.000Z</time>
      </trkpt>
      <trkpt lat="47.79374" lon="-3.5244">
        <ele>40</ele>
        <time>2011-06-19T08:24:22.000Z</time>
      </trkpt>
      <trkpt lat="47.79358" lon="-3.52437">
        <ele>40</ele>
        <time>2011-06-19T08:24:28.000Z</time>
      </trkpt>
      <trkpt lat="47.79335" lon="-3.52427">
        <ele>37</ele>
        <time>2011-06-19T08:24:36.000Z</time>
      </trkpt>
      <trkpt lat="47.79309" lon="-3.5241">
        <ele>36</ele>
        <time>2011-06-19T08:24:45.000Z</time>
      </trkpt>
      <trkpt lat="47.79303" lon="-3.52406">
        <ele>36</ele>
        <time>2011-06-19T08:24:47.000Z</time>
      </trkpt>
      <trkpt lat="47.79294" lon="-3.52414">
        <ele>36</ele>
        <time>2011-06-19T08:24:52.000Z</time>
      </trkpt>
      <trkpt lat="47.7929" lon="-3.52411">
        <ele>36</ele>
        <time>2011-06-19T08:24:58.000Z</time>
      </trkpt>
      <trkpt lat="47.79282" lon="-3.52409">
        <ele>37</ele>
        <time>2011-06-19T08:25:02.000Z</time>
      </trkpt>
      <trkpt lat="47.79269" lon="-3.52399">
        <ele>39</ele>
        <time>2011-06-19T08:25:06.000Z</time>
      </trkpt>
      <trkpt lat="47.79251" lon="-3.52376">
        <ele>40</ele>
        <time>2011-06-19T08:25:13.000Z</time>
      </trkpt>
      <trkpt lat="47.79243" lon="-3.5236">
        <ele>39</ele>
        <time>2011-06-19T08:25:17.000Z</time>
      </trkpt>
      <trkpt lat="47.79238" lon="-3.52349">
        <ele>37</ele>
        <time>2011-06-19T08:25:19.000Z</time>
      </trkpt>
      <trkpt lat="47.79239" lon="-3.52333">
        <ele>36</ele>
        <time>2011-06-19T08:25:23.000Z</time>
      </trkpt>
      <trkpt lat="47.79234" lon="-3.52315">
        <ele>35</ele>
        <time>2011-06-19T08:25:27.000Z</time>
      </trkpt>
      <trkpt lat="47.79222" lon="-3.52282">
        <ele>35</ele>
        <time>2011-06-19T08:25:33.000Z</time>
      </trkpt>
      <trkpt lat="47.79214" lon="-3.52244">
        <ele>34</ele>
        <time>2011-06-19T08:25:40.000Z</time>
      </trkpt>
      <trkpt lat="47.79208" lon="-3.52211">
        <ele>34</ele>
        <time>2011-06-19T08:25:46.000Z</time>
      </trkpt>
      <trkpt lat="47.79207" lon="-3.52187">
        <ele>35</ele>
        <time>2011-06-19T08:25:50.000Z</time>
      </trkpt>
      <trkpt lat="47.79191" lon="-3.52175">
        <ele>33</ele>
        <time>2011-06-19T08:25:54.000Z</time>
      </trkpt>
      <trkpt lat="47.79156" lon="-3.52169">
        <ele>31</ele>
        <time>2011-06-19T08:25:59.000Z</time>
      </trkpt>
      <trkpt lat="47.79131" lon="-3.52156">
        <ele>30</ele>
        <time>2011-06-19T08:26:03.000Z</time>
      </trkpt>
      <trkpt lat="47.7913" lon="-3.52148">
        <ele>29</ele>
        <time>2011-06-19T08:26:07.000Z</time>
      </trkpt>
      <trkpt lat="47.79136" lon="-3.52127">
        <ele>30</ele>
        <time>2011-06-19T08:26:13.000Z</time>
      </trkpt>
      <trkpt lat="47.7914" lon="-3.52099">
        <ele>31</ele>
        <time>2011-06-19T08:26:17.000Z</time>
      </trkpt>
      <trkpt lat="47.79146" lon="-3.5206">
        <ele>34</ele>
        <time>2011-06-19T08:26:23.000Z</time>
      </trkpt>
      <trkpt lat="47.7916" lon="-3.52028">
        <ele>35</ele>
        <time>2011-06-19T08:26:29.000Z</time>
      </trkpt>
      <trkpt lat="47.79173" lon="-3.5202">
        <ele>35</ele>
        <time>2011-06-19T08:26:32.000Z</time>
      </trkpt>
      <trkpt lat="47.79189" lon="-3.52013">
        <ele>37</ele>
        <time>2011-06-19T08:26:36.000Z</time>
      </trkpt>
      <trkpt lat="47.79207" lon="-3.51994">
        <ele>37</ele>
        <time>2011-06-19T08:26:42.000Z</time>
      </trkpt>
      <trkpt lat="47.7921" lon="-3.51977">
        <ele>38</ele>
        <time>2011-06-19T08:26:45.000Z</time>
      </trkpt>
      <trkpt lat="47.79211" lon="-3.51922">
        <ele>37</ele>
        <time>2011-06-19T08:26:53.000Z</time>
      </trkpt>
      <trkpt lat="47.79212" lon="-3.51875">
        <ele>37</ele>
        <time>2011-06-19T08:26:59.000Z</time>
      </trkpt>
      <trkpt lat="47.79204" lon="-3.51833">
        <ele>38</ele>
        <time>2011-06-19T08:27:04.000Z</time>
      </trkpt>
      <trkpt lat="47.79203" lon="-3.51824">
        <ele>38</ele>
        <time>2011-06-19T08:27:05.000Z</time>
      </trkpt>
      <trkpt lat="47.79202" lon="-3.51757">
        <ele>39</ele>
        <time>2011-06-19T08:27:11.000Z</time>
      </trkpt>
      <trkpt lat="47.79213" lon="-3.51683">
        <ele>36</ele>
        <time>2011-06-19T08:27:16.000Z</time>
      </trkpt>
      <trkpt lat="47.79213" lon="-3.51666">
        <ele>36</ele>
        <time>2011-06-19T08:27:17.000Z</time>
      </trkpt>
      <trkpt lat="47.79206" lon="-3.51621">
        <ele>34</ele>
        <time>2011-06-19T08:27:20.000Z</time>
      </trkpt>
      <trkpt lat="47.7919" lon="-3.51595">
        <ele>35</ele>
        <time>2011-06-19T08:27:23.000Z</time>
      </trkpt>
      <trkpt lat="47.79158" lon="-3.51593">
        <ele>36</ele>
        <time>2011-06-19T08:27:27.000Z</time>
      </trkpt>
      <trkpt lat="47.79104" lon="-3.51588">
        <ele>34</ele>
        <time>2011-06-19T08:27:33.000Z</time>
      </trkpt>
      <trkpt lat="47.79065" lon="-3.51583">
        <ele>29</ele>
        <time>2011-06-19T08:27:37.000Z</time>
      </trkpt>
      <trkpt lat="47.79016" lon="-3.51581">
        <ele>26</ele>
        <time>2011-06-19T08:27:42.000Z</time>
      </trkpt>
      <trkpt lat="47.78971" lon="-3.51591">
        <ele>24</ele>
        <time>2011-06-19T08:27:47.000Z</time>
      </trkpt>
      <trkpt lat="47.78964" lon="-3.51594">
        <ele>24</ele>
        <time>2011-06-19T08:27:48.000Z</time>
      </trkpt>
      <trkpt lat="47.78943" lon="-3.51596">
        <ele>21</ele>
        <time>2011-06-19T08:27:51.000Z</time>
      </trkpt>
      <trkpt lat="47.78904" lon="-3.51588">
        <ele>20</ele>
        <time>2011-06-19T08:27:56.000Z</time>
      </trkpt>
      <trkpt lat="47.7887" lon="-3.51575">
        <ele>22</ele>
        <time>2011-06-19T08:28:00.000Z</time>
      </trkpt>
      <trkpt lat="47.78828" lon="-3.51551">
        <ele>22</ele>
        <time>2011-06-19T08:28:05.000Z</time>
      </trkpt>
      <trkpt lat="47.78785" lon="-3.51526">
        <ele>23</ele>
        <time>2011-06-19T08:28:10.000Z</time>
      </trkpt>
      <trkpt lat="47.78761" lon="-3.51524">
        <ele>22</ele>
        <time>2011-06-19T08:28:13.000Z</time>
      </trkpt>
      <trkpt lat="47.78722" lon="-3.51516">
        <ele>17</ele>
        <time>2011-06-19T08:28:17.000Z</time>
      </trkpt>
      <trkpt lat="47.78676" lon="-3.5149">
        <ele>16</ele>
        <time>2011-06-19T08:28:22.000Z</time>
      </trkpt>
      <trkpt lat="47.78649" lon="-3.51477">
        <ele>16</ele>
        <time>2011-06-19T08:28:26.000Z</time>
      </trkpt>
      <trkpt lat="47.78644" lon="-3.51475">
        <ele>16</ele>
        <time>2011-06-19T08:28:27.000Z</time>
      </trkpt>
      <trkpt lat="47.78628" lon="-3.51478">
        <ele>15</ele>
        <time>2011-06-19T08:28:31.000Z</time>
      </trkpt>
      <trkpt lat="47.78594" lon="-3.51499">
        <ele>11</ele>
        <time>2011-06-19T08:28:38.000Z</time>
      </trkpt>
      <trkpt lat="47.78566" lon="-3.51513">
        <ele>10</ele>
        <time>2011-06-19T08:28:44.000Z</time>
      </trkpt>
      <trkpt lat="47.78559" lon="-3.51519">
        <ele>10</ele>
        <time>2011-06-19T08:28:46.000Z</time>
      </trkpt>
      <trkpt lat="47.78547" lon="-3.51527">
        <ele>9</ele>
        <time>2011-06-19T08:28:49.000Z</time>
      </trkpt>
      <trkpt lat="47.78527" lon="-3.51539">
        <ele>11</ele>
        <time>2011-06-19T08:28:54.000Z</time>
      </trkpt>
      <trkpt lat="47.78516" lon="-3.51548">
        <ele>14</ele>
        <time>2011-06-19T08:28:57.000Z</time>
      </trkpt>
      <trkpt lat="47.78509" lon="-3.51552">
        <ele>15</ele>
        <time>2011-06-19T08:28:59.000Z</time>
      </trkpt>
      <trkpt lat="47.78493" lon="-3.51561">
        <ele>15</ele>
        <time>2011-06-19T08:29:05.000Z</time>
      </trkpt>
      <trkpt lat="47.78495" lon="-3.51573">
        <ele>15</ele>
        <time>2011-06-19T08:29:10.000Z</time>
      </trkpt>
      <trkpt lat="47.78512" lon="-3.51592">
        <ele>19</ele>
        <time>2011-06-19T08:29:15.000Z</time>
      </trkpt>
      <trkpt lat="47.7852" lon="-3.516">
        <ele>15</ele>
        <time>2011-06-19T08:29:19.000Z</time>
      </trkpt>
      <trkpt lat="47.78523" lon="-3.51614">
        <ele>16</ele>
        <time>2011-06-19T08:29:25.000Z</time>
      </trkpt>
      <trkpt lat="47.78524" lon="-3.5162">
        <ele>17</ele>
        <time>2011-06-19T08:29:29.000Z</time>
      </trkpt>
      <trkpt lat="47.78526" lon="-3.51626">
        <ele>19</ele>
        <time>2011-06-19T08:29:32.000Z</time>
      </trkpt>
      <trkpt lat="47.78526" lon="-3.51631">
        <ele>22</ele>
        <time>2011-06-19T08:29:37.000Z</time>
      </trkpt>
      <trkpt lat="47.78525" lon="-3.51633">
        <ele>23</ele>
        <time>2011-06-19T08:29:39.000Z</time>
      </trkpt>
      <trkpt lat="47.78522" lon="-3.5164">
        <ele>23</ele>
        <time>2011-06-19T08:29:43.000Z</time>
      </trkpt>
      <trkpt lat="47.78524" lon="-3.51648">
        <ele>22</ele>
        <time>2011-06-19T08:29:49.000Z</time>
      </trkpt>
      <trkpt lat="47.78524" lon="-3.5166">
        <ele>22</ele>
        <time>2011-06-19T08:29:54.000Z</time>
      </trkpt>
      <trkpt lat="47.78527" lon="-3.51679">
        <ele>22</ele>
        <time>2011-06-19T08:30:01.000Z</time>
      </trkpt>
      <trkpt lat="47.7853" lon="-3.51685">
        <ele>22</ele>
        <time>2011-06-19T08:30:04.000Z</time>
      </trkpt>
      <trkpt lat="47.78533" lon="-3.51698">
        <ele>23</ele>
        <time>2011-06-19T08:30:10.000Z</time>
      </trkpt>
      <trkpt lat="47.78531" lon="-3.51709">
        <ele>25</ele>
        <time>2011-06-19T08:30:15.000Z</time>
      </trkpt>
      <trkpt lat="47.78531" lon="-3.51718">
        <ele>26</ele>
        <time>2011-06-19T08:30:19.000Z</time>
      </trkpt>
      <trkpt lat="47.78533" lon="-3.51723">
        <ele>27</ele>
        <time>2011-06-19T08:30:21.000Z</time>
      </trkpt>
      <trkpt lat="47.78535" lon="-3.51744">
        <ele>24</ele>
        <time>2011-06-19T08:30:28.000Z</time>
      </trkpt>
      <trkpt lat="47.78536" lon="-3.51761">
        <ele>27</ele>
        <time>2011-06-19T08:30:34.000Z</time>
      </trkpt>
      <trkpt lat="47.78537" lon="-3.51773">
        <ele>28</ele>
        <time>2011-06-19T08:30:38.000Z</time>
      </trkpt>
      <trkpt lat="47.78536" lon="-3.518">
        <ele>28</ele>
        <time>2011-06-19T08:30:44.000Z</time>
      </trkpt>
      <trkpt lat="47.78534" lon="-3.51825">
        <ele>27</ele>
        <time>2011-06-19T08:30:49.000Z</time>
      </trkpt>
      <trkpt lat="47.78537" lon="-3.51836">
        <ele>28</ele>
        <time>2011-06-19T08:30:52.000Z</time>
      </trkpt>
      <trkpt lat="47.78535" lon="-3.51869">
        <ele>32</ele>
        <time>2011-06-19T08:30:58.000Z</time>
      </trkpt>
      <trkpt lat="47.78532" lon="-3.51878">
        <ele>33</ele>
        <time>2011-06-19T08:31:00.000Z</time>
      </trkpt>
      <trkpt lat="47.78541" lon="-3.519">
        <ele>34</ele>
        <time>2011-06-19T08:31:05.000Z</time>
      </trkpt>
      <trkpt lat="47.78542" lon="-3.51923">
        <ele>31</ele>
        <time>2011-06-19T08:31:09.000Z</time>
      </trkpt>
      <trkpt lat="47.78545" lon="-3.51947">
        <ele>35</ele>
        <time>2011-06-19T08:31:13.000Z</time>
      </trkpt>
      <trkpt lat="47.78546" lon="-3.51965">
        <ele>35</ele>
        <time>2011-06-19T08:31:16.000Z</time>
      </trkpt>
      <trkpt lat="47.78553" lon="-3.5199">
        <ele>30</ele>
        <time>2011-06-19T08:31:20.000Z</time>
      </trkpt>
      <trkpt lat="47.78555" lon="-3.52002">
        <ele>31</ele>
        <time>2011-06-19T08:31:22.000Z</time>
      </trkpt>
      <trkpt lat="47.78556" lon="-3.52015">
        <ele>32</ele>
        <time>2011-06-19T08:31:24.000Z</time>
      </trkpt>
      <trkpt lat="47.78553" lon="-3.52036">
        <ele>31</ele>
        <time>2011-06-19T08:31:28.000Z</time>
      </trkpt>
      <trkpt lat="47.78548" lon="-3.52047">
        <ele>32</ele>
        <time>2011-06-19T08:31:30.000Z</time>
      </trkpt>
      <trkpt lat="47.78541" lon="-3.5209">
        <ele>32</ele>
        <time>2011-06-19T08:31:35.000Z</time>
      </trkpt>
      <trkpt lat="47.78539" lon="-3.52146">
        <ele>32</ele>
        <time>2011-06-19T08:31:41.000Z</time>
      </trkpt>
      <trkpt lat="47.78539" lon="-3.52187">
        <ele>32</ele>
        <time>2011-06-19T08:31:46.000Z</time>
      </trkpt>
      <trkpt lat="47.7854" lon="-3.52245">
        <ele>31</ele>
        <time>2011-06-19T08:31:53.000Z</time>
      </trkpt>
      <trkpt lat="47.78539" lon="-3.5226">
        <ele>31</ele>
        <time>2011-06-19T08:31:55.000Z</time>
      </trkpt>
      <trkpt lat="47.78526" lon="-3.52276">
        <ele>31</ele>
        <time>2011-06-19T08:31:59.000Z</time>
      </trkpt>
      <trkpt lat="47.7852" lon="-3.52275">
        <ele>31</ele>
        <time>2011-06-19T08:32:00.000Z</time>
      </trkpt>
      <trkpt lat="47.78477" lon="-3.52266">
        <ele>28</ele>
        <time>2011-06-19T08:32:06.000Z</time>
      </trkpt>
      <trkpt lat="47.78426" lon="-3.52259">
        <ele>26</ele>
        <time>2011-06-19T08:32:12.000Z</time>
      </trkpt>
      <trkpt lat="47.78412" lon="-3.52257">
        <ele>27</ele>
        <time>2011-06-19T08:32:14.000Z</time>
      </trkpt>
      <trkpt lat="47.78388" lon="-3.52258">
        <ele>29</ele>
        <time>2011-06-19T08:32:18.000Z</time>
      </trkpt>
      <trkpt lat="47.78365" lon="-3.52266">
        <ele>31</ele>
        <time>2011-06-19T08:32:23.000Z</time>
      </trkpt>
      <trkpt lat="47.78335" lon="-3.52278">
        <ele>32</ele>
        <time>2011-06-19T08:32:29.000Z</time>
      </trkpt>
      <trkpt lat="47.78314" lon="-3.5229">
        <ele>33</ele>
        <time>2011-06-19T08:32:34.000Z</time>
      </trkpt>
      <trkpt lat="47.78308" lon="-3.52314">
        <ele>35</ele>
        <time>2011-06-19T08:32:38.000Z</time>
      </trkpt>
      <trkpt lat="47.783" lon="-3.52358">
        <ele>35</ele>
        <time>2011-06-19T08:32:45.000Z</time>
      </trkpt>
      <trkpt lat="47.78294" lon="-3.52408">
        <ele>35</ele>
        <time>2011-06-19T08:32:52.000Z</time>
      </trkpt>
      <trkpt lat="47.78288" lon="-3.52477">
        <ele>35</ele>
        <time>2011-06-19T08:33:02.000Z</time>
      </trkpt>
      <trkpt lat="47.78284" lon="-3.52516">
        <ele>36</ele>
        <time>2011-06-19T08:33:08.000Z</time>
      </trkpt>
      <trkpt lat="47.78276" lon="-3.52576">
        <ele>37</ele>
        <time>2011-06-19T08:33:18.000Z</time>
      </trkpt>
      <trkpt lat="47.78273" lon="-3.52607">
        <ele>38</ele>
        <time>2011-06-19T08:33:23.000Z</time>
      </trkpt>
      <trkpt lat="47.78267" lon="-3.52662">
        <ele>38</ele>
        <time>2011-06-19T08:33:31.000Z</time>
      </trkpt>
      <trkpt lat="47.78264" lon="-3.52689">
        <ele>37</ele>
        <time>2011-06-19T08:33:35.000Z</time>
      </trkpt>
      <trkpt lat="47.78257" lon="-3.52715">
        <ele>38</ele>
        <time>2011-06-19T08:33:39.000Z</time>
      </trkpt>
      <trkpt lat="47.78251" lon="-3.52744">
        <ele>38</ele>
        <time>2011-06-19T08:33:43.000Z</time>
      </trkpt>
      <trkpt lat="47.78233" lon="-3.52768">
        <ele>38</ele>
        <time>2011-06-19T08:33:48.000Z</time>
      </trkpt>
      <trkpt lat="47.78224" lon="-3.5277">
        <ele>39</ele>
        <time>2011-06-19T08:33:50.000Z</time>
      </trkpt>
      <trkpt lat="47.78205" lon="-3.52771">
        <ele>40</ele>
        <time>2011-06-19T08:33:54.000Z</time>
      </trkpt>
      <trkpt lat="47.78197" lon="-3.52771">
        <ele>40</ele>
        <time>2011-06-19T08:33:56.000Z</time>
      </trkpt>
      <trkpt lat="47.7818" lon="-3.52772">
        <ele>41</ele>
        <time>2011-06-19T08:34:00.000Z</time>
      </trkpt>
      <trkpt lat="47.78148" lon="-3.52772">
        <ele>41</ele>
        <time>2011-06-19T08:34:07.000Z</time>
      </trkpt>
      <trkpt lat="47.78107" lon="-3.52773">
        <ele>41</ele>
        <time>2011-06-19T08:34:15.000Z</time>
      </trkpt>
      <trkpt lat="47.78067" lon="-3.52771">
        <ele>42</ele>
        <time>2011-06-19T08:34:23.000Z</time>
      </trkpt>
      <trkpt lat="47.78028" lon="-3.52759">
        <ele>43</ele>
        <time>2011-06-19T08:34:31.000Z</time>
      </trkpt>
      <trkpt lat="47.77989" lon="-3.52744">
        <ele>43</ele>
        <time>2011-06-19T08:34:39.000Z</time>
      </trkpt>
      <trkpt lat="47.77952" lon="-3.52729">
        <ele>43</ele>
        <time>2011-06-19T08:34:46.000Z</time>
      </trkpt>
      <trkpt lat="47.77917" lon="-3.52715">
        <ele>42</ele>
        <time>2011-06-19T08:34:52.000Z</time>
      </trkpt>
      <trkpt lat="47.77888" lon="-3.52704">
        <ele>42</ele>
        <time>2011-06-19T08:34:57.000Z</time>
      </trkpt>
      <trkpt lat="47.77834" lon="-3.52683">
        <ele>40</ele>
        <time>2011-06-19T08:35:06.000Z</time>
      </trkpt>
      <trkpt lat="47.77773" lon="-3.52659">
        <ele>39</ele>
        <time>2011-06-19T08:35:16.000Z</time>
      </trkpt>
      <trkpt lat="47.77738" lon="-3.52646">
        <ele>38</ele>
        <time>2011-06-19T08:35:22.000Z</time>
      </trkpt>
      <trkpt lat="47.77695" lon="-3.52629">
        <ele>37</ele>
        <time>2011-06-19T08:35:29.000Z</time>
      </trkpt>
      <trkpt lat="47.77684" lon="-3.52625">
        <ele>37</ele>
        <time>2011-06-19T08:35:31.000Z</time>
      </trkpt>
      <trkpt lat="47.77679" lon="-3.52622">
        <ele>37</ele>
        <time>2011-06-19T08:35:32.000Z</time>
      </trkpt>
      <trkpt lat="47.77626" lon="-3.52602">
        <ele>37</ele>
        <time>2011-06-19T08:35:42.000Z</time>
      </trkpt>
      <trkpt lat="47.77614" lon="-3.52611">
        <ele>36</ele>
        <time>2011-06-19T08:35:45.000Z</time>
      </trkpt>
      <trkpt lat="47.77614" lon="-3.52618">
        <ele>36</ele>
        <time>2011-06-19T08:35:46.000Z</time>
      </trkpt>
      <trkpt lat="47.77615" lon="-3.5267">
        <ele>34</ele>
        <time>2011-06-19T08:35:53.000Z</time>
      </trkpt>
      <trkpt lat="47.77616" lon="-3.52703">
        <ele>32</ele>
        <time>2011-06-19T08:35:57.000Z</time>
      </trkpt>
      <trkpt lat="47.77605" lon="-3.52725">
        <ele>31</ele>
        <time>2011-06-19T08:36:01.000Z</time>
      </trkpt>
      <trkpt lat="47.776" lon="-3.52725">
        <ele>31</ele>
        <time>2011-06-19T08:36:02.000Z</time>
      </trkpt>
      <trkpt lat="47.77557" lon="-3.5272">
        <ele>29</ele>
        <time>2011-06-19T08:36:10.000Z</time>
      </trkpt>
      <trkpt lat="47.77525" lon="-3.52717">
        <ele>27</ele>
        <time>2011-06-19T08:36:15.000Z</time>
      </trkpt>
      <trkpt lat="47.77486" lon="-3.52713">
        <ele>25</ele>
        <time>2011-06-19T08:36:20.000Z</time>
      </trkpt>
      <trkpt lat="47.77445" lon="-3.52708">
        <ele>25</ele>
        <time>2011-06-19T08:36:26.000Z</time>
      </trkpt>
      <trkpt lat="47.77435" lon="-3.52706">
        <ele>26</ele>
        <time>2011-06-19T08:36:28.000Z</time>
      </trkpt>
      <trkpt lat="47.77411" lon="-3.52705">
        <ele>26</ele>
        <time>2011-06-19T08:36:33.000Z</time>
      </trkpt>
      <trkpt lat="47.77393" lon="-3.52703">
        <ele>26</ele>
        <time>2011-06-19T08:36:37.000Z</time>
      </trkpt>
      <trkpt lat="47.77363" lon="-3.527">
        <ele>23</ele>
        <time>2011-06-19T08:36:42.000Z</time>
      </trkpt>
      <trkpt lat="47.77321" lon="-3.52683">
        <ele>18</ele>
        <time>2011-06-19T08:36:48.000Z</time>
      </trkpt>
      <trkpt lat="47.77285" lon="-3.52681">
        <ele>14</ele>
        <time>2011-06-19T08:36:53.000Z</time>
      </trkpt>
      <trkpt lat="47.77259" lon="-3.52682">
        <ele>11</ele>
        <time>2011-06-19T08:36:57.000Z</time>
      </trkpt>
      <trkpt lat="47.77251" lon="-3.52682">
        <ele>9</ele>
        <time>2011-06-19T08:36:59.000Z</time>
      </trkpt>
      <trkpt lat="47.77245" lon="-3.52694">
        <ele>9</ele>
        <time>2011-06-19T08:37:03.000Z</time>
      </trkpt>
      <trkpt lat="47.77243" lon="-3.52721">
        <ele>8</ele>
        <time>2011-06-19T08:37:08.000Z</time>
      </trkpt>
      <trkpt lat="47.77243" lon="-3.52735">
        <ele>8</ele>
        <time>2011-06-19T08:37:10.000Z</time>
      </trkpt>
      <trkpt lat="47.77242" lon="-3.52773">
        <ele>7</ele>
        <time>2011-06-19T08:37:15.000Z</time>
      </trkpt>
      <trkpt lat="47.77251" lon="-3.528">
        <ele>5</ele>
        <time>2011-06-19T08:37:19.000Z</time>
      </trkpt>
      <trkpt lat="47.77256" lon="-3.52804">
        <ele>5</ele>
        <time>2011-06-19T08:37:20.000Z</time>
      </trkpt>
      <trkpt lat="47.77267" lon="-3.52811">
        <ele>4</ele>
        <time>2011-06-19T08:37:22.000Z</time>
      </trkpt>
      <trkpt lat="47.77281" lon="-3.52834">
        <ele>3</ele>
        <time>2011-06-19T08:37:26.000Z</time>
      </trkpt>
      <trkpt lat="47.77272" lon="-3.52849">
        <ele>3</ele>
        <time>2011-06-19T08:37:29.000Z</time>
      </trkpt>
      <trkpt lat="47.7726" lon="-3.52867">
        <ele>3</ele>
        <time>2011-06-19T08:37:33.000Z</time>
      </trkpt>
      <trkpt lat="47.77243" lon="-3.52879">
        <ele>3</ele>
        <time>2011-06-19T08:37:38.000Z</time>
      </trkpt>
      <trkpt lat="47.77227" lon="-3.52859">
        <ele>3</ele>
        <time>2011-06-19T08:37:43.000Z</time>
      </trkpt>
      <trkpt lat="47.77225" lon="-3.52849">
        <ele>4</ele>
        <time>2011-06-19T08:37:45.000Z</time>
      </trkpt>
      <trkpt lat="47.77224" lon="-3.52838">
        <ele>4</ele>
        <time>2011-06-19T08:37:47.000Z</time>
      </trkpt>
      <trkpt lat="47.77211" lon="-3.52815">
        <ele>6</ele>
        <time>2011-06-19T08:37:53.000Z</time>
      </trkpt>
      <trkpt lat="47.77206" lon="-3.52806">
        <ele>7</ele>
        <time>2011-06-19T08:37:55.000Z</time>
      </trkpt>
      <trkpt lat="47.77198" lon="-3.52787">
        <ele>7</ele>
        <time>2011-06-19T08:37:59.000Z</time>
      </trkpt>
      <trkpt lat="47.77188" lon="-3.52769">
        <ele>6</ele>
        <time>2011-06-19T08:38:02.000Z</time>
      </trkpt>
      <trkpt lat="47.77163" lon="-3.52728">
        <ele>6</ele>
        <time>2011-06-19T08:38:08.000Z</time>
      </trkpt>
      <trkpt lat="47.77125" lon="-3.52659">
        <ele>7</ele>
        <time>2011-06-19T08:38:17.000Z</time>
      </trkpt>
      <trkpt lat="47.77098" lon="-3.52611">
        <ele>8</ele>
        <time>2011-06-19T08:38:24.000Z</time>
      </trkpt>
      <trkpt lat="47.7708" lon="-3.52579">
        <ele>9</ele>
        <time>2011-06-19T08:38:29.000Z</time>
      </trkpt>
      <trkpt lat="47.77059" lon="-3.52549">
        <ele>10</ele>
        <time>2011-06-19T08:38:34.000Z</time>
      </trkpt>
      <trkpt lat="47.77054" lon="-3.52544">
        <ele>10</ele>
        <time>2011-06-19T08:38:35.000Z</time>
      </trkpt>
      <trkpt lat="47.77037" lon="-3.52526">
        <ele>10</ele>
        <time>2011-06-19T08:38:39.000Z</time>
      </trkpt>
      <trkpt lat="47.77037" lon="-3.52507">
        <ele>11</ele>
        <time>2011-06-19T08:38:43.000Z</time>
      </trkpt>
      <trkpt lat="47.77036" lon="-3.5249">
        <ele>11</ele>
        <time>2011-06-19T08:38:46.000Z</time>
      </trkpt>
      <trkpt lat="47.77033" lon="-3.52465">
        <ele>11</ele>
        <time>2011-06-19T08:38:49.000Z</time>
      </trkpt>
      <trkpt lat="47.77026" lon="-3.52418">
        <ele>10</ele>
        <time>2011-06-19T08:38:54.000Z</time>
      </trkpt>
      <trkpt lat="47.77025" lon="-3.52399">
        <ele>10</ele>
        <time>2011-06-19T08:38:56.000Z</time>
      </trkpt>
      <trkpt lat="47.77023" lon="-3.52358">
        <ele>9</ele>
        <time>2011-06-19T08:39:00.000Z</time>
      </trkpt>
      <trkpt lat="47.77021" lon="-3.52337">
        <ele>9</ele>
        <time>2011-06-19T08:39:02.000Z</time>
      </trkpt>
      <trkpt lat="47.77018" lon="-3.52295">
        <ele>9</ele>
        <time>2011-06-19T08:39:06.000Z</time>
      </trkpt>
      <trkpt lat="47.77007" lon="-3.52239">
        <ele>10</ele>
        <time>2011-06-19T08:39:12.000Z</time>
      </trkpt>
      <trkpt lat="47.77007" lon="-3.52213">
        <ele>11</ele>
        <time>2011-06-19T08:39:15.000Z</time>
      </trkpt>
      <trkpt lat="47.77003" lon="-3.5218">
        <ele>11</ele>
        <time>2011-06-19T08:39:19.000Z</time>
      </trkpt>
      <trkpt lat="47.77005" lon="-3.52148">
        <ele>12</ele>
        <time>2011-06-19T08:39:23.000Z</time>
      </trkpt>
      <trkpt lat="47.77005" lon="-3.52108">
        <ele>15</ele>
        <time>2011-06-19T08:39:28.000Z</time>
      </trkpt>
      <trkpt lat="47.77005" lon="-3.521">
        <ele>15</ele>
        <time>2011-06-19T08:39:29.000Z</time>
      </trkpt>
      <trkpt lat="47.77" lon="-3.52079">
        <ele>16</ele>
        <time>2011-06-19T08:39:32.000Z</time>
      </trkpt>
      <trkpt lat="47.76999" lon="-3.52065">
        <ele>16</ele>
        <time>2011-06-19T08:39:34.000Z</time>
      </trkpt>
      <trkpt lat="47.76998" lon="-3.52038">
        <ele>16</ele>
        <time>2011-06-19T08:39:38.000Z</time>
      </trkpt>
      <trkpt lat="47.76999" lon="-3.52023">
        <ele>18</ele>
        <time>2011-06-19T08:39:41.000Z</time>
      </trkpt>
      <trkpt lat="47.76994" lon="-3.52013">
        <ele>19</ele>
        <time>2011-06-19T08:39:46.000Z</time>
      </trkpt>
      <trkpt lat="47.76992" lon="-3.52017">
        <ele>16</ele>
        <time>2011-06-19T08:39:49.000Z</time>
      </trkpt>
      <trkpt lat="47.76989" lon="-3.52019">
        <ele>16</ele>
        <time>2011-06-19T08:39:50.000Z</time>
      </trkpt>
      <trkpt lat="47.76981" lon="-3.52028">
        <ele>16</ele>
        <time>2011-06-19T08:39:54.000Z</time>
      </trkpt>
      <trkpt lat="47.76974" lon="-3.52046">
        <ele>17</ele>
        <time>2011-06-19T08:40:00.000Z</time>
      </trkpt>
      <trkpt lat="47.76969" lon="-3.5206">
        <ele>17</ele>
        <time>2011-06-19T08:40:05.000Z</time>
      </trkpt>
      <trkpt lat="47.76966" lon="-3.52059">
        <ele>18</ele>
        <time>2011-06-19T08:40:08.000Z</time>
      </trkpt>
      <trkpt lat="47.7696" lon="-3.52042">
        <ele>22</ele>
        <time>2011-06-19T08:40:14.000Z</time>
      </trkpt>
      <trkpt lat="47.76958" lon="-3.52025">
        <ele>22</ele>
        <time>2011-06-19T08:40:19.000Z</time>
      </trkpt>
      <trkpt lat="47.76963" lon="-3.52001">
        <ele>23</ele>
        <time>2011-06-19T08:40:23.000Z</time>
      </trkpt>
      <trkpt lat="47.7697" lon="-3.51963">
        <ele>23</ele>
        <time>2011-06-19T08:40:28.000Z</time>
      </trkpt>
      <trkpt lat="47.76967" lon="-3.51936">
        <ele>24</ele>
        <time>2011-06-19T08:40:33.000Z</time>
      </trkpt>
      <trkpt lat="47.76965" lon="-3.51916">
        <ele>23</ele>
        <time>2011-06-19T08:40:37.000Z</time>
      </trkpt>
      <trkpt lat="47.76961" lon="-3.51887">
        <ele>24</ele>
        <time>2011-06-19T08:40:43.000Z</time>
      </trkpt>
      <trkpt lat="47.76959" lon="-3.51864">
        <ele>24</ele>
        <time>2011-06-19T08:40:48.000Z</time>
      </trkpt>
      <trkpt lat="47.76967" lon="-3.51832">
        <ele>25</ele>
        <time>2011-06-19T08:40:54.000Z</time>
      </trkpt>
      <trkpt lat="47.76974" lon="-3.51805">
        <ele>26</ele>
        <time>2011-06-19T08:40:59.000Z</time>
      </trkpt>
      <trkpt lat="47.76981" lon="-3.51768">
        <ele>27</ele>
        <time>2011-06-19T08:41:06.000Z</time>
      </trkpt>
      <trkpt lat="47.76984" lon="-3.51753">
        <ele>27</ele>
        <time>2011-06-19T08:41:09.000Z</time>
      </trkpt>
      <trkpt lat="47.76976" lon="-3.51747">
        <ele>26</ele>
        <time>2011-06-19T08:41:13.000Z</time>
      </trkpt>
      <trkpt lat="47.76957" lon="-3.51748">
        <ele>26</ele>
        <time>2011-06-19T08:41:20.000Z</time>
      </trkpt>
      <trkpt lat="47.76936" lon="-3.51749">
        <ele>26</ele>
        <time>2011-06-19T08:41:26.000Z</time>
      </trkpt>
      <trkpt lat="47.7691" lon="-3.51752">
        <ele>26</ele>
        <time>2011-06-19T08:41:34.000Z</time>
      </trkpt>
      <trkpt lat="47.76899" lon="-3.51766">
        <ele>27</ele>
        <time>2011-06-19T08:41:39.000Z</time>
      </trkpt>
      <trkpt lat="47.76897" lon="-3.51769">
        <ele>26</ele>
        <time>2011-06-19T08:41:40.000Z</time>
      </trkpt>
      <trkpt lat="47.7688" lon="-3.51794">
        <ele>24</ele>
        <time>2011-06-19T08:41:46.000Z</time>
      </trkpt>
      <trkpt lat="47.76866" lon="-3.51788">
        <ele>23</ele>
        <time>2011-06-19T08:41:50.000Z</time>
      </trkpt>
      <trkpt lat="47.76857" lon="-3.51759">
        <ele>23</ele>
        <time>2011-06-19T08:41:56.000Z</time>
      </trkpt>
      <trkpt lat="47.76847" lon="-3.51729">
        <ele>23</ele>
        <time>2011-06-19T08:42:01.000Z</time>
      </trkpt>
      <trkpt lat="47.76836" lon="-3.517">
        <ele>22</ele>
        <time>2011-06-19T08:42:06.000Z</time>
      </trkpt>
      <trkpt lat="47.76825" lon="-3.51689">
        <ele>22</ele>
        <time>2011-06-19T08:42:09.000Z</time>
      </trkpt>
      <trkpt lat="47.7678" lon="-3.51679">
        <ele>22</ele>
        <time>2011-06-19T08:42:17.000Z</time>
      </trkpt>
      <trkpt lat="47.76748" lon="-3.51671">
        <ele>22</ele>
        <time>2011-06-19T08:42:23.000Z</time>
      </trkpt>
      <trkpt lat="47.76706" lon="-3.51661">
        <ele>22</ele>
        <time>2011-06-19T08:42:31.000Z</time>
      </trkpt>
      <trkpt lat="47.76662" lon="-3.51651">
        <ele>21</ele>
        <time>2011-06-19T08:42:39.000Z</time>
      </trkpt>
      <trkpt lat="47.76619" lon="-3.51645">
        <ele>21</ele>
        <time>2011-06-19T08:42:47.000Z</time>
      </trkpt>
      <trkpt lat="47.76566" lon="-3.51642">
        <ele>20</ele>
        <time>2011-06-19T08:42:57.000Z</time>
      </trkpt>
      <trkpt lat="47.76552" lon="-3.51641">
        <ele>20</ele>
        <time>2011-06-19T08:43:00.000Z</time>
      </trkpt>
      <trkpt lat="47.76536" lon="-3.51641">
        <ele>21</ele>
        <time>2011-06-19T08:43:04.000Z</time>
      </trkpt>
      <trkpt lat="47.765" lon="-3.5164">
        <ele>21</ele>
        <time>2011-06-19T08:43:12.000Z</time>
      </trkpt>
      <trkpt lat="47.76464" lon="-3.51638">
        <ele>21</ele>
        <time>2011-06-19T08:43:20.000Z</time>
      </trkpt>
      <trkpt lat="47.76451" lon="-3.51629">
        <ele>21</ele>
        <time>2011-06-19T08:43:24.000Z</time>
      </trkpt>
      <trkpt lat="47.76444" lon="-3.51627">
        <ele>21</ele>
        <time>2011-06-19T08:43:26.000Z</time>
      </trkpt>
      <trkpt lat="47.76403" lon="-3.51627">
        <ele>21</ele>
        <time>2011-06-19T08:43:35.000Z</time>
      </trkpt>
      <trkpt lat="47.76376" lon="-3.51627">
        <ele>21</ele>
        <time>2011-06-19T08:43:41.000Z</time>
      </trkpt>
      <trkpt lat="47.76346" lon="-3.51627">
        <ele>21</ele>
        <time>2011-06-19T08:43:48.000Z</time>
      </trkpt>
      <trkpt lat="47.76318" lon="-3.51628">
        <ele>22</ele>
        <time>2011-06-19T08:43:55.000Z</time>
      </trkpt>
      <trkpt lat="47.76299" lon="-3.51649">
        <ele>23</ele>
        <time>2011-06-19T08:44:01.000Z</time>
      </trkpt>
      <trkpt lat="47.76296" lon="-3.5166">
        <ele>23</ele>
        <time>2011-06-19T08:44:03.000Z</time>
      </trkpt>
      <trkpt lat="47.76285" lon="-3.51709">
        <ele>24</ele>
        <time>2011-06-19T08:44:11.000Z</time>
      </trkpt>
      <trkpt lat="47.76284" lon="-3.51715">
        <ele>24</ele>
        <time>2011-06-19T08:44:12.000Z</time>
      </trkpt>
      <trkpt lat="47.76274" lon="-3.51738">
        <ele>25</ele>
        <time>2011-06-19T08:44:16.000Z</time>
      </trkpt>
      <trkpt lat="47.76255" lon="-3.51757">
        <ele>25</ele>
        <time>2011-06-19T08:44:21.000Z</time>
      </trkpt>
      <trkpt lat="47.76217" lon="-3.51779">
        <ele>24</ele>
        <time>2011-06-19T08:44:29.000Z</time>
      </trkpt>
      <trkpt lat="47.76178" lon="-3.51799">
        <ele>24</ele>
        <time>2011-06-19T08:44:37.000Z</time>
      </trkpt>
      <trkpt lat="47.76162" lon="-3.51812">
        <ele>23</ele>
        <time>2011-06-19T08:44:42.000Z</time>
      </trkpt>
      <trkpt lat="47.76149" lon="-3.51812">
        <ele>22</ele>
        <time>2011-06-19T08:44:45.000Z</time>
      </trkpt>
      <trkpt lat="47.76134" lon="-3.51818">
        <ele>22</ele>
        <time>2011-06-19T08:44:48.000Z</time>
      </trkpt>
      <trkpt lat="47.76126" lon="-3.51819">
        <ele>22</ele>
        <time>2011-06-19T08:44:50.000Z</time>
      </trkpt>
      <trkpt lat="47.76117" lon="-3.51819">
        <ele>22</ele>
        <time>2011-06-19T08:44:52.000Z</time>
      </trkpt>
      <trkpt lat="47.76107" lon="-3.51805">
        <ele>23</ele>
        <time>2011-06-19T08:44:56.000Z</time>
      </trkpt>
      <trkpt lat="47.76096" lon="-3.51762">
        <ele>23</ele>
        <time>2011-06-19T08:45:03.000Z</time>
      </trkpt>
      <trkpt lat="47.76089" lon="-3.5173">
        <ele>23</ele>
        <time>2011-06-19T08:45:08.000Z</time>
      </trkpt>
      <trkpt lat="47.76085" lon="-3.517">
        <ele>23</ele>
        <time>2011-06-19T08:45:12.000Z</time>
      </trkpt>
      <trkpt lat="47.76081" lon="-3.51671">
        <ele>23</ele>
        <time>2011-06-19T08:45:16.000Z</time>
      </trkpt>
      <trkpt lat="47.76073" lon="-3.51658">
        <ele>22</ele>
        <time>2011-06-19T08:45:20.000Z</time>
      </trkpt>
      <trkpt lat="47.7607" lon="-3.51655">
        <ele>21</ele>
        <time>2011-06-19T08:45:21.000Z</time>
      </trkpt>
      <trkpt lat="47.76058" lon="-3.51641">
        <ele>21</ele>
        <time>2011-06-19T08:45:24.000Z</time>
      </trkpt>
      <trkpt lat="47.76035" lon="-3.51622">
        <ele>19</ele>
        <time>2011-06-19T08:45:29.000Z</time>
      </trkpt>
      <trkpt lat="47.76015" lon="-3.51594">
        <ele>18</ele>
        <time>2011-06-19T08:45:33.000Z</time>
      </trkpt>
      <trkpt lat="47.75989" lon="-3.51578">
        <ele>16</ele>
        <time>2011-06-19T08:45:37.000Z</time>
      </trkpt>
      <trkpt lat="47.75982" lon="-3.51578">
        <ele>16</ele>
        <time>2011-06-19T08:45:38.000Z</time>
      </trkpt>
      <trkpt lat="47.75946" lon="-3.51582">
        <ele>16</ele>
        <time>2011-06-19T08:45:43.000Z</time>
      </trkpt>
      <trkpt lat="47.75908" lon="-3.51584">
        <ele>17</ele>
        <time>2011-06-19T08:45:48.000Z</time>
      </trkpt>
      <trkpt lat="47.75878" lon="-3.51585">
        <ele>16</ele>
        <time>2011-06-19T08:45:52.000Z</time>
      </trkpt>
      <trkpt lat="47.75826" lon="-3.51588">
        <ele>14</ele>
        <time>2011-06-19T08:45:59.000Z</time>
      </trkpt>
      <trkpt lat="47.75805" lon="-3.51588">
        <ele>13</ele>
        <time>2011-06-19T08:46:02.000Z</time>
      </trkpt>
      <trkpt lat="47.75771" lon="-3.51574">
        <ele>11</ele>
        <time>2011-06-19T08:46:07.000Z</time>
      </trkpt>
      <trkpt lat="47.75738" lon="-3.51544">
        <ele>7</ele>
        <time>2011-06-19T08:46:12.000Z</time>
      </trkpt>
      <trkpt lat="47.75727" lon="-3.51531">
        <ele>6</ele>
        <time>2011-06-19T08:46:14.000Z</time>
      </trkpt>
      <trkpt lat="47.75706" lon="-3.51521">
        <ele>4</ele>
        <time>2011-06-19T08:46:18.000Z</time>
      </trkpt>
      <trkpt lat="47.75694" lon="-3.51506">
        <ele>2</ele>
        <time>2011-06-19T08:46:21.000Z</time>
      </trkpt>
      <trkpt lat="47.7569" lon="-3.5148">
        <ele>2</ele>
        <time>2011-06-19T08:46:24.000Z</time>
      </trkpt>
      <trkpt lat="47.75681" lon="-3.51455">
        <ele>4</ele>
        <time>2011-06-19T08:46:27.000Z</time>
      </trkpt>
      <trkpt lat="47.75674" lon="-3.51445">
        <ele>4</ele>
        <time>2011-06-19T08:46:29.000Z</time>
      </trkpt>
      <trkpt lat="47.75666" lon="-3.51438">
        <ele>5</ele>
        <time>2011-06-19T08:46:31.000Z</time>
      </trkpt>
      <trkpt lat="47.75646" lon="-3.51431">
        <ele>5</ele>
        <time>2011-06-19T08:46:35.000Z</time>
      </trkpt>
      <trkpt lat="47.75628" lon="-3.51413">
        <ele>5</ele>
        <time>2011-06-19T08:46:39.000Z</time>
      </trkpt>
      <trkpt lat="47.75624" lon="-3.51405">
        <ele>6</ele>
        <time>2011-06-19T08:46:40.000Z</time>
      </trkpt>
      <trkpt lat="47.75616" lon="-3.5138">
        <ele>6</ele>
        <time>2011-06-19T08:46:43.000Z</time>
      </trkpt>
      <trkpt lat="47.7561" lon="-3.51354">
        <ele>6</ele>
        <time>2011-06-19T08:46:46.000Z</time>
      </trkpt>
      <trkpt lat="47.75607" lon="-3.51298">
        <ele>6</ele>
        <time>2011-06-19T08:46:52.000Z</time>
      </trkpt>
      <trkpt lat="47.75601" lon="-3.51251">
        <ele>4</ele>
        <time>2011-06-19T08:46:56.000Z</time>
      </trkpt>
      <trkpt lat="47.75581" lon="-3.51199">
        <ele>3</ele>
        <time>2011-06-19T08:47:01.000Z</time>
      </trkpt>
      <trkpt lat="47.75579" lon="-3.51183">
        <ele>3</ele>
        <time>2011-06-19T08:47:03.000Z</time>
      </trkpt>
      <trkpt lat="47.75589" lon="-3.51161">
        <ele>3</ele>
        <time>2011-06-19T08:47:06.000Z</time>
      </trkpt>
      <trkpt lat="47.75594" lon="-3.51155">
        <ele>3</ele>
        <time>2011-06-19T08:47:07.000Z</time>
      </trkpt>
      <trkpt lat="47.75636" lon="-3.51112">
        <ele>3</ele>
        <time>2011-06-19T08:47:14.000Z</time>
      </trkpt>
      <trkpt lat="47.75652" lon="-3.51091">
        <ele>3</ele>
        <time>2011-06-19T08:47:17.000Z</time>
      </trkpt>
      <trkpt lat="47.75671" lon="-3.51055">
        <ele>4</ele>
        <time>2011-06-19T08:47:21.000Z</time>
      </trkpt>
      <trkpt lat="47.75687" lon="-3.51004">
        <ele>5</ele>
        <time>2011-06-19T08:47:26.000Z</time>
      </trkpt>
      <trkpt lat="47.7569" lon="-3.50991">
        <ele>6</ele>
        <time>2011-06-19T08:47:28.000Z</time>
      </trkpt>
      <trkpt lat="47.75692" lon="-3.50981">
        <ele>7</ele>
        <time>2011-06-19T08:47:31.000Z</time>
      </trkpt>
      <trkpt lat="47.75695" lon="-3.50968">
        <ele>7</ele>
        <time>2011-06-19T08:47:36.000Z</time>
      </trkpt>
      <trkpt lat="47.7569" lon="-3.50959">
        <ele>6</ele>
        <time>2011-06-19T08:47:38.000Z</time>
      </trkpt>
      <trkpt lat="47.75685" lon="-3.50956">
        <ele>6</ele>
        <time>2011-06-19T08:47:39.000Z</time>
      </trkpt>
      <trkpt lat="47.75639" lon="-3.50943">
        <ele>6</ele>
        <time>2011-06-19T08:47:47.000Z</time>
      </trkpt>
      <trkpt lat="47.75591" lon="-3.50932">
        <ele>6</ele>
        <time>2011-06-19T08:47:55.000Z</time>
      </trkpt>
      <trkpt lat="47.75569" lon="-3.50927">
        <ele>6</ele>
        <time>2011-06-19T08:47:59.000Z</time>
      </trkpt>
      <trkpt lat="47.75543" lon="-3.50918">
        <ele>6</ele>
        <time>2011-06-19T08:48:04.000Z</time>
      </trkpt>
      <trkpt lat="47.75523" lon="-3.50906">
        <ele>8</ele>
        <time>2011-06-19T08:48:09.000Z</time>
      </trkpt>
      <trkpt lat="47.75512" lon="-3.50907">
        <ele>8</ele>
        <time>2011-06-19T08:48:13.000Z</time>
      </trkpt>
      <trkpt lat="47.75507" lon="-3.5091">
        <ele>8</ele>
        <time>2011-06-19T08:48:15.000Z</time>
      </trkpt>
      <trkpt lat="47.75501" lon="-3.50911">
        <ele>8</ele>
        <time>2011-06-19T08:48:17.000Z</time>
      </trkpt>
      <trkpt lat="47.75498" lon="-3.50916">
        <ele>7</ele>
        <time>2011-06-19T08:48:21.000Z</time>
      </trkpt>
      <trkpt lat="47.75499" lon="-3.50916">
        <ele>7</ele>
        <time>2011-06-19T08:48:23.000Z</time>
      </trkpt>
      <trkpt lat="47.75498" lon="-3.50906">
        <ele>10</ele>
        <time>2011-06-19T08:52:18.000Z</time>
      </trkpt>
      <trkpt lat="47.75495" lon="-3.50903">
        <ele>10</ele>
        <time>2011-06-19T08:52:19.000Z</time>
      </trkpt>
      <trkpt lat="47.75478" lon="-3.50882">
        <ele>10</ele>
        <time>2011-06-19T08:52:26.000Z</time>
      </trkpt>
      <trkpt lat="47.75465" lon="-3.50866">
        <ele>10</ele>
        <time>2011-06-19T08:52:30.000Z</time>
      </trkpt>
      <trkpt lat="47.75439" lon="-3.50832">
        <ele>9</ele>
        <time>2011-06-19T08:52:36.000Z</time>
      </trkpt>
      <trkpt lat="47.75434" lon="-3.50827">
        <ele>9</ele>
        <time>2011-06-19T08:52:37.000Z</time>
      </trkpt>
      <trkpt lat="47.75394" lon="-3.508">
        <ele>7</ele>
        <time>2011-06-19T08:52:44.000Z</time>
      </trkpt>
      <trkpt lat="47.75351" lon="-3.50785">
        <ele>8</ele>
        <time>2011-06-19T08:52:51.000Z</time>
      </trkpt>
      <trkpt lat="47.75341" lon="-3.50781">
        <ele>8</ele>
        <time>2011-06-19T08:52:53.000Z</time>
      </trkpt>
      <trkpt lat="47.75318" lon="-3.50773">
        <ele>7</ele>
        <time>2011-06-19T08:52:58.000Z</time>
      </trkpt>
      <trkpt lat="47.75291" lon="-3.50773">
        <ele>8</ele>
        <time>2011-06-19T08:53:04.000Z</time>
      </trkpt>
      <trkpt lat="47.75273" lon="-3.50771">
        <ele>9</ele>
        <time>2011-06-19T08:53:09.000Z</time>
      </trkpt>
      <trkpt lat="47.7526" lon="-3.50764">
        <ele>10</ele>
        <time>2011-06-19T08:53:14.000Z</time>
      </trkpt>
      <trkpt lat="47.75243" lon="-3.50749">
        <ele>12</ele>
        <time>2011-06-19T08:53:21.000Z</time>
      </trkpt>
      <trkpt lat="47.75221" lon="-3.50742">
        <ele>14</ele>
        <time>2011-06-19T08:53:28.000Z</time>
      </trkpt>
      <trkpt lat="47.752" lon="-3.50731">
        <ele>16</ele>
        <time>2011-06-19T08:53:34.000Z</time>
      </trkpt>
      <trkpt lat="47.75176" lon="-3.50718">
        <ele>18</ele>
        <time>2011-06-19T08:53:41.000Z</time>
      </trkpt>
      <trkpt lat="47.75151" lon="-3.50729">
        <ele>19</ele>
        <time>2011-06-19T08:53:49.000Z</time>
      </trkpt>
      <trkpt lat="47.75132" lon="-3.50735">
        <ele>20</ele>
        <time>2011-06-19T08:53:55.000Z</time>
      </trkpt>
      <trkpt lat="47.7511" lon="-3.50734">
        <ele>22</ele>
        <time>2011-06-19T08:54:02.000Z</time>
      </trkpt>
      <trkpt lat="47.75083" lon="-3.50723">
        <ele>24</ele>
        <time>2011-06-19T08:54:10.000Z</time>
      </trkpt>
      <trkpt lat="47.7508" lon="-3.50722">
        <ele>24</ele>
        <time>2011-06-19T08:54:11.000Z</time>
      </trkpt>
      <trkpt lat="47.75073" lon="-3.50702">
        <ele>24</ele>
        <time>2011-06-19T08:54:16.000Z</time>
      </trkpt>
      <trkpt lat="47.75071" lon="-3.50668">
        <ele>25</ele>
        <time>2011-06-19T08:54:22.000Z</time>
      </trkpt>
      <trkpt lat="47.7506" lon="-3.50629">
        <ele>25</ele>
        <time>2011-06-19T08:54:29.000Z</time>
      </trkpt>
      <trkpt lat="47.75049" lon="-3.50583">
        <ele>25</ele>
        <time>2011-06-19T08:54:36.000Z</time>
      </trkpt>
      <trkpt lat="47.75048" lon="-3.50576">
        <ele>25</ele>
        <time>2011-06-19T08:54:37.000Z</time>
      </trkpt>
      <trkpt lat="47.75037" lon="-3.50562">
        <ele>25</ele>
        <time>2011-06-19T08:54:41.000Z</time>
      </trkpt>
      <trkpt lat="47.75034" lon="-3.50564">
        <ele>25</ele>
        <time>2011-06-19T08:54:42.000Z</time>
      </trkpt>
      <trkpt lat="47.75027" lon="-3.50569">
        <ele>25</ele>
        <time>2011-06-19T08:54:44.000Z</time>
      </trkpt>
      <trkpt lat="47.75013" lon="-3.50561">
        <ele>25</ele>
        <time>2011-06-19T08:54:48.000Z</time>
      </trkpt>
      <trkpt lat="47.75005" lon="-3.50554">
        <ele>25</ele>
        <time>2011-06-19T08:54:50.000Z</time>
      </trkpt>
      <trkpt lat="47.74992" lon="-3.50543">
        <ele>26</ele>
        <time>2011-06-19T08:54:53.000Z</time>
      </trkpt>
      <trkpt lat="47.74968" lon="-3.50506">
        <ele>26</ele>
        <time>2011-06-19T08:54:59.000Z</time>
      </trkpt>
      <trkpt lat="47.7495" lon="-3.50477">
        <ele>26</ele>
        <time>2011-06-19T08:55:03.000Z</time>
      </trkpt>
      <trkpt lat="47.74942" lon="-3.5046">
        <ele>26</ele>
        <time>2011-06-19T08:55:05.000Z</time>
      </trkpt>
      <trkpt lat="47.74929" lon="-3.50433">
        <ele>25</ele>
        <time>2011-06-19T08:55:08.000Z</time>
      </trkpt>
      <trkpt lat="47.74913" lon="-3.50378">
        <ele>25</ele>
        <time>2011-06-19T08:55:13.000Z</time>
      </trkpt>
      <trkpt lat="47.7491" lon="-3.50297">
        <ele>23</ele>
        <time>2011-06-19T08:55:19.000Z</time>
      </trkpt>
      <trkpt lat="47.74909" lon="-3.50243">
        <ele>21</ele>
        <time>2011-06-19T08:55:23.000Z</time>
      </trkpt>
      <trkpt lat="47.749" lon="-3.50213">
        <ele>21</ele>
        <time>2011-06-19T08:55:27.000Z</time>
      </trkpt>
      <trkpt lat="47.74868" lon="-3.50199">
        <ele>19</ele>
        <time>2011-06-19T08:55:32.000Z</time>
      </trkpt>
      <trkpt lat="47.7486" lon="-3.50199">
        <ele>19</ele>
        <time>2011-06-19T08:55:33.000Z</time>
      </trkpt>
      <trkpt lat="47.74829" lon="-3.50208">
        <ele>18</ele>
        <time>2011-06-19T08:55:37.000Z</time>
      </trkpt>
      <trkpt lat="47.74804" lon="-3.50209">
        <ele>16</ele>
        <time>2011-06-19T08:55:41.000Z</time>
      </trkpt>
      <trkpt lat="47.74801" lon="-3.50203">
        <ele>16</ele>
        <time>2011-06-19T08:55:43.000Z</time>
      </trkpt>
      <trkpt lat="47.74794" lon="-3.50192">
        <ele>15</ele>
        <time>2011-06-19T08:55:46.000Z</time>
      </trkpt>
      <trkpt lat="47.74786" lon="-3.50176">
        <ele>14</ele>
        <time>2011-06-19T08:55:50.000Z</time>
      </trkpt>
      <trkpt lat="47.74798" lon="-3.50151">
        <ele>14</ele>
        <time>2011-06-19T08:55:54.000Z</time>
      </trkpt>
      <trkpt lat="47.74805" lon="-3.50113">
        <ele>15</ele>
        <time>2011-06-19T08:55:59.000Z</time>
      </trkpt>
      <trkpt lat="47.748" lon="-3.50079">
        <ele>16</ele>
        <time>2011-06-19T08:56:04.000Z</time>
      </trkpt>
      <trkpt lat="47.74796" lon="-3.50066">
        <ele>16</ele>
        <time>2011-06-19T08:56:06.000Z</time>
      </trkpt>
      <trkpt lat="47.74794" lon="-3.50039">
        <ele>16</ele>
        <time>2011-06-19T08:56:10.000Z</time>
      </trkpt>
      <trkpt lat="47.74787" lon="-3.50013">
        <ele>16</ele>
        <time>2011-06-19T08:56:15.000Z</time>
      </trkpt>
      <trkpt lat="47.74778" lon="-3.50001">
        <ele>16</ele>
        <time>2011-06-19T08:56:18.000Z</time>
      </trkpt>
      <trkpt lat="47.74773" lon="-3.49997">
        <ele>16</ele>
        <time>2011-06-19T08:56:19.000Z</time>
      </trkpt>
      <trkpt lat="47.74763" lon="-3.4999">
        <ele>16</ele>
        <time>2011-06-19T08:56:21.000Z</time>
      </trkpt>
      <trkpt lat="47.74731" lon="-3.49963">
        <ele>13</ele>
        <time>2011-06-19T08:56:27.000Z</time>
      </trkpt>
      <trkpt lat="47.74701" lon="-3.49947">
        <ele>12</ele>
        <time>2011-06-19T08:56:32.000Z</time>
      </trkpt>
      <trkpt lat="47.74695" lon="-3.49945">
        <ele>11</ele>
        <time>2011-06-19T08:56:33.000Z</time>
      </trkpt>
      <trkpt lat="47.74673" lon="-3.4994">
        <ele>10</ele>
        <time>2011-06-19T08:56:38.000Z</time>
      </trkpt>
      <trkpt lat="47.74669" lon="-3.4995">
        <ele>9</ele>
        <time>2011-06-19T08:56:41.000Z</time>
      </trkpt>
      <trkpt lat="47.74662" lon="-3.49974">
        <ele>9</ele>
        <time>2011-06-19T08:56:45.000Z</time>
      </trkpt>
      <trkpt lat="47.74649" lon="-3.50003">
        <ele>7</ele>
        <time>2011-06-19T08:56:49.000Z</time>
      </trkpt>
      <trkpt lat="47.74646" lon="-3.5001">
        <ele>8</ele>
        <time>2011-06-19T08:56:50.000Z</time>
      </trkpt>
      <trkpt lat="47.74627" lon="-3.50044">
        <ele>9</ele>
        <time>2011-06-19T08:56:56.000Z</time>
      </trkpt>
      <trkpt lat="47.74604" lon="-3.50085">
        <ele>10</ele>
        <time>2011-06-19T08:57:03.000Z</time>
      </trkpt>
      <trkpt lat="47.74586" lon="-3.50117">
        <ele>10</ele>
        <time>2011-06-19T08:57:08.000Z</time>
      </trkpt>
      <trkpt lat="47.74578" lon="-3.50129">
        <ele>10</ele>
        <time>2011-06-19T08:57:10.000Z</time>
      </trkpt>
      <trkpt lat="47.74565" lon="-3.50154">
        <ele>10</ele>
        <time>2011-06-19T08:57:14.000Z</time>
      </trkpt>
      <trkpt lat="47.74546" lon="-3.50175">
        <ele>9</ele>
        <time>2011-06-19T08:57:18.000Z</time>
      </trkpt>
      <trkpt lat="47.7451" lon="-3.50196">
        <ele>8</ele>
        <time>2011-06-19T08:57:24.000Z</time>
      </trkpt>
      <trkpt lat="47.74478" lon="-3.50212">
        <ele>7</ele>
        <time>2011-06-19T08:57:30.000Z</time>
      </trkpt>
      <trkpt lat="47.74453" lon="-3.50219">
        <ele>7</ele>
        <time>2011-06-19T08:57:35.000Z</time>
      </trkpt>
      <trkpt lat="47.74418" lon="-3.50221">
        <ele>6</ele>
        <time>2011-06-19T08:57:42.000Z</time>
      </trkpt>
      <trkpt lat="47.74404" lon="-3.50224">
        <ele>6</ele>
        <time>2011-06-19T08:57:45.000Z</time>
      </trkpt>
      <trkpt lat="47.74389" lon="-3.50224">
        <ele>6</ele>
        <time>2011-06-19T08:57:48.000Z</time>
      </trkpt>
      <trkpt lat="47.74373" lon="-3.50226">
        <ele>7</ele>
        <time>2011-06-19T08:57:52.000Z</time>
      </trkpt>
      <trkpt lat="47.74356" lon="-3.50223">
        <ele>7</ele>
        <time>2011-06-19T08:57:56.000Z</time>
      </trkpt>
      <trkpt lat="47.74338" lon="-3.50236">
        <ele>7</ele>
        <time>2011-06-19T08:58:01.000Z</time>
      </trkpt>
      <trkpt lat="47.7432" lon="-3.50253">
        <ele>7</ele>
        <time>2011-06-19T08:58:06.000Z</time>
      </trkpt>
      <trkpt lat="47.74313" lon="-3.50257">
        <ele>7</ele>
        <time>2011-06-19T08:58:08.000Z</time>
      </trkpt>
      <trkpt lat="47.74305" lon="-3.50266">
        <ele>7</ele>
        <time>2011-06-19T08:58:12.000Z</time>
      </trkpt>
      <trkpt lat="47.74292" lon="-3.50261">
        <ele>7</ele>
        <time>2011-06-19T08:58:16.000Z</time>
      </trkpt>
      <trkpt lat="47.74284" lon="-3.50259">
        <ele>7</ele>
        <time>2011-06-19T08:58:18.000Z</time>
      </trkpt>
      <trkpt lat="47.74272" lon="-3.50272">
        <ele>7</ele>
        <time>2011-06-19T08:58:22.000Z</time>
      </trkpt>
      <trkpt lat="47.74269" lon="-3.50284">
        <ele>7</ele>
        <time>2011-06-19T08:58:24.000Z</time>
      </trkpt>
      <trkpt lat="47.74256" lon="-3.50295">
        <ele>8</ele>
        <time>2011-06-19T08:58:28.000Z</time>
      </trkpt>
      <trkpt lat="47.74252" lon="-3.50294">
        <ele>8</ele>
        <time>2011-06-19T08:58:29.000Z</time>
      </trkpt>
      <trkpt lat="47.74242" lon="-3.50291">
        <ele>8</ele>
        <time>2011-06-19T08:58:31.000Z</time>
      </trkpt>
      <trkpt lat="47.74223" lon="-3.50279">
        <ele>8</ele>
        <time>2011-06-19T08:58:35.000Z</time>
      </trkpt>
      <trkpt lat="47.74208" lon="-3.50277">
        <ele>8</ele>
        <time>2011-06-19T08:58:39.000Z</time>
      </trkpt>
      <trkpt lat="47.74197" lon="-3.50273">
        <ele>7</ele>
        <time>2011-06-19T08:58:42.000Z</time>
      </trkpt>
      <trkpt lat="47.74192" lon="-3.50269">
        <ele>7</ele>
        <time>2011-06-19T08:58:43.000Z</time>
      </trkpt>
      <trkpt lat="47.74162" lon="-3.50262">
        <ele>7</ele>
        <time>2011-06-19T08:58:48.000Z</time>
      </trkpt>
      <trkpt lat="47.7413" lon="-3.50257">
        <ele>7</ele>
        <time>2011-06-19T08:58:54.000Z</time>
      </trkpt>
      <trkpt lat="47.74122" lon="-3.50258">
        <ele>8</ele>
        <time>2011-06-19T08:58:57.000Z</time>
      </trkpt>
      <trkpt lat="47.74102" lon="-3.50252">
        <ele>8</ele>
        <time>2011-06-19T08:59:03.000Z</time>
      </trkpt>
      <trkpt lat="47.74087" lon="-3.50241">
        <ele>7</ele>
        <time>2011-06-19T08:59:08.000Z</time>
      </trkpt>
      <trkpt lat="47.74073" lon="-3.50221">
        <ele>6</ele>
        <time>2011-06-19T08:59:12.000Z</time>
      </trkpt>
      <trkpt lat="47.7406" lon="-3.50202">
        <ele>6</ele>
        <time>2011-06-19T08:59:16.000Z</time>
      </trkpt>
      <trkpt lat="47.74059" lon="-3.50192">
        <ele>7</ele>
        <time>2011-06-19T08:59:19.000Z</time>
      </trkpt>
      <trkpt lat="47.74066" lon="-3.50181">
        <ele>7</ele>
        <time>2011-06-19T08:59:23.000Z</time>
      </trkpt>
      <trkpt lat="47.74082" lon="-3.50172">
        <ele>7</ele>
        <time>2011-06-19T08:59:28.000Z</time>
      </trkpt>
      <trkpt lat="47.74106" lon="-3.50162">
        <ele>7</ele>
        <time>2011-06-19T08:59:34.000Z</time>
      </trkpt>
      <trkpt lat="47.74115" lon="-3.50158">
        <ele>7</ele>
        <time>2011-06-19T08:59:36.000Z</time>
      </trkpt>
      <trkpt lat="47.74131" lon="-3.50147">
        <ele>7</ele>
        <time>2011-06-19T08:59:40.000Z</time>
      </trkpt>
      <trkpt lat="47.74152" lon="-3.50124">
        <ele>7</ele>
        <time>2011-06-19T08:59:45.000Z</time>
      </trkpt>
      <trkpt lat="47.74173" lon="-3.50067">
        <ele>7</ele>
        <time>2011-06-19T08:59:53.000Z</time>
      </trkpt>
      <trkpt lat="47.74196" lon="-3.5">
        <ele>7</ele>
        <time>2011-06-19T09:00:02.000Z</time>
      </trkpt>
      <trkpt lat="47.74217" lon="-3.49939">
        <ele>7</ele>
        <time>2011-06-19T09:00:10.000Z</time>
      </trkpt>
      <trkpt lat="47.74236" lon="-3.49883">
        <ele>7</ele>
        <time>2011-06-19T09:00:17.000Z</time>
      </trkpt>
      <trkpt lat="47.74261" lon="-3.49824">
        <ele>6</ele>
        <time>2011-06-19T09:00:25.000Z</time>
      </trkpt>
      <trkpt lat="47.74291" lon="-3.49758">
        <ele>6</ele>
        <time>2011-06-19T09:00:34.000Z</time>
      </trkpt>
      <trkpt lat="47.74308" lon="-3.49723">
        <ele>6</ele>
        <time>2011-06-19T09:00:39.000Z</time>
      </trkpt>
      <trkpt lat="47.74324" lon="-3.49688">
        <ele>7</ele>
        <time>2011-06-19T09:00:44.000Z</time>
      </trkpt>
      <trkpt lat="47.74343" lon="-3.49639">
        <ele>8</ele>
        <time>2011-06-19T09:00:51.000Z</time>
      </trkpt>
      <trkpt lat="47.74366" lon="-3.49558">
        <ele>9</ele>
        <time>2011-06-19T09:01:01.000Z</time>
      </trkpt>
      <trkpt lat="47.74371" lon="-3.49541">
        <ele>10</ele>
        <time>2011-06-19T09:01:03.000Z</time>
      </trkpt>
      <trkpt lat="47.74386" lon="-3.49483">
        <ele>10</ele>
        <time>2011-06-19T09:01:10.000Z</time>
      </trkpt>
      <trkpt lat="47.74401" lon="-3.49446">
        <ele>11</ele>
        <time>2011-06-19T09:01:15.000Z</time>
      </trkpt>
      <trkpt lat="47.7443" lon="-3.49416">
        <ele>11</ele>
        <time>2011-06-19T09:01:21.000Z</time>
      </trkpt>
      <trkpt lat="47.7448" lon="-3.4938">
        <ele>12</ele>
        <time>2011-06-19T09:01:31.000Z</time>
      </trkpt>
      <trkpt lat="47.7449" lon="-3.49372">
        <ele>13</ele>
        <time>2011-06-19T09:01:33.000Z</time>
      </trkpt>
      <trkpt lat="47.74503" lon="-3.49349">
        <ele>13</ele>
        <time>2011-06-19T09:01:37.000Z</time>
      </trkpt>
      <trkpt lat="47.74504" lon="-3.49342">
        <ele>14</ele>
        <time>2011-06-19T09:01:38.000Z</time>
      </trkpt>
      <trkpt lat="47.74521" lon="-3.4926">
        <ele>15</ele>
        <time>2011-06-19T09:01:49.000Z</time>
      </trkpt>
      <trkpt lat="47.74533" lon="-3.492">
        <ele>17</ele>
        <time>2011-06-19T09:01:58.000Z</time>
      </trkpt>
      <trkpt lat="47.74545" lon="-3.49144">
        <ele>19</ele>
        <time>2011-06-19T09:02:07.000Z</time>
      </trkpt>
      <trkpt lat="47.74555" lon="-3.49098">
        <ele>22</ele>
        <time>2011-06-19T09:02:15.000Z</time>
      </trkpt>
      <trkpt lat="47.74559" lon="-3.4906">
        <ele>24</ele>
        <time>2011-06-19T09:02:22.000Z</time>
      </trkpt>
      <trkpt lat="47.74561" lon="-3.49031">
        <ele>26</ele>
        <time>2011-06-19T09:02:28.000Z</time>
      </trkpt>
      <trkpt lat="47.74558" lon="-3.49022">
        <ele>26</ele>
        <time>2011-06-19T09:02:31.000Z</time>
      </trkpt>
      <trkpt lat="47.7454" lon="-3.49018">
        <ele>25</ele>
        <time>2011-06-19T09:02:36.000Z</time>
      </trkpt>
      <trkpt lat="47.74513" lon="-3.49017">
        <ele>25</ele>
        <time>2011-06-19T09:02:41.000Z</time>
      </trkpt>
      <trkpt lat="47.74484" lon="-3.49021">
        <ele>21</ele>
        <time>2011-06-19T09:02:47.000Z</time>
      </trkpt>
      <trkpt lat="47.74479" lon="-3.49022">
        <ele>20</ele>
        <time>2011-06-19T09:02:48.000Z</time>
      </trkpt>
      <trkpt lat="47.74457" lon="-3.49015">
        <ele>16</ele>
        <time>2011-06-19T09:02:52.000Z</time>
      </trkpt>
      <trkpt lat="47.74448" lon="-3.48992">
        <ele>14</ele>
        <time>2011-06-19T09:02:56.000Z</time>
      </trkpt>
      <trkpt lat="47.74435" lon="-3.48969">
        <ele>13</ele>
        <time>2011-06-19T09:03:00.000Z</time>
      </trkpt>
      <trkpt lat="47.74414" lon="-3.48944">
        <ele>12</ele>
        <time>2011-06-19T09:03:05.000Z</time>
      </trkpt>
      <trkpt lat="47.74382" lon="-3.48923">
        <ele>11</ele>
        <time>2011-06-19T09:03:12.000Z</time>
      </trkpt>
      <trkpt lat="47.7437" lon="-3.4891">
        <ele>11</ele>
        <time>2011-06-19T09:03:16.000Z</time>
      </trkpt>
      <trkpt lat="47.74371" lon="-3.48889">
        <ele>11</ele>
        <time>2011-06-19T09:03:20.000Z</time>
      </trkpt>
      <trkpt lat="47.74379" lon="-3.48856">
        <ele>12</ele>
        <time>2011-06-19T09:03:27.000Z</time>
      </trkpt>
      <trkpt lat="47.74381" lon="-3.48844">
        <ele>13</ele>
        <time>2011-06-19T09:03:30.000Z</time>
      </trkpt>
      <trkpt lat="47.74378" lon="-3.48839">
        <ele>13</ele>
        <time>2011-06-19T09:03:34.000Z</time>
      </trkpt>
      <trkpt lat="47.74374" lon="-3.48831">
        <ele>14</ele>
        <time>2011-06-19T09:03:38.000Z</time>
      </trkpt>
      <trkpt lat="47.74368" lon="-3.48826">
        <ele>15</ele>
        <time>2011-06-19T09:03:42.000Z</time>
      </trkpt>
      <trkpt lat="47.74364" lon="-3.48828">
        <ele>15</ele>
        <time>2011-06-19T09:03:44.000Z</time>
      </trkpt>
      <trkpt lat="47.74357" lon="-3.48823">
        <ele>16</ele>
        <time>2011-06-19T09:03:49.000Z</time>
      </trkpt>
      <trkpt lat="47.74353" lon="-3.48823">
        <ele>16</ele>
        <time>2011-06-19T09:03:51.000Z</time>
      </trkpt>
      <trkpt lat="47.74343" lon="-3.48814">
        <ele>17</ele>
        <time>2011-06-19T09:03:57.000Z</time>
      </trkpt>
      <trkpt lat="47.74346" lon="-3.48796">
        <ele>17</ele>
        <time>2011-06-19T09:04:03.000Z</time>
      </trkpt>
      <trkpt lat="47.74352" lon="-3.48769">
        <ele>15</ele>
        <time>2011-06-19T09:04:09.000Z</time>
      </trkpt>
      <trkpt lat="47.74358" lon="-3.48763">
        <ele>13</ele>
        <time>2011-06-19T09:04:11.000Z</time>
      </trkpt>
      <trkpt lat="47.74374" lon="-3.48768">
        <ele>11</ele>
        <time>2011-06-19T09:04:16.000Z</time>
      </trkpt>
      <trkpt lat="47.74395" lon="-3.48758">
        <ele>9</ele>
        <time>2011-06-19T09:04:19.000Z</time>
      </trkpt>
      <trkpt lat="47.74401" lon="-3.48753">
        <ele>8</ele>
        <time>2011-06-19T09:04:20.000Z</time>
      </trkpt>
      <trkpt lat="47.74442" lon="-3.48738">
        <ele>7</ele>
        <time>2011-06-19T09:04:26.000Z</time>
      </trkpt>
      <trkpt lat="47.74454" lon="-3.48732">
        <ele>7</ele>
        <time>2011-06-19T09:04:28.000Z</time>
      </trkpt>
      <trkpt lat="47.74472" lon="-3.48715">
        <ele>6</ele>
        <time>2011-06-19T09:04:31.000Z</time>
      </trkpt>
      <trkpt lat="47.74505" lon="-3.48696">
        <ele>5</ele>
        <time>2011-06-19T09:04:36.000Z</time>
      </trkpt>
      <trkpt lat="47.74527" lon="-3.48686">
        <ele>5</ele>
        <time>2011-06-19T09:04:40.000Z</time>
      </trkpt>
      <trkpt lat="47.74535" lon="-3.48681">
        <ele>6</ele>
        <time>2011-06-19T09:04:44.000Z</time>
      </trkpt>
      <trkpt lat="47.74536" lon="-3.48682">
        <ele>6</ele>
        <time>2011-06-19T09:04:47.000Z</time>
      </trkpt>
      <trkpt lat="47.74537" lon="-3.48691">
        <ele>8</ele>
        <time>2011-06-19T09:04:51.000Z</time>
      </trkpt>
      <trkpt lat="47.7454" lon="-3.48708">
        <ele>10</ele>
        <time>2011-06-19T09:04:58.000Z</time>
      </trkpt>
      <trkpt lat="47.74543" lon="-3.48723">
        <ele>14</ele>
        <time>2011-06-19T09:05:05.000Z</time>
      </trkpt>
      <trkpt lat="47.74546" lon="-3.48734">
        <ele>16</ele>
        <time>2011-06-19T09:05:11.000Z</time>
      </trkpt>
      <trkpt lat="47.74548" lon="-3.48747">
        <ele>19</ele>
        <time>2011-06-19T09:05:18.000Z</time>
      </trkpt>
      <trkpt lat="47.74551" lon="-3.48762">
        <ele>22</ele>
        <time>2011-06-19T09:05:26.000Z</time>
      </trkpt>
      <trkpt lat="47.74552" lon="-3.48769">
        <ele>23</ele>
        <time>2011-06-19T09:05:30.000Z</time>
      </trkpt>
      <trkpt lat="47.74559" lon="-3.48774">
        <ele>24</ele>
        <time>2011-06-19T09:05:36.000Z</time>
      </trkpt>
      <trkpt lat="47.74577" lon="-3.48772">
        <ele>24</ele>
        <time>2011-06-19T09:05:43.000Z</time>
      </trkpt>
      <trkpt lat="47.74599" lon="-3.48771">
        <ele>25</ele>
        <time>2011-06-19T09:05:52.000Z</time>
      </trkpt>
      <trkpt lat="47.74614" lon="-3.48774">
        <ele>27</ele>
        <time>2011-06-19T09:05:58.000Z</time>
      </trkpt>
      <trkpt lat="47.74628" lon="-3.48786">
        <ele>28</ele>
        <time>2011-06-19T09:06:04.000Z</time>
      </trkpt>
      <trkpt lat="47.74642" lon="-3.48793">
        <ele>28</ele>
        <time>2011-06-19T09:06:09.000Z</time>
      </trkpt>
      <trkpt lat="47.74659" lon="-3.48798">
        <ele>28</ele>
        <time>2011-06-19T09:06:13.000Z</time>
      </trkpt>
      <trkpt lat="47.74663" lon="-3.48801">
        <ele>28</ele>
        <time>2011-06-19T09:06:14.000Z</time>
      </trkpt>
      <trkpt lat="47.74672" lon="-3.48829">
        <ele>29</ele>
        <time>2011-06-19T09:06:18.000Z</time>
      </trkpt>
      <trkpt lat="47.74686" lon="-3.48888">
        <ele>30</ele>
        <time>2011-06-19T09:06:27.000Z</time>
      </trkpt>
      <trkpt lat="47.74698" lon="-3.4893">
        <ele>29</ele>
        <time>2011-06-19T09:06:33.000Z</time>
      </trkpt>
      <trkpt lat="47.74712" lon="-3.48946">
        <ele>30</ele>
        <time>2011-06-19T09:06:37.000Z</time>
      </trkpt>
      <trkpt lat="47.74726" lon="-3.48941">
        <ele>30</ele>
        <time>2011-06-19T09:06:40.000Z</time>
      </trkpt>
      <trkpt lat="47.74766" lon="-3.48931">
        <ele>32</ele>
        <time>2011-06-19T09:06:49.000Z</time>
      </trkpt>
      <trkpt lat="47.74811" lon="-3.4892">
        <ele>30</ele>
        <time>2011-06-19T09:06:58.000Z</time>
      </trkpt>
      <trkpt lat="47.74848" lon="-3.48911">
        <ele>29</ele>
        <time>2011-06-19T09:07:04.000Z</time>
      </trkpt>
      <trkpt lat="47.74886" lon="-3.48902">
        <ele>29</ele>
        <time>2011-06-19T09:07:10.000Z</time>
      </trkpt>
      <trkpt lat="47.74907" lon="-3.48907">
        <ele>29</ele>
        <time>2011-06-19T09:07:14.000Z</time>
      </trkpt>
      <trkpt lat="47.74921" lon="-3.48918">
        <ele>29</ele>
        <time>2011-06-19T09:07:17.000Z</time>
      </trkpt>
      <trkpt lat="47.74949" lon="-3.48935">
        <ele>30</ele>
        <time>2011-06-19T09:07:23.000Z</time>
      </trkpt>
      <trkpt lat="47.74977" lon="-3.48951">
        <ele>31</ele>
        <time>2011-06-19T09:07:29.000Z</time>
      </trkpt>
      <trkpt lat="47.75002" lon="-3.48966">
        <ele>31</ele>
        <time>2011-06-19T09:07:34.000Z</time>
      </trkpt>
      <trkpt lat="47.75032" lon="-3.48986">
        <ele>32</ele>
        <time>2011-06-19T09:07:41.000Z</time>
      </trkpt>
      <trkpt lat="47.75045" lon="-3.49011">
        <ele>32</ele>
        <time>2011-06-19T09:07:46.000Z</time>
      </trkpt>
      <trkpt lat="47.75046" lon="-3.49018">
        <ele>32</ele>
        <time>2011-06-19T09:07:47.000Z</time>
      </trkpt>
      <trkpt lat="47.75059" lon="-3.49091">
        <ele>32</ele>
        <time>2011-06-19T09:07:56.000Z</time>
      </trkpt>
      <trkpt lat="47.75074" lon="-3.49164">
        <ele>32</ele>
        <time>2011-06-19T09:08:05.000Z</time>
      </trkpt>
      <trkpt lat="47.75077" lon="-3.4918">
        <ele>32</ele>
        <time>2011-06-19T09:08:07.000Z</time>
      </trkpt>
      <trkpt lat="47.75079" lon="-3.49196">
        <ele>32</ele>
        <time>2011-06-19T09:08:09.000Z</time>
      </trkpt>
      <trkpt lat="47.75092" lon="-3.4922">
        <ele>31</ele>
        <time>2011-06-19T09:08:13.000Z</time>
      </trkpt>
      <trkpt lat="47.75097" lon="-3.49222">
        <ele>31</ele>
        <time>2011-06-19T09:08:14.000Z</time>
      </trkpt>
      <trkpt lat="47.75139" lon="-3.49237">
        <ele>30</ele>
        <time>2011-06-19T09:08:21.000Z</time>
      </trkpt>
      <trkpt lat="47.75174" lon="-3.49252">
        <ele>28</ele>
        <time>2011-06-19T09:08:26.000Z</time>
      </trkpt>
      <trkpt lat="47.75222" lon="-3.49266">
        <ele>26</ele>
        <time>2011-06-19T09:08:32.000Z</time>
      </trkpt>
      <trkpt lat="47.75289" lon="-3.49261">
        <ele>23</ele>
        <time>2011-06-19T09:08:40.000Z</time>
      </trkpt>
      <trkpt lat="47.75379" lon="-3.49253">
        <ele>20</ele>
        <time>2011-06-19T09:08:51.000Z</time>
      </trkpt>
      <trkpt lat="47.75409" lon="-3.49252">
        <ele>19</ele>
        <time>2011-06-19T09:08:55.000Z</time>
      </trkpt>
      <trkpt lat="47.75444" lon="-3.49269">
        <ele>18</ele>
        <time>2011-06-19T09:09:00.000Z</time>
      </trkpt>
      <trkpt lat="47.75491" lon="-3.49296">
        <ele>17</ele>
        <time>2011-06-19T09:09:07.000Z</time>
      </trkpt>
      <trkpt lat="47.75523" lon="-3.49314">
        <ele>17</ele>
        <time>2011-06-19T09:09:12.000Z</time>
      </trkpt>
      <trkpt lat="47.75538" lon="-3.49342">
        <ele>18</ele>
        <time>2011-06-19T09:09:16.000Z</time>
      </trkpt>
      <trkpt lat="47.75537" lon="-3.49382">
        <ele>18</ele>
        <time>2011-06-19T09:09:20.000Z</time>
      </trkpt>
      <trkpt lat="47.75538" lon="-3.49392">
        <ele>18</ele>
        <time>2011-06-19T09:09:21.000Z</time>
      </trkpt>
      <trkpt lat="47.75537" lon="-3.49461">
        <ele>18</ele>
        <time>2011-06-19T09:09:28.000Z</time>
      </trkpt>
      <trkpt lat="47.75538" lon="-3.49529">
        <ele>19</ele>
        <time>2011-06-19T09:09:35.000Z</time>
      </trkpt>
      <trkpt lat="47.75545" lon="-3.49608">
        <ele>19</ele>
        <time>2011-06-19T09:09:43.000Z</time>
      </trkpt>
      <trkpt lat="47.75557" lon="-3.49668">
        <ele>21</ele>
        <time>2011-06-19T09:09:50.000Z</time>
      </trkpt>
      <trkpt lat="47.75566" lon="-3.49718">
        <ele>22</ele>
        <time>2011-06-19T09:09:57.000Z</time>
      </trkpt>
      <trkpt lat="47.75574" lon="-3.49761">
        <ele>24</ele>
        <time>2011-06-19T09:10:03.000Z</time>
      </trkpt>
      <trkpt lat="47.75574" lon="-3.49791">
        <ele>25</ele>
        <time>2011-06-19T09:10:07.000Z</time>
      </trkpt>
      <trkpt lat="47.75573" lon="-3.49805">
        <ele>25</ele>
        <time>2011-06-19T09:10:09.000Z</time>
      </trkpt>
      <trkpt lat="47.75579" lon="-3.49844">
        <ele>27</ele>
        <time>2011-06-19T09:10:15.000Z</time>
      </trkpt>
      <trkpt lat="47.75581" lon="-3.4985">
        <ele>28</ele>
        <time>2011-06-19T09:10:16.000Z</time>
      </trkpt>
      <trkpt lat="47.75586" lon="-3.49859">
        <ele>28</ele>
        <time>2011-06-19T09:10:18.000Z</time>
      </trkpt>
      <trkpt lat="47.75588" lon="-3.49882">
        <ele>28</ele>
        <time>2011-06-19T09:10:23.000Z</time>
      </trkpt>
      <trkpt lat="47.75586" lon="-3.49886">
        <ele>28</ele>
        <time>2011-06-19T09:10:24.000Z</time>
      </trkpt>
      <trkpt lat="47.75578" lon="-3.49926">
        <ele>28</ele>
        <time>2011-06-19T09:10:31.000Z</time>
      </trkpt>
      <trkpt lat="47.75578" lon="-3.49945">
        <ele>28</ele>
        <time>2011-06-19T09:10:34.000Z</time>
      </trkpt>
      <trkpt lat="47.75579" lon="-3.49978">
        <ele>27</ele>
        <time>2011-06-19T09:10:39.000Z</time>
      </trkpt>
      <trkpt lat="47.7558" lon="-3.50012">
        <ele>27</ele>
        <time>2011-06-19T09:10:44.000Z</time>
      </trkpt>
      <trkpt lat="47.75574" lon="-3.50044">
        <ele>25</ele>
        <time>2011-06-19T09:10:49.000Z</time>
      </trkpt>
      <trkpt lat="47.75563" lon="-3.50069">
        <ele>25</ele>
        <time>2011-06-19T09:10:53.000Z</time>
      </trkpt>
      <trkpt lat="47.75569" lon="-3.50089">
        <ele>23</ele>
        <time>2011-06-19T09:10:57.000Z</time>
      </trkpt>
      <trkpt lat="47.75605" lon="-3.50131">
        <ele>19</ele>
        <time>2011-06-19T09:11:03.000Z</time>
      </trkpt>
      <trkpt lat="47.75633" lon="-3.50162">
        <ele>18</ele>
        <time>2011-06-19T09:11:07.000Z</time>
      </trkpt>
      <trkpt lat="47.75647" lon="-3.50191">
        <ele>17</ele>
        <time>2011-06-19T09:11:10.000Z</time>
      </trkpt>
      <trkpt lat="47.75682" lon="-3.50265">
        <ele>16</ele>
        <time>2011-06-19T09:11:18.000Z</time>
      </trkpt>
      <trkpt lat="47.75716" lon="-3.50338">
        <ele>15</ele>
        <time>2011-06-19T09:11:26.000Z</time>
      </trkpt>
      <trkpt lat="47.75721" lon="-3.50346">
        <ele>14</ele>
        <time>2011-06-19T09:11:27.000Z</time>
      </trkpt>
      <trkpt lat="47.75753" lon="-3.50417">
        <ele>13</ele>
        <time>2011-06-19T09:11:35.000Z</time>
      </trkpt>
      <trkpt lat="47.75775" lon="-3.50467">
        <ele>12</ele>
        <time>2011-06-19T09:11:41.000Z</time>
      </trkpt>
      <trkpt lat="47.75793" lon="-3.50505">
        <ele>10</ele>
        <time>2011-06-19T09:11:46.000Z</time>
      </trkpt>
      <trkpt lat="47.75806" lon="-3.50515">
        <ele>8</ele>
        <time>2011-06-19T09:11:50.000Z</time>
      </trkpt>
      <trkpt lat="47.75809" lon="-3.50511">
        <ele>8</ele>
        <time>2011-06-19T09:11:51.000Z</time>
      </trkpt>
      <trkpt lat="47.75821" lon="-3.50497">
        <ele>7</ele>
        <time>2011-06-19T09:11:54.000Z</time>
      </trkpt>
      <trkpt lat="47.75831" lon="-3.50499">
        <ele>6</ele>
        <time>2011-06-19T09:11:57.000Z</time>
      </trkpt>
      <trkpt lat="47.75842" lon="-3.50494">
        <ele>4</ele>
        <time>2011-06-19T09:12:00.000Z</time>
      </trkpt>
      <trkpt lat="47.75846" lon="-3.50488">
        <ele>4</ele>
        <time>2011-06-19T09:12:01.000Z</time>
      </trkpt>
      <trkpt lat="47.75873" lon="-3.50458">
        <ele>4</ele>
        <time>2011-06-19T09:12:06.000Z</time>
      </trkpt>
      <trkpt lat="47.75893" lon="-3.50422">
        <ele>5</ele>
        <time>2011-06-19T09:12:10.000Z</time>
      </trkpt>
      <trkpt lat="47.75907" lon="-3.50369">
        <ele>5</ele>
        <time>2011-06-19T09:12:15.000Z</time>
      </trkpt>
      <trkpt lat="47.75913" lon="-3.50326">
        <ele>5</ele>
        <time>2011-06-19T09:12:19.000Z</time>
      </trkpt>
      <trkpt lat="47.75921" lon="-3.50279">
        <ele>4</ele>
        <time>2011-06-19T09:12:24.000Z</time>
      </trkpt>
      <trkpt lat="47.75913" lon="-3.50253">
        <ele>4</ele>
        <time>2011-06-19T09:12:27.000Z</time>
      </trkpt>
      <trkpt lat="47.75909" lon="-3.5022">
        <ele>4</ele>
        <time>2011-06-19T09:12:31.000Z</time>
      </trkpt>
      <trkpt lat="47.75918" lon="-3.50182">
        <ele>3</ele>
        <time>2011-06-19T09:12:37.000Z</time>
      </trkpt>
      <trkpt lat="47.75916" lon="-3.50167">
        <ele>3</ele>
        <time>2011-06-19T09:12:40.000Z</time>
      </trkpt>
      <trkpt lat="47.75916" lon="-3.50153">
        <ele>2</ele>
        <time>2011-06-19T09:12:43.000Z</time>
      </trkpt>
      <trkpt lat="47.75923" lon="-3.50143">
        <ele>3</ele>
        <time>2011-06-19T09:12:47.000Z</time>
      </trkpt>
      <trkpt lat="47.75928" lon="-3.50138">
        <ele>4</ele>
        <time>2011-06-19T09:12:49.000Z</time>
      </trkpt>
      <trkpt lat="47.75952" lon="-3.50105">
        <ele>6</ele>
        <time>2011-06-19T09:12:57.000Z</time>
      </trkpt>
      <trkpt lat="47.75959" lon="-3.50096">
        <ele>7</ele>
        <time>2011-06-19T09:12:59.000Z</time>
      </trkpt>
      <trkpt lat="47.75993" lon="-3.50053">
        <ele>8</ele>
        <time>2011-06-19T09:13:08.000Z</time>
      </trkpt>
      <trkpt lat="47.76018" lon="-3.5002">
        <ele>7</ele>
        <time>2011-06-19T09:13:14.000Z</time>
      </trkpt>
      <trkpt lat="47.76044" lon="-3.49986">
        <ele>6</ele>
        <time>2011-06-19T09:13:19.000Z</time>
      </trkpt>
      <trkpt lat="47.76054" lon="-3.49955">
        <ele>7</ele>
        <time>2011-06-19T09:13:23.000Z</time>
      </trkpt>
      <trkpt lat="47.76053" lon="-3.49948">
        <ele>7</ele>
        <time>2011-06-19T09:13:24.000Z</time>
      </trkpt>
      <trkpt lat="47.76051" lon="-3.49903">
        <ele>11</ele>
        <time>2011-06-19T09:13:32.000Z</time>
      </trkpt>
      <trkpt lat="47.7605" lon="-3.49871">
        <ele>14</ele>
        <time>2011-06-19T09:13:39.000Z</time>
      </trkpt>
      <trkpt lat="47.76049" lon="-3.49834">
        <ele>17</ele>
        <time>2011-06-19T09:13:48.000Z</time>
      </trkpt>
      <trkpt lat="47.76049" lon="-3.49798">
        <ele>20</ele>
        <time>2011-06-19T09:13:57.000Z</time>
      </trkpt>
      <trkpt lat="47.76051" lon="-3.49767">
        <ele>22</ele>
        <time>2011-06-19T09:14:05.000Z</time>
      </trkpt>
      <trkpt lat="47.76056" lon="-3.49737">
        <ele>23</ele>
        <time>2011-06-19T09:14:13.000Z</time>
      </trkpt>
      <trkpt lat="47.76063" lon="-3.49713">
        <ele>25</ele>
        <time>2011-06-19T09:14:19.000Z</time>
      </trkpt>
      <trkpt lat="47.76072" lon="-3.49673">
        <ele>28</ele>
        <time>2011-06-19T09:14:29.000Z</time>
      </trkpt>
      <trkpt lat="47.7608" lon="-3.49639">
        <ele>29</ele>
        <time>2011-06-19T09:14:37.000Z</time>
      </trkpt>
      <trkpt lat="47.76087" lon="-3.49606">
        <ele>31</ele>
        <time>2011-06-19T09:14:44.000Z</time>
      </trkpt>
      <trkpt lat="47.76094" lon="-3.49575">
        <ele>31</ele>
        <time>2011-06-19T09:14:50.000Z</time>
      </trkpt>
      <trkpt lat="47.76109" lon="-3.49571">
        <ele>31</ele>
        <time>2011-06-19T09:14:54.000Z</time>
      </trkpt>
      <trkpt lat="47.7613" lon="-3.49576">
        <ele>30</ele>
        <time>2011-06-19T09:14:58.000Z</time>
      </trkpt>
      <trkpt lat="47.76145" lon="-3.49568">
        <ele>29</ele>
        <time>2011-06-19T09:15:01.000Z</time>
      </trkpt>
      <trkpt lat="47.76149" lon="-3.49561">
        <ele>29</ele>
        <time>2011-06-19T09:15:02.000Z</time>
      </trkpt>
      <trkpt lat="47.76171" lon="-3.49504">
        <ele>27</ele>
        <time>2011-06-19T09:15:08.000Z</time>
      </trkpt>
      <trkpt lat="47.76191" lon="-3.49452">
        <ele>26</ele>
        <time>2011-06-19T09:15:13.000Z</time>
      </trkpt>
      <trkpt lat="47.76205" lon="-3.49442">
        <ele>25</ele>
        <time>2011-06-19T09:15:16.000Z</time>
      </trkpt>
      <trkpt lat="47.76218" lon="-3.49449">
        <ele>24</ele>
        <time>2011-06-19T09:15:18.000Z</time>
      </trkpt>
      <trkpt lat="47.76272" lon="-3.49491">
        <ele>19</ele>
        <time>2011-06-19T09:15:25.000Z</time>
      </trkpt>
      <trkpt lat="47.76297" lon="-3.49508">
        <ele>16</ele>
        <time>2011-06-19T09:15:28.000Z</time>
      </trkpt>
      <trkpt lat="47.76346" lon="-3.49551">
        <ele>12</ele>
        <time>2011-06-19T09:15:34.000Z</time>
      </trkpt>
      <trkpt lat="47.76373" lon="-3.49571">
        <ele>8</ele>
        <time>2011-06-19T09:15:38.000Z</time>
      </trkpt>
      <trkpt lat="47.76383" lon="-3.49563">
        <ele>5</ele>
        <time>2011-06-19T09:15:42.000Z</time>
      </trkpt>
      <trkpt lat="47.76381" lon="-3.4955">
        <ele>4</ele>
        <time>2011-06-19T09:15:44.000Z</time>
      </trkpt>
      <trkpt lat="47.76384" lon="-3.49536">
        <ele>4</ele>
        <time>2011-06-19T09:15:46.000Z</time>
      </trkpt>
      <trkpt lat="47.76387" lon="-3.49509">
        <ele>4</ele>
        <time>2011-06-19T09:15:49.000Z</time>
      </trkpt>
      <trkpt lat="47.76394" lon="-3.49462">
        <ele>4</ele>
        <time>2011-06-19T09:15:54.000Z</time>
      </trkpt>
      <trkpt lat="47.76405" lon="-3.49446">
        <ele>4</ele>
        <time>2011-06-19T09:15:57.000Z</time>
      </trkpt>
      <trkpt lat="47.76418" lon="-3.49426">
        <ele>4</ele>
        <time>2011-06-19T09:16:00.000Z</time>
      </trkpt>
      <trkpt lat="47.76421" lon="-3.49398">
        <ele>4</ele>
        <time>2011-06-19T09:16:03.000Z</time>
      </trkpt>
      <trkpt lat="47.7642" lon="-3.4936">
        <ele>6</ele>
        <time>2011-06-19T09:16:07.000Z</time>
      </trkpt>
      <trkpt lat="47.76427" lon="-3.4931">
        <ele>7</ele>
        <time>2011-06-19T09:16:12.000Z</time>
      </trkpt>
      <trkpt lat="47.76433" lon="-3.49254">
        <ele>7</ele>
        <time>2011-06-19T09:16:18.000Z</time>
      </trkpt>
      <trkpt lat="47.76425" lon="-3.4923">
        <ele>7</ele>
        <time>2011-06-19T09:16:22.000Z</time>
      </trkpt>
      <trkpt lat="47.76414" lon="-3.49198">
        <ele>5</ele>
        <time>2011-06-19T09:16:27.000Z</time>
      </trkpt>
      <trkpt lat="47.76408" lon="-3.4917">
        <ele>3</ele>
        <time>2011-06-19T09:16:30.000Z</time>
      </trkpt>
      <trkpt lat="47.76403" lon="-3.49109">
        <ele>4</ele>
        <time>2011-06-19T09:16:37.000Z</time>
      </trkpt>
      <trkpt lat="47.764" lon="-3.49046">
        <ele>4</ele>
        <time>2011-06-19T09:16:45.000Z</time>
      </trkpt>
      <trkpt lat="47.76398" lon="-3.49019">
        <ele>4</ele>
        <time>2011-06-19T09:16:49.000Z</time>
      </trkpt>
      <trkpt lat="47.76397" lon="-3.48983">
        <ele>2</ele>
        <time>2011-06-19T09:16:54.000Z</time>
      </trkpt>
      <trkpt lat="47.76395" lon="-3.48937">
        <ele>5</ele>
        <time>2011-06-19T09:17:00.000Z</time>
      </trkpt>
      <trkpt lat="47.76392" lon="-3.48904">
        <ele>7</ele>
        <time>2011-06-19T09:17:04.000Z</time>
      </trkpt>
      <trkpt lat="47.76386" lon="-3.48864">
        <ele>8</ele>
        <time>2011-06-19T09:17:09.000Z</time>
      </trkpt>
      <trkpt lat="47.76379" lon="-3.48811">
        <ele>8</ele>
        <time>2011-06-19T09:17:16.000Z</time>
      </trkpt>
      <trkpt lat="47.76368" lon="-3.48747">
        <ele>10</ele>
        <time>2011-06-19T09:17:24.000Z</time>
      </trkpt>
      <trkpt lat="47.76373" lon="-3.48726">
        <ele>11</ele>
        <time>2011-06-19T09:17:28.000Z</time>
      </trkpt>
      <trkpt lat="47.76376" lon="-3.48723">
        <ele>11</ele>
        <time>2011-06-19T09:17:29.000Z</time>
      </trkpt>
      <trkpt lat="47.76402" lon="-3.48713">
        <ele>12</ele>
        <time>2011-06-19T09:17:35.000Z</time>
      </trkpt>
      <trkpt lat="47.76406" lon="-3.48711">
        <ele>12</ele>
        <time>2011-06-19T09:17:36.000Z</time>
      </trkpt>
      <trkpt lat="47.76429" lon="-3.48695">
        <ele>13</ele>
        <time>2011-06-19T09:17:42.000Z</time>
      </trkpt>
      <trkpt lat="47.76433" lon="-3.48669">
        <ele>13</ele>
        <time>2011-06-19T09:17:46.000Z</time>
      </trkpt>
      <trkpt lat="47.76435" lon="-3.48657">
        <ele>14</ele>
        <time>2011-06-19T09:17:48.000Z</time>
      </trkpt>
      <trkpt lat="47.76437" lon="-3.48633">
        <ele>13</ele>
        <time>2011-06-19T09:17:52.000Z</time>
      </trkpt>
      <trkpt lat="47.76445" lon="-3.48598">
        <ele>16</ele>
        <time>2011-06-19T09:17:59.000Z</time>
      </trkpt>
      <trkpt lat="47.76452" lon="-3.48573">
        <ele>17</ele>
        <time>2011-06-19T09:18:04.000Z</time>
      </trkpt>
      <trkpt lat="47.7646" lon="-3.48538">
        <ele>18</ele>
        <time>2011-06-19T09:18:11.000Z</time>
      </trkpt>
      <trkpt lat="47.76468" lon="-3.48493">
        <ele>20</ele>
        <time>2011-06-19T09:18:20.000Z</time>
      </trkpt>
      <trkpt lat="47.76472" lon="-3.48469">
        <ele>21</ele>
        <time>2011-06-19T09:18:25.000Z</time>
      </trkpt>
      <trkpt lat="47.76482" lon="-3.48432">
        <ele>20</ele>
        <time>2011-06-19T09:18:33.000Z</time>
      </trkpt>
      <trkpt lat="47.76488" lon="-3.48398">
        <ele>22</ele>
        <time>2011-06-19T09:18:40.000Z</time>
      </trkpt>
      <trkpt lat="47.76497" lon="-3.48354">
        <ele>25</ele>
        <time>2011-06-19T09:18:49.000Z</time>
      </trkpt>
      <trkpt lat="47.76501" lon="-3.48336">
        <ele>26</ele>
        <time>2011-06-19T09:18:53.000Z</time>
      </trkpt>
      <trkpt lat="47.76508" lon="-3.48299">
        <ele>27</ele>
        <time>2011-06-19T09:19:00.000Z</time>
      </trkpt>
      <trkpt lat="47.76516" lon="-3.4826">
        <ele>27</ele>
        <time>2011-06-19T09:19:07.000Z</time>
      </trkpt>
      <trkpt lat="47.76519" lon="-3.48235">
        <ele>27</ele>
        <time>2011-06-19T09:19:11.000Z</time>
      </trkpt>
      <trkpt lat="47.76523" lon="-3.48173">
        <ele>28</ele>
        <time>2011-06-19T09:19:20.000Z</time>
      </trkpt>
      <trkpt lat="47.76527" lon="-3.48145">
        <ele>28</ele>
        <time>2011-06-19T09:19:24.000Z</time>
      </trkpt>
      <trkpt lat="47.76538" lon="-3.48117">
        <ele>28</ele>
        <time>2011-06-19T09:19:28.000Z</time>
      </trkpt>
      <trkpt lat="47.76556" lon="-3.48061">
        <ele>28</ele>
        <time>2011-06-19T09:19:36.000Z</time>
      </trkpt>
      <trkpt lat="47.76569" lon="-3.48021">
        <ele>28</ele>
        <time>2011-06-19T09:19:42.000Z</time>
      </trkpt>
      <trkpt lat="47.76581" lon="-3.47972">
        <ele>28</ele>
        <time>2011-06-19T09:19:50.000Z</time>
      </trkpt>
      <trkpt lat="47.76586" lon="-3.47948">
        <ele>29</ele>
        <time>2011-06-19T09:19:54.000Z</time>
      </trkpt>
      <trkpt lat="47.76598" lon="-3.47939">
        <ele>31</ele>
        <time>2011-06-19T09:19:58.000Z</time>
      </trkpt>
      <trkpt lat="47.76606" lon="-3.47939">
        <ele>31</ele>
        <time>2011-06-19T09:20:00.000Z</time>
      </trkpt>
      <trkpt lat="47.7664" lon="-3.47937">
        <ele>34</ele>
        <time>2011-06-19T09:20:09.000Z</time>
      </trkpt>
      <trkpt lat="47.76666" lon="-3.47933">
        <ele>36</ele>
        <time>2011-06-19T09:20:16.000Z</time>
      </trkpt>
      <trkpt lat="47.76701" lon="-3.47929">
        <ele>39</ele>
        <time>2011-06-19T09:20:25.000Z</time>
      </trkpt>
      <trkpt lat="47.76728" lon="-3.47926">
        <ele>40</ele>
        <time>2011-06-19T09:20:32.000Z</time>
      </trkpt>
      <trkpt lat="47.76764" lon="-3.47921">
        <ele>42</ele>
        <time>2011-06-19T09:20:41.000Z</time>
      </trkpt>
      <trkpt lat="47.76802" lon="-3.47917">
        <ele>43</ele>
        <time>2011-06-19T09:20:50.000Z</time>
      </trkpt>
      <trkpt lat="47.76848" lon="-3.47913">
        <ele>43</ele>
        <time>2011-06-19T09:21:00.000Z</time>
      </trkpt>
      <trkpt lat="47.76898" lon="-3.47908">
        <ele>45</ele>
        <time>2011-06-19T09:21:11.000Z</time>
      </trkpt>
      <trkpt lat="47.76931" lon="-3.47905">
        <ele>46</ele>
        <time>2011-06-19T09:21:19.000Z</time>
      </trkpt>
      <trkpt lat="47.7698" lon="-3.47901">
        <ele>48</ele>
        <time>2011-06-19T09:21:31.000Z</time>
      </trkpt>
      <trkpt lat="47.77021" lon="-3.47897">
        <ele>50</ele>
        <time>2011-06-19T09:21:41.000Z</time>
      </trkpt>
      <trkpt lat="47.77062" lon="-3.47892">
        <ele>51</ele>
        <time>2011-06-19T09:21:51.000Z</time>
      </trkpt>
      <trkpt lat="47.771" lon="-3.47888">
        <ele>51</ele>
        <time>2011-06-19T09:22:00.000Z</time>
      </trkpt>
      <trkpt lat="47.77129" lon="-3.47887">
        <ele>51</ele>
        <time>2011-06-19T09:22:07.000Z</time>
      </trkpt>
      <trkpt lat="47.77155" lon="-3.47882">
        <ele>50</ele>
        <time>2011-06-19T09:22:13.000Z</time>
      </trkpt>
      <trkpt lat="47.77168" lon="-3.47873">
        <ele>50</ele>
        <time>2011-06-19T09:22:17.000Z</time>
      </trkpt>
      <trkpt lat="47.77167" lon="-3.47862">
        <ele>49</ele>
        <time>2011-06-19T09:22:19.000Z</time>
      </trkpt>
      <trkpt lat="47.77164" lon="-3.47848">
        <ele>49</ele>
        <time>2011-06-19T09:22:21.000Z</time>
      </trkpt>
      <trkpt lat="47.77159" lon="-3.47798">
        <ele>50</ele>
        <time>2011-06-19T09:22:28.000Z</time>
      </trkpt>
      <trkpt lat="47.77158" lon="-3.47745">
        <ele>49</ele>
        <time>2011-06-19T09:22:35.000Z</time>
      </trkpt>
      <trkpt lat="47.77166" lon="-3.47699">
        <ele>48</ele>
        <time>2011-06-19T09:22:41.000Z</time>
      </trkpt>
      <trkpt lat="47.77182" lon="-3.47631">
        <ele>47</ele>
        <time>2011-06-19T09:22:49.000Z</time>
      </trkpt>
      <trkpt lat="47.77192" lon="-3.4758">
        <ele>46</ele>
        <time>2011-06-19T09:22:55.000Z</time>
      </trkpt>
      <trkpt lat="47.77201" lon="-3.47547">
        <ele>45</ele>
        <time>2011-06-19T09:22:59.000Z</time>
      </trkpt>
      <trkpt lat="47.77205" lon="-3.47545">
        <ele>45</ele>
        <time>2011-06-19T09:23:03.000Z</time>
      </trkpt>
      <trkpt lat="47.77203" lon="-3.47551">
        <ele>45</ele>
        <time>2011-06-19T09:23:05.000Z</time>
      </trkpt>
      <trkpt lat="47.77195" lon="-3.47583">
        <ele>47</ele>
        <time>2011-06-19T09:23:11.000Z</time>
      </trkpt>
      <trkpt lat="47.77188" lon="-3.4761">
        <ele>48</ele>
        <time>2011-06-19T09:23:15.000Z</time>
      </trkpt>
      <trkpt lat="47.77195" lon="-3.47628">
        <ele>49</ele>
        <time>2011-06-19T09:23:19.000Z</time>
      </trkpt>
      <trkpt lat="47.77229" lon="-3.47634">
        <ele>47</ele>
        <time>2011-06-19T09:23:25.000Z</time>
      </trkpt>
      <trkpt lat="47.77261" lon="-3.47642">
        <ele>43</ele>
        <time>2011-06-19T09:23:29.000Z</time>
      </trkpt>
      <trkpt lat="47.77298" lon="-3.47657">
        <ele>38</ele>
        <time>2011-06-19T09:23:33.000Z</time>
      </trkpt>
      <trkpt lat="47.77342" lon="-3.47672">
        <ele>33</ele>
        <time>2011-06-19T09:23:37.000Z</time>
      </trkpt>
      <trkpt lat="47.77387" lon="-3.4768">
        <ele>26</ele>
        <time>2011-06-19T09:23:41.000Z</time>
      </trkpt>
      <trkpt lat="47.77444" lon="-3.4771">
        <ele>21</ele>
        <time>2011-06-19T09:23:47.000Z</time>
      </trkpt>
      <trkpt lat="47.77462" lon="-3.47727">
        <ele>20</ele>
        <time>2011-06-19T09:23:50.000Z</time>
      </trkpt>
      <trkpt lat="47.77477" lon="-3.47759">
        <ele>21</ele>
        <time>2011-06-19T09:23:55.000Z</time>
      </trkpt>
      <trkpt lat="47.7748" lon="-3.47789">
        <ele>24</ele>
        <time>2011-06-19T09:23:58.000Z</time>
      </trkpt>
      <trkpt lat="47.7748" lon="-3.47815">
        <ele>26</ele>
        <time>2011-06-19T09:24:01.000Z</time>
      </trkpt>
      <trkpt lat="47.77483" lon="-3.47836">
        <ele>26</ele>
        <time>2011-06-19T09:24:04.000Z</time>
      </trkpt>
      <trkpt lat="47.77488" lon="-3.47848">
        <ele>27</ele>
        <time>2011-06-19T09:24:06.000Z</time>
      </trkpt>
      <trkpt lat="47.77499" lon="-3.47869">
        <ele>28</ele>
        <time>2011-06-19T09:24:10.000Z</time>
      </trkpt>
      <trkpt lat="47.77509" lon="-3.47888">
        <ele>28</ele>
        <time>2011-06-19T09:24:14.000Z</time>
      </trkpt>
      <trkpt lat="47.77525" lon="-3.47926">
        <ele>32</ele>
        <time>2011-06-19T09:24:23.000Z</time>
      </trkpt>
      <trkpt lat="47.77535" lon="-3.47945">
        <ele>34</ele>
        <time>2011-06-19T09:24:28.000Z</time>
      </trkpt>
      <trkpt lat="47.7755" lon="-3.47974">
        <ele>37</ele>
        <time>2011-06-19T09:24:36.000Z</time>
      </trkpt>
      <trkpt lat="47.77564" lon="-3.48">
        <ele>40</ele>
        <time>2011-06-19T09:24:44.000Z</time>
      </trkpt>
      <trkpt lat="47.77578" lon="-3.48024">
        <ele>43</ele>
        <time>2011-06-19T09:24:52.000Z</time>
      </trkpt>
      <trkpt lat="47.77588" lon="-3.48046">
        <ele>46</ele>
        <time>2011-06-19T09:24:59.000Z</time>
      </trkpt>
      <trkpt lat="47.77597" lon="-3.48061">
        <ele>47</ele>
        <time>2011-06-19T09:25:04.000Z</time>
      </trkpt>
      <trkpt lat="47.77612" lon="-3.48074">
        <ele>49</ele>
        <time>2011-06-19T09:25:10.000Z</time>
      </trkpt>
      <trkpt lat="47.77627" lon="-3.48081">
        <ele>51</ele>
        <time>2011-06-19T09:25:16.000Z</time>
      </trkpt>
      <trkpt lat="47.77637" lon="-3.48086">
        <ele>53</ele>
        <time>2011-06-19T09:25:20.000Z</time>
      </trkpt>
      <trkpt lat="47.77657" lon="-3.48102">
        <ele>54</ele>
        <time>2011-06-19T09:25:26.000Z</time>
      </trkpt>
      <trkpt lat="47.7767" lon="-3.48114">
        <ele>53</ele>
        <time>2011-06-19T09:25:31.000Z</time>
      </trkpt>
      <trkpt lat="47.7769" lon="-3.48132">
        <ele>53</ele>
        <time>2011-06-19T09:25:37.000Z</time>
      </trkpt>
      <trkpt lat="47.77711" lon="-3.48149">
        <ele>53</ele>
        <time>2011-06-19T09:25:42.000Z</time>
      </trkpt>
      <trkpt lat="47.77717" lon="-3.48152">
        <ele>53</ele>
        <time>2011-06-19T09:25:43.000Z</time>
      </trkpt>
      <trkpt lat="47.77734" lon="-3.48164">
        <ele>51</ele>
        <time>2011-06-19T09:25:46.000Z</time>
      </trkpt>
      <trkpt lat="47.77762" lon="-3.48175">
        <ele>49</ele>
        <time>2011-06-19T09:25:50.000Z</time>
      </trkpt>
      <trkpt lat="47.77816" lon="-3.48177">
        <ele>46</ele>
        <time>2011-06-19T09:25:57.000Z</time>
      </trkpt>
      <trkpt lat="47.77855" lon="-3.48179">
        <ele>45</ele>
        <time>2011-06-19T09:26:03.000Z</time>
      </trkpt>
      <trkpt lat="47.77872" lon="-3.4818">
        <ele>44</ele>
        <time>2011-06-19T09:26:06.000Z</time>
      </trkpt>
      <trkpt lat="47.77882" lon="-3.48181">
        <ele>45</ele>
        <time>2011-06-19T09:26:08.000Z</time>
      </trkpt>
      <trkpt lat="47.7792" lon="-3.4818">
        <ele>45</ele>
        <time>2011-06-19T09:26:16.000Z</time>
      </trkpt>
      <trkpt lat="47.77945" lon="-3.48195">
        <ele>45</ele>
        <time>2011-06-19T09:26:21.000Z</time>
      </trkpt>
      <trkpt lat="47.77961" lon="-3.48211">
        <ele>45</ele>
        <time>2011-06-19T09:26:25.000Z</time>
      </trkpt>
      <trkpt lat="47.77996" lon="-3.48239">
        <ele>44</ele>
        <time>2011-06-19T09:26:33.000Z</time>
      </trkpt>
      <trkpt lat="47.78026" lon="-3.48266">
        <ele>43</ele>
        <time>2011-06-19T09:26:38.000Z</time>
      </trkpt>
      <trkpt lat="47.78032" lon="-3.48272">
        <ele>42</ele>
        <time>2011-06-19T09:26:39.000Z</time>
      </trkpt>
      <trkpt lat="47.78055" lon="-3.48281">
        <ele>42</ele>
        <time>2011-06-19T09:26:42.000Z</time>
      </trkpt>
      <trkpt lat="47.78077" lon="-3.48306">
        <ele>40</ele>
        <time>2011-06-19T09:26:46.000Z</time>
      </trkpt>
      <trkpt lat="47.78088" lon="-3.48329">
        <ele>38</ele>
        <time>2011-06-19T09:26:49.000Z</time>
      </trkpt>
      <trkpt lat="47.78094" lon="-3.48334">
        <ele>37</ele>
        <time>2011-06-19T09:26:52.000Z</time>
      </trkpt>
      <trkpt lat="47.78095" lon="-3.48336">
        <ele>37</ele>
        <time>2011-06-19T09:26:57.000Z</time>
      </trkpt>
      <trkpt lat="47.78094" lon="-3.48341">
        <ele>38</ele>
        <time>2011-06-19T09:27:00.000Z</time>
      </trkpt>
      <trkpt lat="47.78095" lon="-3.48367">
        <ele>36</ele>
        <time>2011-06-19T09:27:05.000Z</time>
      </trkpt>
      <trkpt lat="47.78097" lon="-3.48412">
        <ele>33</ele>
        <time>2011-06-19T09:27:10.000Z</time>
      </trkpt>
      <trkpt lat="47.78097" lon="-3.48478">
        <ele>30</ele>
        <time>2011-06-19T09:27:16.000Z</time>
      </trkpt>
      <trkpt lat="47.78097" lon="-3.48489">
        <ele>29</ele>
        <time>2011-06-19T09:27:17.000Z</time>
      </trkpt>
      <trkpt lat="47.78103" lon="-3.48508">
        <ele>28</ele>
        <time>2011-06-19T09:27:21.000Z</time>
      </trkpt>
      <trkpt lat="47.78113" lon="-3.48505">
        <ele>28</ele>
        <time>2011-06-19T09:27:23.000Z</time>
      </trkpt>
      <trkpt lat="47.78136" lon="-3.48499">
        <ele>27</ele>
        <time>2011-06-19T09:27:27.000Z</time>
      </trkpt>
      <trkpt lat="47.78148" lon="-3.48497">
        <ele>27</ele>
        <time>2011-06-19T09:27:29.000Z</time>
      </trkpt>
      <trkpt lat="47.7819" lon="-3.48495">
        <ele>27</ele>
        <time>2011-06-19T09:27:36.000Z</time>
      </trkpt>
      <trkpt lat="47.78202" lon="-3.48494">
        <ele>27</ele>
        <time>2011-06-19T09:27:38.000Z</time>
      </trkpt>
      <trkpt lat="47.78214" lon="-3.48496">
        <ele>27</ele>
        <time>2011-06-19T09:27:40.000Z</time>
      </trkpt>
      <trkpt lat="47.78254" lon="-3.48515">
        <ele>27</ele>
        <time>2011-06-19T09:27:47.000Z</time>
      </trkpt>
      <trkpt lat="47.78268" lon="-3.48527">
        <ele>28</ele>
        <time>2011-06-19T09:27:50.000Z</time>
      </trkpt>
      <trkpt lat="47.78276" lon="-3.48539">
        <ele>28</ele>
        <time>2011-06-19T09:27:53.000Z</time>
      </trkpt>
      <trkpt lat="47.78281" lon="-3.48549">
        <ele>29</ele>
        <time>2011-06-19T09:27:56.000Z</time>
      </trkpt>
      <trkpt lat="47.78289" lon="-3.48545">
        <ele>29</ele>
        <time>2011-06-19T09:28:01.000Z</time>
      </trkpt>
      <trkpt lat="47.783" lon="-3.48536">
        <ele>29</ele>
        <time>2011-06-19T09:28:06.000Z</time>
      </trkpt>
      <trkpt lat="47.78313" lon="-3.48524">
        <ele>29</ele>
        <time>2011-06-19T09:28:11.000Z</time>
      </trkpt>
      <trkpt lat="47.78323" lon="-3.48509">
        <ele>29</ele>
        <time>2011-06-19T09:28:15.000Z</time>
      </trkpt>
      <trkpt lat="47.78337" lon="-3.48488">
        <ele>28</ele>
        <time>2011-06-19T09:28:20.000Z</time>
      </trkpt>
      <trkpt lat="47.78344" lon="-3.48471">
        <ele>28</ele>
        <time>2011-06-19T09:28:24.000Z</time>
      </trkpt>
      <trkpt lat="47.78357" lon="-3.48447">
        <ele>25</ele>
        <time>2011-06-19T09:28:29.000Z</time>
      </trkpt>
      <trkpt lat="47.78362" lon="-3.48442">
        <ele>23</ele>
        <time>2011-06-19T09:28:30.000Z</time>
      </trkpt>
      <trkpt lat="47.78387" lon="-3.48416">
        <ele>24</ele>
        <time>2011-06-19T09:28:36.000Z</time>
      </trkpt>
      <trkpt lat="47.78394" lon="-3.48409">
        <ele>25</ele>
        <time>2011-06-19T09:28:38.000Z</time>
      </trkpt>
      <trkpt lat="47.78408" lon="-3.48399">
        <ele>22</ele>
        <time>2011-06-19T09:28:42.000Z</time>
      </trkpt>
      <trkpt lat="47.78428" lon="-3.48387">
        <ele>24</ele>
        <time>2011-06-19T09:28:47.000Z</time>
      </trkpt>
      <trkpt lat="47.78446" lon="-3.48379">
        <ele>23</ele>
        <time>2011-06-19T09:28:52.000Z</time>
      </trkpt>
      <trkpt lat="47.78468" lon="-3.48366">
        <ele>21</ele>
        <time>2011-06-19T09:28:56.000Z</time>
      </trkpt>
      <trkpt lat="47.7848" lon="-3.48363">
        <ele>20</ele>
        <time>2011-06-19T09:28:58.000Z</time>
      </trkpt>
      <trkpt lat="47.78491" lon="-3.48359">
        <ele>21</ele>
        <time>2011-06-19T09:29:00.000Z</time>
      </trkpt>
      <trkpt lat="47.7851" lon="-3.48349">
        <ele>22</ele>
        <time>2011-06-19T09:29:04.000Z</time>
      </trkpt>
      <trkpt lat="47.78524" lon="-3.48344">
        <ele>23</ele>
        <time>2011-06-19T09:29:07.000Z</time>
      </trkpt>
      <trkpt lat="47.7854" lon="-3.48335">
        <ele>22</ele>
        <time>2011-06-19T09:29:11.000Z</time>
      </trkpt>
      <trkpt lat="47.78561" lon="-3.4833">
        <ele>24</ele>
        <time>2011-06-19T09:29:17.000Z</time>
      </trkpt>
      <trkpt lat="47.78588" lon="-3.48324">
        <ele>29</ele>
        <time>2011-06-19T09:29:24.000Z</time>
      </trkpt>
      <trkpt lat="47.78609" lon="-3.48326">
        <ele>31</ele>
        <time>2011-06-19T09:29:30.000Z</time>
      </trkpt>
      <trkpt lat="47.78628" lon="-3.48339">
        <ele>34</ele>
        <time>2011-06-19T09:29:36.000Z</time>
      </trkpt>
      <trkpt lat="47.78642" lon="-3.48342">
        <ele>36</ele>
        <time>2011-06-19T09:29:40.000Z</time>
      </trkpt>
      <trkpt lat="47.78658" lon="-3.48337">
        <ele>36</ele>
        <time>2011-06-19T09:29:44.000Z</time>
      </trkpt>
      <trkpt lat="47.78671" lon="-3.48349">
        <ele>37</ele>
        <time>2011-06-19T09:29:48.000Z</time>
      </trkpt>
      <trkpt lat="47.78673" lon="-3.48354">
        <ele>37</ele>
        <time>2011-06-19T09:29:49.000Z</time>
      </trkpt>
      <trkpt lat="47.78676" lon="-3.4838">
        <ele>38</ele>
        <time>2011-06-19T09:29:54.000Z</time>
      </trkpt>
      <trkpt lat="47.78667" lon="-3.48412">
        <ele>41</ele>
        <time>2011-06-19T09:30:02.000Z</time>
      </trkpt>
      <trkpt lat="47.78661" lon="-3.48449">
        <ele>43</ele>
        <time>2011-06-19T09:30:10.000Z</time>
      </trkpt>
      <trkpt lat="47.78658" lon="-3.48482">
        <ele>47</ele>
        <time>2011-06-19T09:30:18.000Z</time>
      </trkpt>
      <trkpt lat="47.78658" lon="-3.48488">
        <ele>47</ele>
        <time>2011-06-19T09:30:20.000Z</time>
      </trkpt>
      <trkpt lat="47.78666" lon="-3.485">
        <ele>47</ele>
        <time>2011-06-19T09:30:26.000Z</time>
      </trkpt>
      <trkpt lat="47.78677" lon="-3.48507">
        <ele>47</ele>
        <time>2011-06-19T09:30:30.000Z</time>
      </trkpt>
      <trkpt lat="47.78691" lon="-3.48526">
        <ele>46</ele>
        <time>2011-06-19T09:30:35.000Z</time>
      </trkpt>
      <trkpt lat="47.787" lon="-3.48544">
        <ele>47</ele>
        <time>2011-06-19T09:30:39.000Z</time>
      </trkpt>
      <trkpt lat="47.78714" lon="-3.48559">
        <ele>44</ele>
        <time>2011-06-19T09:30:43.000Z</time>
      </trkpt>
      <trkpt lat="47.78726" lon="-3.48578">
        <ele>40</ele>
        <time>2011-06-19T09:30:47.000Z</time>
      </trkpt>
      <trkpt lat="47.78741" lon="-3.486">
        <ele>36</ele>
        <time>2011-06-19T09:30:51.000Z</time>
      </trkpt>
      <trkpt lat="47.78745" lon="-3.48603">
        <ele>37</ele>
        <time>2011-06-19T09:30:52.000Z</time>
      </trkpt>
      <trkpt lat="47.78753" lon="-3.48607">
        <ele>37</ele>
        <time>2011-06-19T09:30:56.000Z</time>
      </trkpt>
      <trkpt lat="47.78757" lon="-3.48609">
        <ele>37</ele>
        <time>2011-06-19T09:30:57.000Z</time>
      </trkpt>
      <trkpt lat="47.7878" lon="-3.48619">
        <ele>39</ele>
        <time>2011-06-19T09:31:04.000Z</time>
      </trkpt>
      <trkpt lat="47.78798" lon="-3.48627">
        <ele>39</ele>
        <time>2011-06-19T09:31:10.000Z</time>
      </trkpt>
      <trkpt lat="47.78801" lon="-3.48629">
        <ele>39</ele>
        <time>2011-06-19T09:31:11.000Z</time>
      </trkpt>
    </trkseg>
  </trk>
</gpx>